[[{"header":{"parameterUnit":"m.s-1","parameterCategory":1,"la1":31.0,"la2":29.5877,"lo1":-88.7671,"lo2":-86.6584,"dy":0.0162,"dx":0.0185,"nx":115,"ny":88,"refTime":"2026-04-25T12:00:00:Z","depth":0,"parameterNumber":2,"parameterNumberName":"U-component_of_WINDS"},"data":[0.0,0.0,0.0,0.0,0.0,0.0,0.0,0.0,0.0,0.0,0.0,0.0,0.0,0.0,0.0,0.0,0.0,0.0,0.0,0.0,0.0,0.0,0.0,0.0,0.0,0.0,0.0,0.0,0.0,0.0,0.0,0.0,0.0,0.0,0.0,0.0,0.0,0.0,0.0,0.0,0.0,0.0,0.0,0.0,0.0,0.0,0.0,0.0,0.0,0.0,0.0,0.0,0.0,0.0,0.0,0.0,0.0,0.0,0.0,0.0,0.0,0.0,0.0,0.0,0.0,0.0,0.0,0.0,0.0,0.0,0.0,0.0,0.0,0.0,0.0,0.0,0.0,0.0,0.0,0.0,0.0,0.0,0.0,0.0,0.0,0.0,0.0,0.0,0.0,0.0,0.0,0.0,0.0,0.0,0.0,0.0,0.0,0.0,0.0,0.0,0.0,0.0,0.0,0.0,0.0,0.0,0.0,0.0,0.0,0.0,0.0,0.0,0.0,0.0,0.0,0.0,0.0,0.0,0.0,0.0,0.0,0.0,0.0,0.0,0.0,0.0,0.0,0.0,0.0,0.0,0.0,0.0,0.0,0.0,0.0,0.0,0.0,0.0,0.0,0.0,0.0,0.0,0.0,0.0,0.0,0.0,0.0,0.0,0.0,0.0,0.0,0.0,0.0,0.0,0.0,0.0,0.0,0.0,0.0,0.0,0.0,0.0,0.0,0.0,0.0,0.0,0.0,0.0,0.0,0.0,0.0,0.0,0.0,0.0,0.0,0.0,0.0,0.0,0.0,0.0,0.0,0.0,0.0,0.0,0.0,0.0,0.0,0.0,0.0,0.0,0.0,0.0,0.0,0.0,0.0,0.0,0.0,0.0,0.0,0.0,0.0,0.0,0.0,0.0,0.0,0.0,0.0,0.0,0.0,0.0,0.0,0.0,0.0,0.0,0.0,0.0,0.0,0.0,0.0,0.0,0.0,0.0,0.0,0.0,0.0,0.0,0.0,0.0,0.0,0.0,0.0,0.0,0.0,0.0,0.0,0.0,0.0,0.0,0.0,0.0,0.0,0.0,0.0,0.0,0.0,0.0,0.0,0.0,0.0,0.0,0.0,0.0,0.0,0.0,0.0,0.0,0.0,0.0,0.0,0.0,0.0,0.0,0.0,0.0,0.0,0.0,0.0,0.0,0.0,0.0,0.0,0.0,0.0,0.0,0.0,0.0,0.0,0.0,0.0,0.0,0.0,0.0,0.0,0.0,0.0,0.0,0.0,0.0,0.0,0.0,0.0,0.0,0.0,0.0,0.0,0.0,0.0,0.0,0.0,0.0,0.0,0.0,0.0,0.0,0.0,0.0,0.0,0.0,0.0,0.0,0.0,0.0,0.0,0.0,0.0,0.0,0.0,0.0,0.0,0.0,0.0,0.0,0.0,0.0,0.0,0.0,0.0,0.0,0.0,0.0,0.0,0.0,0.0,0.0,0.0,0.0,0.0,0.0,0.0,0.0,0.0,0.0,0.0,0.0,0.0,0.0,0.0,0.0,0.0,0.0,0.0,0.0,0.0,0.0,0.0,0.0,0.0,0.0,0.0,0.0,0.0,0.0,0.0,0.0,0.0,0.0,0.0,0.0,0.0,0.0,0.0,0.0,0.0,0.0,0.0,0.0,0.0,0.0,0.0,0.0,0.0,0.0,0.0,0.0,0.0,0.0,0.0,0.0,0.0,0.0,0.0,0.0,0.0,0.0,0.0,0.0,0.0,0.0,0.0,0.0,0.0,0.0,0.0,0.0,0.0,0.0,0.0,0.0,0.0,0.0,0.0,0.0,0.0,0.0,0.0,0.0,0.0,0.0,0.0,0.0,0.0,0.0,0.0,0.0,0.0,0.0,0.0,0.0,0.0,0.0,0.0,0.0,0.0,0.0,0.0,0.0,0.0,0.0,0.0,0.0,0.0,0.0,0.0,0.0,0.0,0.0,0.0,0.0,0.0,0.0,0.0,0.0,0.0,0.0,0.0,0.0,0.0,0.0,0.0,0.0,0.0,0.0,0.0,0.0,0.0,0.0,0.0,0.0,0.0,0.0,0.0,0.0,0.0,0.0,0.0,0.0,0.0,0.0,0.0,0.0,0.0,0.0,0.0,0.0,0.0,0.0,0.0,0.0,0.0,0.0,0.0,0.0,0.0,0.0,0.0,0.0,0.0,0.0,0.0,0.0,0.0,0.0,0.0,0.0,0.0,0.0,0.0,0.0,0.0,0.0,0.0,0.0,0.0,0.0,0.0,0.0,0.0,0.0,0.0,0.0,0.0,0.0,0.0,0.0,0.0,0.0,0.0,0.0,0.0,0.0,0.0,0.0,0.0,0.0,0.0,0.0,0.0,0.0,0.0,0.0,0.0,0.0,0.0,0.0,0.0,0.0,0.0,0.0,0.0,0.0,0.0,0.0,0.0,0.0,0.0,0.0,0.0,0.0,0.0,0.0,0.0,0.0,0.0,0.0,0.0,0.0,0.0,0.0,0.0,0.0,0.0,0.0,0.0,0.0,0.0,0.0,0.0,0.0,0.0,0.0,0.0,0.0,0.0,0.0,0.0,0.0,0.0,0.0,0.0,0.0,0.0,0.0,0.0,0.0,0.0,0.0,0.0,0.0,0.0,0.0,0.0,0.0,0.0,0.0,0.0,0.0,0.0,0.0,0.0,0.0,0.0,0.0,0.0,0.0,0.0,0.0,0.0,0.0,0.0,0.0,0.0,0.0,0.0,0.0,0.0,0.0,0.0,0.0,0.0,0.0,0.0,0.0,0.0,0.0,0.0,0.0,0.0,0.0,0.0,0.0,0.0,0.0,0.0,0.0,0.0,0.0,0.0,0.0,0.0,0.0,0.0,0.0,0.0,0.0,0.0,0.0,0.0,0.0,0.0,0.0,0.0,0.0,0.0,0.0,0.0,0.0,0.0,0.0,0.0,0.0,0.0,0.0,0.0,0.0,0.0,0.0,0.0,0.0,0.0,0.0,0.0,0.0,0.0,0.0,0.0,0.0,0.0,0.0,0.0,0.0,0.0,0.0,0.0,0.0,0.0,0.0,0.0,0.0,0.0,0.0,0.0,0.0,0.0,0.0,0.0,0.0,0.0,0.0,0.0,0.0,0.0,0.0,0.0,0.0,0.0,0.0,0.0,0.0,0.0,0.0,0.0,0.0,0.0,0.0,0.0,0.0,0.0,0.0,0.0,0.0,0.0,0.0,0.0,0.0,0.0,0.0,0.0,0.0,0.0,0.0,0.0,0.0,0.0,0.0,0.0,0.0,0.0,0.0,0.0,0.0,0.0,0.0,0.0,0.0,0.0,0.0,0.0,0.0,0.0,0.0,0.0,0.0,0.0,0.0,0.0,0.0,0.0,0.0,0.0,0.0,0.0,0.0,0.0,0.0,0.0,0.0,0.0,0.0,0.0,0.0,0.0,0.0,0.0,0.0,0.0,0.0,0.0,0.0,0.0,0.0,0.0,0.0,0.0,0.0,0.0,0.0,0.0,0.0,0.0,0.0,0.0,0.0,0.0,0.0,0.0,0.0,0.0,0.0,0.0,0.0,0.0,0.0,0.0,0.0,0.0,0.0,0.0,0.0,0.0,0.0,0.0,0.0,0.0,0.0,0.0,0.0,0.0,0.0,0.0,0.0,0.0,0.0,0.0,0.0,0.0,0.0,0.0,0.0,0.0,0.0,0.0,0.0,0.0,0.0,0.0,0.0,0.0,0.0,0.0,0.0,0.0,0.0,0.0,0.0,0.0,0.0,0.0,0.0,0.0,0.0,0.0,0.0,0.0,0.0,0.0,0.0,0.0,0.0,0.0,0.0,0.0,0.0,0.0,0.0,0.0,0.0,0.0,0.0,0.0,0.0,0.0,0.0,0.0,0.0,0.0,0.0,0.0,0.0,0.0,0.0,0.0,0.0,0.0,0.0,0.0,0.0,0.0,0.0,0.0,0.0,0.0,0.0,0.0,0.0,0.0,0.0,0.0,0.0,0.0,0.0,0.0,0.0,0.0,0.0,0.0,0.0,0.0,0.0,0.0,0.0,0.0,0.0,0.0,0.0,0.0,0.0,0.0,0.0,0.0,0.0,0.0,0.0,0.0,0.0,0.0,0.0,0.0,0.0,0.0,0.0,0.0,0.0,0.0,0.0,0.0,0.0,0.0,0.0,0.0,0.0,0.0,0.0,0.0,0.0,0.0,0.0,0.0,0.0,0.0,0.0,0.0,0.0,0.0,0.0,0.0,0.0,-2.568,0.0,0.0,0.0,0.0,0.0,0.0,0.0,0.0,0.0,0.0,0.0,0.0,0.0,0.0,0.0,0.0,0.0,0.0,0.0,0.0,0.0,0.0,0.0,0.0,0.0,0.0,0.0,0.0,0.0,0.0,0.0,0.0,0.0,0.0,0.0,0.0,0.0,0.0,0.0,0.0,0.0,0.0,0.0,0.0,0.0,0.0,0.0,0.0,0.0,0.0,0.0,0.0,0.0,0.0,0.0,0.0,0.0,0.0,0.0,0.0,0.0,0.0,0.0,0.0,0.0,0.0,0.0,0.0,0.0,0.0,0.0,0.0,0.0,0.0,0.0,0.0,0.0,0.0,0.0,0.0,0.0,0.0,0.0,0.0,0.0,0.0,0.0,0.0,0.0,0.0,0.0,0.0,0.0,0.0,0.0,0.0,0.0,0.0,0.0,0.0,0.0,0.0,0.0,0.0,0.0,0.0,0.0,0.0,0.0,0.0,-2.6409,-2.679,-2.5932,-2.5476,-2.5532,0.0,0.0,0.0,0.0,0.0,0.0,0.0,0.0,0.0,0.0,0.0,0.0,0.0,0.0,0.0,0.0,0.0,0.0,0.0,0.0,0.0,0.0,0.0,0.0,0.0,0.0,0.0,0.0,0.0,0.0,0.0,0.0,0.0,0.0,0.0,0.0,0.0,0.0,0.0,0.0,0.0,0.0,0.0,0.0,0.0,0.0,0.0,0.0,0.0,0.0,0.0,0.0,0.0,0.0,0.0,0.0,0.0,0.0,0.0,0.0,0.0,0.0,0.0,0.0,0.0,0.0,0.0,0.0,0.0,0.0,0.0,0.0,0.0,0.0,0.0,0.0,0.0,0.0,0.0,0.0,0.0,0.0,0.0,0.0,0.0,0.0,0.0,0.0,0.0,0.0,0.0,0.0,0.0,0.0,0.0,0.0,0.0,0.0,0.0,0.0,0.0,0.0,0.0,0.0,0.0,0.0,0.0,0.0,0.0,0.0,0.0,0.0,-2.6335,-2.5986,-2.5986,0.0,0.0,0.0,0.0,0.0,0.0,0.0,0.0,0.0,0.0,0.0,0.0,0.0,0.0,0.0,0.0,0.0,0.0,0.0,0.0,0.0,0.0,0.0,0.0,0.0,0.0,0.0,0.0,0.0,0.0,0.0,0.0,0.0,0.0,0.0,0.0,0.0,0.0,0.0,0.0,0.0,0.0,0.0,0.0,0.0,0.0,0.0,0.0,0.0,0.0,0.0,0.0,0.0,0.0,0.0,0.0,0.0,0.0,0.0,0.0,0.0,0.0,0.0,0.0,0.0,0.0,0.0,0.0,0.0,0.0,0.0,0.0,0.0,0.0,0.0,0.0,0.0,0.0,0.0,0.0,0.0,0.0,0.0,0.0,0.0,0.0,0.0,0.0,0.0,0.0,0.0,0.0,0.0,0.0,0.0,0.0,0.0,0.0,0.0,0.0,0.0,0.0,0.0,0.0,0.0,0.0,0.0,0.0,0.0,0.0,-2.6234,-2.7909,-2.7807,0.0,-2.7727,0.0,0.0,0.0,0.0,0.0,0.0,0.0,0.0,0.0,0.0,0.0,0.0,0.0,0.0,0.0,0.0,0.0,0.0,0.0,0.0,0.0,0.0,0.0,0.0,0.0,0.0,0.0,0.0,0.0,0.0,0.0,0.0,0.0,0.0,0.0,0.0,0.0,0.0,0.0,0.0,0.0,0.0,0.0,0.0,0.0,0.0,0.0,0.0,0.0,0.0,0.0,0.0,0.0,0.0,0.0,0.0,0.0,0.0,0.0,0.0,0.0,0.0,0.0,0.0,0.0,0.0,0.0,0.0,0.0,0.0,0.0,0.0,0.0,0.0,0.0,0.0,0.0,0.0,0.0,0.0,0.0,0.0,0.0,0.0,0.0,0.0,0.0,0.0,0.0,0.0,0.0,0.0,0.0,0.0,0.0,0.0,0.0,0.0,0.0,0.0,0.0,0.0,0.0,0.0,0.0,0.0,0.0,0.0,0.0,0.0,-2.7323,-2.7956,-2.7455,-2.7162,0.0,0.0,0.0,0.0,0.0,0.0,0.0,0.0,0.0,0.0,0.0,0.0,0.0,0.0,0.0,0.0,0.0,0.0,0.0,0.0,0.0,0.0,0.0,0.0,0.0,0.0,0.0,0.0,0.0,0.0,0.0,0.0,0.0,0.0,0.0,0.0,0.0,0.0,0.0,0.0,0.0,0.0,0.0,0.0,0.0,0.0,0.0,0.0,0.0,0.0,0.0,0.0,0.0,0.0,0.0,0.0,0.0,0.0,0.0,0.0,0.0,0.0,0.0,0.0,0.0,0.0,0.0,0.0,0.0,0.0,0.0,0.0,0.0,0.0,0.0,0.0,0.0,0.0,0.0,0.0,0.0,0.0,0.0,0.0,0.0,0.0,0.0,0.0,0.0,0.0,0.0,0.0,0.0,0.0,0.0,0.0,0.0,0.0,0.0,0.0,0.0,0.0,0.0,0.0,0.0,0.0,0.0,0.0,0.0,0.0,-2.7583,-2.8225,-2.8536,-2.7967,-2.7313,-2.6621,0.0,0.0,0.0,0.0,0.0,0.0,0.0,0.0,0.0,0.0,0.0,0.0,0.0,0.0,0.0,0.0,0.0,0.0,0.0,0.0,0.0,0.0,0.0,0.0,0.0,0.0,0.0,0.0,0.0,0.0,0.0,0.0,0.0,0.0,0.0,0.0,0.0,0.0,0.0,0.0,0.0,0.0,0.0,0.0,0.0,0.0,0.0,0.0,0.0,0.0,0.0,0.0,0.0,0.0,0.0,0.0,0.0,0.0,0.0,0.0,0.0,0.0,0.0,0.0,0.0,0.0,0.0,0.0,0.0,0.0,0.0,0.0,0.0,0.0,0.0,0.0,0.0,0.0,0.0,0.0,0.0,0.0,0.0,0.0,0.0,0.0,0.0,0.0,0.0,0.0,0.0,0.0,0.0,0.0,0.0,0.0,0.0,0.0,0.0,0.0,0.0,0.0,0.0,0.0,0.0,0.0,0.0,0.0,0.0,-2.8657,-2.8676,-3.0237,-3.025,-2.9096,0.0,0.0,0.0,0.0,0.0,0.0,0.0,0.0,0.0,0.0,0.0,0.0,0.0,0.0,0.0,0.0,0.0,0.0,0.0,0.0,0.0,0.0,0.0,0.0,0.0,0.0,0.0,0.0,0.0,0.0,0.0,0.0,0.0,0.0,0.0,0.0,0.0,0.0,0.0,0.0,0.0,0.0,0.0,0.0,0.0,0.0,0.0,0.0,0.0,0.0,0.0,0.0,0.0,0.0,0.0,0.0,0.0,0.0,0.0,0.0,0.0,0.0,0.0,0.0,0.0,0.0,0.0,0.0,0.0,0.0,0.0,0.0,0.0,0.0,0.0,0.0,0.0,0.0,0.0,0.0,0.0,0.0,0.0,0.0,0.0,0.0,0.0,0.0,0.0,0.0,0.0,0.0,0.0,0.0,0.0,0.0,0.0,0.0,0.0,0.0,0.0,0.0,0.0,0.0,0.0,0.0,0.0,0.0,0.0,-2.7132,-2.7731,-2.9367,-3.1937,-2.8984,-2.7296,0.0,0.0,0.0,0.0,0.0,0.0,0.0,0.0,0.0,0.0,0.0,0.0,0.0,0.0,0.0,0.0,0.0,0.0,0.0,0.0,0.0,0.0,0.0,0.0,0.0,0.0,0.0,0.0,0.0,0.0,0.0,0.0,0.0,0.0,0.0,0.0,0.0,0.0,0.0,0.0,0.0,0.0,0.0,0.0,0.0,0.0,0.0,0.0,0.0,0.0,0.0,0.0,0.0,0.0,0.0,0.0,0.0,0.0,0.0,0.0,0.0,0.0,0.0,0.0,0.0,0.0,0.0,0.0,0.0,0.0,0.0,0.0,0.0,0.0,0.0,0.0,0.0,0.0,0.0,0.0,0.0,0.0,0.0,0.0,0.0,0.0,0.0,0.0,0.0,0.0,0.0,0.0,0.0,0.0,0.0,0.0,0.0,0.0,0.0,0.0,0.0,0.0,0.0,0.0,0.0,0.0,0.0,0.0,0.0,-2.7083,0.0,-3.0478,0.0,-2.8527,-2.642,0.0,0.0,0.0,0.0,0.0,0.0,0.0,0.0,0.0,0.0,0.0,0.0,0.0,0.0,0.0,0.0,0.0,0.0,0.0,0.0,0.0,0.0,0.0,0.0,0.0,0.0,0.0,0.0,0.0,0.0,0.0,0.0,0.0,0.0,0.0,0.0,0.0,0.0,0.0,0.0,0.0,0.0,0.0,0.0,0.0,0.0,0.0,0.0,0.0,0.0,0.0,0.0,0.0,0.0,0.0,0.0,0.0,0.0,0.0,0.0,0.0,0.0,0.0,0.0,0.0,0.0,0.0,0.0,0.0,0.0,0.0,0.0,0.0,0.0,0.0,0.0,0.0,0.0,0.0,0.0,0.0,0.0,0.0,0.0,0.0,0.0,0.0,0.0,0.0,0.0,0.0,0.0,0.0,0.0,0.0,0.0,0.0,0.0,0.0,0.0,0.0,0.0,0.0,0.0,0.0,0.0,0.0,0.0,-2.7106,-3.0376,-3.2103,-3.1871,-2.9515,-2.9263,-2.6818,0.0,0.0,0.0,0.0,0.0,0.0,0.0,0.0,0.0,0.0,0.0,0.0,0.0,0.0,0.0,0.0,0.0,0.0,0.0,0.0,0.0,0.0,0.0,0.0,0.0,0.0,0.0,0.0,0.0,0.0,0.0,0.0,0.0,0.0,0.0,0.0,0.0,0.0,0.0,0.0,0.0,0.0,0.0,0.0,0.0,0.0,0.0,0.0,0.0,0.0,0.0,0.0,0.0,0.0,0.0,0.0,0.0,0.0,0.0,0.0,0.0,0.0,0.0,0.0,0.0,0.0,0.0,0.0,0.0,0.0,0.0,0.0,0.0,0.0,0.0,0.0,0.0,0.0,0.0,0.0,0.0,0.0,0.0,0.0,0.0,0.0,0.0,0.0,0.0,0.0,0.0,0.0,0.0,0.0,0.0,0.0,0.0,0.0,0.0,0.0,0.0,0.0,0.0,0.0,0.0,0.0,0.0,0.0,0.0,-2.8916,-3.0621,-3.1997,-3.2785,-2.9497,-2.744,0.0,0.0,0.0,0.0,0.0,0.0,0.0,0.0,0.0,0.0,0.0,0.0,0.0,0.0,0.0,0.0,0.0,0.0,0.0,0.0,0.0,0.0,0.0,0.0,0.0,0.0,0.0,0.0,0.0,0.0,0.0,0.0,0.0,0.0,0.0,0.0,0.0,0.0,0.0,0.0,0.0,0.0,0.0,0.0,0.0,0.0,0.0,0.0,0.0,0.0,0.0,0.0,0.0,0.0,0.0,0.0,0.0,0.0,0.0,0.0,0.0,0.0,0.0,0.0,0.0,0.0,0.0,0.0,0.0,0.0,0.0,0.0,0.0,0.0,0.0,0.0,0.0,0.0,0.0,0.0,0.0,0.0,0.0,0.0,0.0,0.0,0.0,0.0,0.0,0.0,0.0,0.0,0.0,0.0,0.0,0.0,0.0,0.0,0.0,0.0,0.0,0.0,0.0,0.0,0.0,0.0,0.0,0.0,0.0,-3.0494,-3.2213,-3.3278,-3.3576,-3.0136,-2.8001,-2.74,0.0,0.0,0.0,0.0,0.0,0.0,0.0,0.0,0.0,0.0,0.0,0.0,0.0,0.0,0.0,0.0,0.0,0.0,0.0,0.0,0.0,0.0,0.0,0.0,0.0,0.0,0.0,0.0,0.0,0.0,0.0,0.0,0.0,0.0,0.0,0.0,0.0,0.0,0.0,0.0,0.0,0.0,0.0,0.0,0.0,0.0,0.0,0.0,0.0,0.0,0.0,0.0,0.0,0.0,0.0,0.0,0.0,0.0,0.0,0.0,0.0,0.0,0.0,0.0,0.0,0.0,0.0,0.0,0.0,0.0,0.0,0.0,0.0,0.0,0.0,0.0,0.0,0.0,0.0,0.0,0.0,0.0,0.0,0.0,0.0,0.0,0.0,0.0,0.0,0.0,0.0,0.0,0.0,0.0,0.0,0.0,0.0,0.0,0.0,0.0,0.0,0.0,0.0,0.0,0.0,0.0,0.0,0.0,-3.4403,-3.6355,-3.5807,-3.2613,-3.1428,-2.886,0.0,0.0,0.0,0.0,0.0,0.0,0.0,0.0,0.0,0.0,0.0,0.0,0.0,0.0,0.0,0.0,0.0,0.0,0.0,0.0,0.0,0.0,0.0,0.0,0.0,0.0,0.0,0.0,0.0,0.0,0.0,0.0,0.0,0.0,0.0,0.0,0.0,0.0,0.0,0.0,0.0,0.0,0.0,0.0,0.0,0.0,0.0,0.0,0.0,0.0,0.0,0.0,0.0,0.0,0.0,0.0,0.0,0.0,0.0,0.0,0.0,0.0,0.0,0.0,0.0,0.0,0.0,0.0,0.0,0.0,0.0,0.0,0.0,0.0,0.0,0.0,0.0,0.0,0.0,0.0,0.0,0.0,0.0,0.0,0.0,0.0,0.0,0.0,0.0,0.0,0.0,0.0,0.0,0.0,0.0,0.0,0.0,0.0,0.0,0.0,0.0,0.0,0.0,0.0,0.0,0.0,0.0,0.0,0.0,-3.608,-3.9063,-3.9921,-3.838,-3.516,-3.2298,0.0,0.0,0.0,0.0,0.0,0.0,0.0,0.0,0.0,0.0,0.0,0.0,0.0,0.0,0.0,0.0,0.0,0.0,0.0,0.0,0.0,0.0,0.0,0.0,0.0,0.0,0.0,0.0,0.0,0.0,0.0,0.0,0.0,0.0,0.0,0.0,0.0,0.0,0.0,0.0,0.0,0.0,0.0,0.0,0.0,0.0,0.0,0.0,0.0,0.0,0.0,0.0,0.0,0.0,0.0,0.0,0.0,0.0,0.0,0.0,0.0,0.0,0.0,0.0,0.0,0.0,0.0,0.0,0.0,0.0,0.0,0.0,0.0,0.0,0.0,0.0,0.0,0.0,0.0,0.0,0.0,0.0,0.0,0.0,0.0,0.0,0.0,0.0,0.0,0.0,0.0,0.0,0.0,0.0,0.0,0.0,0.0,0.0,0.0,0.0,0.0,0.0,0.0,0.0,0.0,0.0,0.0,0.0,-3.5316,-3.7777,-4.115,-4.2517,-4.1721,-3.7986,-3.4468,0.0,0.0,0.0,0.0,0.0,0.0,0.0,0.0,0.0,0.0,0.0,0.0,0.0,0.0,0.0,0.0,0.0,0.0,0.0,0.0,0.0,0.0,0.0,0.0,0.0,0.0,0.0,0.0,0.0,0.0,0.0,0.0,0.0,0.0,0.0,0.0,0.0,0.0,0.0,0.0,0.0,0.0,0.0,0.0,0.0,0.0,0.0,0.0,0.0,0.0,0.0,0.0,0.0,0.0,0.0,0.0,0.0,0.0,0.0,0.0,0.0,0.0,0.0,0.0,0.0,0.0,0.0,0.0,0.0,0.0,0.0,0.0,0.0,0.0,0.0,0.0,0.0,0.0,0.0,0.0,0.0,0.0,0.0,0.0,0.0,0.0,0.0,0.0,0.0,0.0,0.0,0.0,0.0,0.0,0.0,0.0,0.0,0.0,0.0,0.0,0.0,0.0,0.0,0.0,0.0,0.0,0.0,0.0,-3.6846,-3.9392,-4.2709,-4.3989,-4.3055,-3.9923,-3.5917,0.0,0.0,0.0,0.0,0.0,0.0,0.0,0.0,0.0,0.0,0.0,0.0,0.0,0.0,0.0,0.0,0.0,0.0,0.0,0.0,0.0,0.0,0.0,0.0,0.0,0.0,0.0,0.0,0.0,0.0,0.0,0.0,0.0,0.0,0.0,0.0,0.0,0.0,0.0,0.0,0.0,0.0,0.0,0.0,0.0,0.0,0.0,0.0,0.0,0.0,0.0,0.0,0.0,0.0,0.0,0.0,0.0,0.0,0.0,0.0,0.0,0.0,0.0,0.0,0.0,0.0,0.0,0.0,0.0,0.0,0.0,0.0,0.0,0.0,0.0,0.0,0.0,0.0,0.0,0.0,0.0,0.0,0.0,0.0,0.0,0.0,0.0,0.0,0.0,0.0,0.0,0.0,0.0,0.0,0.0,0.0,0.0,0.0,0.0,0.0,0.0,0.0,0.0,0.0,0.0,0.0,0.0,0.0,-3.768,-4.0227,-4.3574,-4.4613,-4.3143,-4.0454,-3.7273,0.0,0.0,0.0,0.0,0.0,0.0,0.0,0.0,0.0,0.0,0.0,0.0,0.0,0.0,0.0,0.0,0.0,0.0,0.0,0.0,0.0,0.0,0.0,0.0,0.0,0.0,0.0,0.0,0.0,0.0,0.0,0.0,0.0,0.0,0.0,0.0,0.0,0.0,0.0,0.0,0.0,0.0,0.0,0.0,0.0,0.0,0.0,0.0,-1.7023,0.0,0.0,0.0,0.0,0.0,0.0,0.0,0.0,0.0,0.0,0.0,0.0,0.0,0.0,0.0,0.0,0.0,0.0,0.0,0.0,0.0,0.0,0.0,0.0,0.0,0.0,0.0,0.0,0.0,0.0,0.0,0.0,0.0,0.0,0.0,0.0,0.0,0.0,0.0,0.0,0.0,0.0,0.0,0.0,0.0,0.0,0.0,0.0,0.0,0.0,0.0,0.0,0.0,0.0,0.0,0.0,0.0,0.0,0.0,-3.8969,-4.1104,-4.4055,-4.4797,-4.3124,-4.1008,-3.788,0.0,0.0,0.0,0.0,0.0,0.0,0.0,0.0,0.0,0.0,0.0,0.0,0.0,0.0,0.0,0.0,0.0,0.0,0.0,0.0,0.0,0.0,0.0,0.0,0.0,0.0,0.0,0.0,0.0,0.0,0.0,0.0,0.0,0.0,0.0,0.0,0.0,0.0,0.0,0.0,0.0,0.0,0.0,0.0,0.0,0.0,0.0,0.0,0.0,0.0,0.0,0.0,0.0,0.0,0.0,0.0,0.0,0.0,0.0,0.0,0.0,0.0,0.0,0.0,0.0,0.0,0.0,0.0,0.0,0.0,0.0,0.0,0.0,0.0,0.0,0.0,0.0,0.0,0.0,0.0,0.0,0.0,0.0,0.0,0.0,0.0,0.0,0.0,0.0,0.0,0.0,0.0,0.0,0.0,0.0,0.0,0.0,0.0,0.0,0.0,0.0,0.0,0.0,0.0,0.0,0.0,0.0,-3.6276,-3.9912,-4.1989,-4.4335,-4.4797,-4.3143,-4.1401,-3.8123,-3.3096,0.0,0.0,0.0,0.0,0.0,0.0,0.0,0.0,0.0,0.0,0.0,0.0,0.0,0.0,0.0,0.0,0.0,0.0,0.0,0.0,0.0,0.0,0.0,0.0,0.0,0.0,0.0,0.0,0.0,0.0,0.0,0.0,0.0,0.0,0.0,0.0,0.0,0.0,-1.6192,-1.9077,0.0,0.0,0.0,0.0,0.0,0.0,0.0,0.0,-1.8665,0.0,0.0,0.0,0.0,0.0,0.0,0.0,0.0,0.0,0.0,0.0,0.0,0.0,0.0,0.0,0.0,0.0,0.0,0.0,0.0,0.0,0.0,0.0,0.0,0.0,0.0,0.0,0.0,0.0,0.0,0.0,0.0,0.0,0.0,0.0,0.0,0.0,0.0,0.0,0.0,0.0,0.0,0.0,0.0,0.0,0.0,0.0,0.0,0.0,0.0,0.0,0.0,0.0,0.0,0.0,0.0,-3.4558,-3.6308,-3.9008,-4.2797,-4.4662,-4.4797,-4.3124,-4.1401,-3.8096,-3.3154,0.0,0.0,0.0,0.0,0.0,0.0,0.0,0.0,0.0,0.0,0.0,0.0,0.0,0.0,0.0,0.0,0.0,0.0,0.0,0.0,0.0,0.0,0.0,0.0,0.0,0.0,0.0,0.0,0.0,0.0,0.0,0.0,0.0,0.0,0.0,0.0,0.0,0.0,0.0,-2.325,-2.4538,0.0,0.0,0.0,0.0,0.0,0.0,0.0,0.0,-1.8353,0.0,0.0,0.0,0.0,0.0,0.0,0.0,0.0,0.0,0.0,0.0,0.0,0.0,0.0,0.0,0.0,0.0,0.0,0.0,0.0,0.0,0.0,0.0,0.0,0.0,0.0,0.0,0.0,0.0,0.0,0.0,0.0,0.0,0.0,0.0,0.0,0.0,0.0,0.0,0.0,0.0,0.0,0.0,0.0,0.0,0.0,0.0,0.0,0.0,0.0,0.0,0.0,0.0,0.0,0.0,-3.3993,-3.7108,-4.0096,-4.2983,-4.4712,-4.4797,-4.3104,-4.0566,-3.7212,0.0,0.0,0.0,0.0,0.0,0.0,0.0,0.0,0.0,0.0,0.0,0.0,0.0,0.0,0.0,0.0,0.0,0.0,0.0,0.0,0.0,0.0,0.0,0.0,0.0,0.0,0.0,0.0,0.0,0.0,0.0,0.0,0.0,0.0,0.0,0.0,0.0,0.0,0.0,0.0,-2.3485,-2.4481,-2.5788,0.0,0.0,0.0,0.0,0.0,0.0,-2.0681,-1.9331,0.0,0.0,0.0,0.0,0.0,0.0,0.0,0.0,0.0,0.0,0.0,0.0,0.0,0.0,0.0,0.0,0.0,0.0,0.0,0.0,0.0,0.0,0.0,0.0,0.0,0.0,0.0,0.0,0.0,0.0,0.0,0.0,0.0,0.0,0.0,0.0,0.0,0.0,0.0,0.0,0.0,0.0,0.0,0.0,0.0,0.0,0.0,0.0,0.0,0.0,0.0,0.0,0.0,0.0,0.0,-3.2877,-3.7547,-4.0949,-4.2921,-4.4504,-4.4598,-4.306,-3.9927,-3.6536,0.0,0.0,0.0,0.0,0.0,0.0,0.0,0.0,0.0,0.0,0.0,0.0,0.0,0.0,0.0,0.0,0.0,0.0,0.0,0.0,0.0,0.0,0.0,0.0,0.0,0.0,0.0,0.0,0.0,0.0,0.0,0.0,0.0,0.0,0.0,0.0,0.0,0.0,0.0,0.0,0.0,-2.4832,-2.612,-2.4,0.0,0.0,0.0,0.0,-2.3548,-2.2427,0.0,0.0,0.0,0.0,0.0,0.0,0.0,0.0,0.0,0.0,0.0,0.0,0.0,0.0,0.0,0.0,0.0,0.0,0.0,0.0,0.0,0.0,0.0,0.0,0.0,0.0,0.0,0.0,0.0,0.0,0.0,0.0,0.0,0.0,0.0,0.0,0.0,0.0,0.0,0.0,0.0,0.0,0.0,0.0,0.0,0.0,0.0,0.0,0.0,0.0,0.0,0.0,0.0,0.0,0.0,0.0,-3.2727,-3.6358,-3.9742,-4.2753,-4.3866,-4.3904,-4.2935,-4.0356,-3.7022,0.0,0.0,0.0,0.0,0.0,0.0,0.0,0.0,0.0,0.0,0.0,0.0,0.0,0.0,0.0,0.0,0.0,0.0,0.0,0.0,0.0,0.0,0.0,0.0,0.0,0.0,0.0,0.0,0.0,0.0,0.0,0.0,0.0,0.0,0.0,0.0,0.0,0.0,0.0,0.0,0.0,-2.8519,-2.5827,-2.5111,-2.4904,0.0,0.0,-2.4509,-2.6933,-2.587,0.0,0.0,0.0,0.0,0.0,0.0,0.0,0.0,0.0,0.0,0.0,0.0,0.0,0.0,0.0,0.0,0.0,0.0,0.0,0.0,0.0,0.0,0.0,0.0,0.0,0.0,0.0,0.0,0.0,0.0,0.0,0.0,0.0,0.0,0.0,0.0,0.0,0.0,0.0,0.0,0.0,0.0,0.0,0.0,0.0,0.0,0.0,0.0,0.0,0.0,0.0,0.0,0.0,0.0,0.0,-2.8676,-3.273,-3.7083,-4.0245,-4.2114,-4.3493,-4.356,-4.2246,-3.8786,-3.5423,0.0,0.0,0.0,0.0,0.0,0.0,0.0,0.0,0.0,0.0,0.0,0.0,0.0,0.0,0.0,0.0,0.0,0.0,0.0,0.0,0.0,0.0,0.0,0.0,0.0,0.0,0.0,0.0,0.0,0.0,0.0,0.0,0.0,0.0,0.0,0.0,0.0,0.0,0.0,0.0,0.0,0.0,-2.8038,-2.6962,0.0,0.0,0.0,-2.6068,-2.7664,0.0,0.0,0.0,0.0,0.0,0.0,0.0,0.0,0.0,0.0,0.0,0.0,0.0,0.0,0.0,0.0,0.0,0.0,0.0,0.0,0.0,0.0,0.0,0.0,0.0,0.0,0.0,0.0,0.0,0.0,0.0,0.0,0.0,0.0,0.0,0.0,0.0,0.0,0.0,0.0,0.0,0.0,0.0,0.0,0.0,0.0,0.0,0.0,0.0,0.0,0.0,0.0,0.0,0.0,0.0,0.0,0.0,-3.2687,-3.7568,-4.0555,-4.1561,-4.2833,-4.2928,-4.1626,-3.7729,0.0,0.0,0.0,0.0,0.0,0.0,0.0,0.0,0.0,0.0,0.0,0.0,0.0,0.0,0.0,0.0,0.0,0.0,0.0,0.0,0.0,0.0,0.0,0.0,0.0,0.0,0.0,-1.2697,0.0,0.0,0.0,0.0,0.0,0.0,0.0,0.0,0.0,0.0,0.0,0.0,0.0,0.0,-2.615,-2.9088,-2.8227,-2.7721,0.0,0.0,-2.7518,-2.8112,-2.7127,-2.5476,0.0,0.0,0.0,0.0,0.0,0.0,0.0,0.0,0.0,0.0,0.0,0.0,0.0,0.0,0.0,0.0,0.0,0.0,0.0,0.0,0.0,0.0,0.0,0.0,0.0,0.0,0.0,0.0,0.0,0.0,0.0,0.0,0.0,0.0,0.0,0.0,0.0,0.0,0.0,0.0,0.0,0.0,0.0,0.0,0.0,0.0,0.0,0.0,0.0,0.0,0.0,0.0,0.0,0.0,0.0,-3.2688,-3.691,-3.988,-4.1428,-4.1629,-4.1619,-4.1447,-3.8209,-3.5209,0.0,0.0,0.0,0.0,0.0,0.0,0.0,0.0,0.0,0.0,0.0,0.0,0.0,0.0,0.0,0.0,0.0,0.0,0.0,0.0,0.0,0.0,0.0,0.0,0.0,0.0,0.0,0.0,0.0,0.0,0.0,0.0,0.0,0.0,0.0,0.0,0.0,0.0,0.0,0.0,0.0,-2.7531,-2.7008,-2.8237,-2.9202,0.0,-2.9218,-2.9175,-2.9025,-2.896,-2.755,-2.3469,0.0,0.0,0.0,0.0,0.0,0.0,0.0,0.0,0.0,0.0,0.0,0.0,0.0,0.0,0.0,0.0,0.0,0.0,0.0,0.0,0.0,0.0,0.0,0.0,0.0,0.0,0.0,0.0,0.0,0.0,0.0,0.0,0.0,0.0,0.0,0.0,0.0,0.0,0.0,0.0,0.0,0.0,0.0,0.0,0.0,0.0,0.0,0.0,0.0,0.0,0.0,0.0,0.0,-2.902,-3.268,-3.6852,-3.9584,-4.0731,-4.1246,-4.1246,-4.0769,-3.8009,-3.5048,0.0,0.0,0.0,0.0,0.0,0.0,0.0,0.0,0.0,0.0,0.0,0.0,0.0,0.0,0.0,0.0,0.0,0.0,0.0,0.0,0.0,0.0,0.0,0.0,0.0,0.0,0.0,0.0,-1.5182,-1.5237,-1.5047,0.0,0.0,0.0,0.0,0.0,0.0,0.0,0.0,0.0,0.0,-2.7636,-2.8866,-2.9646,0.0,0.0,-2.9969,-2.9993,-2.9921,-2.9063,-2.7658,-2.5476,-2.3567,0.0,0.0,0.0,0.0,0.0,0.0,0.0,0.0,0.0,0.0,0.0,0.0,0.0,0.0,0.0,0.0,0.0,0.0,0.0,0.0,0.0,0.0,0.0,0.0,0.0,0.0,0.0,0.0,0.0,0.0,0.0,0.0,0.0,0.0,0.0,0.0,0.0,0.0,0.0,0.0,0.0,0.0,0.0,0.0,0.0,0.0,0.0,0.0,0.0,0.0,0.0,0.0,-2.9089,-3.268,-3.6604,-3.9164,-4.0282,-4.0845,-4.0883,-4.0263,-3.7837,-3.5144,0.0,0.0,0.0,0.0,0.0,0.0,0.0,0.0,0.0,0.0,0.0,0.0,0.0,0.0,0.0,0.0,0.0,0.0,0.0,0.0,0.0,0.0,0.0,0.0,0.0,0.0,0.0,0.0,-1.7003,-1.7026,-1.6176,0.0,0.0,0.0,0.0,0.0,0.0,0.0,0.0,0.0,0.0,-2.7616,-3.0133,-3.0524,-3.051,-3.0439,-3.0449,-3.0276,-2.9748,-2.886,-2.772,-2.6106,0.0,0.0,0.0,0.0,0.0,0.0,0.0,0.0,0.0,0.0,0.0,0.0,0.0,0.0,0.0,0.0,0.0,0.0,0.0,0.0,0.0,0.0,0.0,0.0,0.0,0.0,0.0,-2.6351,0.0,0.0,-2.5134,0.0,0.0,0.0,0.0,0.0,0.0,0.0,0.0,0.0,0.0,0.0,0.0,0.0,0.0,0.0,0.0,0.0,0.0,0.0,0.0,0.0,0.0,-2.8523,-3.2653,-3.605,-3.8572,-4.0244,-4.032,-4.0339,-4.0263,-3.7837,-3.5687,-3.3861,0.0,0.0,0.0,0.0,0.0,0.0,0.0,0.0,0.0,0.0,0.0,0.0,0.0,0.0,0.0,0.0,0.0,0.0,0.0,0.0,0.0,0.0,0.0,0.0,0.0,0.0,-1.6369,-1.6526,-1.6215,0.0,0.0,0.0,0.0,0.0,0.0,0.0,0.0,0.0,0.0,-2.6103,-2.7651,-3.0133,-3.054,-3.0576,-3.0506,-3.0552,-3.0009,-2.8312,-2.8657,-2.8018,0.0,0.0,0.0,0.0,0.0,0.0,0.0,0.0,0.0,0.0,0.0,0.0,0.0,0.0,0.0,0.0,0.0,0.0,0.0,0.0,0.0,0.0,0.0,0.0,0.0,0.0,0.0,-3.0273,-2.9688,0.0,0.0,0.0,0.0,0.0,0.0,0.0,0.0,0.0,0.0,0.0,-3.4399,-3.4961,0.0,0.0,0.0,0.0,0.0,0.0,0.0,0.0,0.0,0.0,0.0,0.0,-2.9051,-3.2661,-3.5993,-3.8553,-4.0244,-4.032,-4.032,-4.0282,-3.8362,-3.5458,-3.1568,0.0,0.0,0.0,0.0,0.0,0.0,0.0,0.0,0.0,0.0,0.0,0.0,0.0,0.0,0.0,0.0,0.0,0.0,0.0,0.0,0.0,0.0,0.0,0.0,0.0,-1.6029,0.0,0.0,0.0,0.0,0.0,0.0,0.0,0.0,0.0,0.0,0.0,-2.3675,-2.5938,-2.7456,-2.8881,-3.0308,-3.0528,-3.0515,0.0,0.0,0.0,0.0,0.0,0.0,0.0,0.0,0.0,0.0,0.0,0.0,0.0,0.0,-2.3928,-1.9404,-1.7638,-1.6795,-1.6545,0.0,0.0,0.0,0.0,0.0,0.0,0.0,0.0,0.0,0.0,0.0,0.0,0.0,0.0,-3.4113,0.0,-3.242,0.0,0.0,0.0,0.0,0.0,0.0,0.0,0.0,-3.5018,-3.6776,-3.7818,-3.8362,-3.8037,0.0,-3.5278,-3.263,0.0,0.0,0.0,0.0,0.0,0.0,0.0,0.0,-3.0197,-3.352,-3.6585,-3.8858,-4.0225,-4.032,-4.0148,-3.9843,-3.7884,-3.4885,-3.0784,-2.772,-2.5422,0.0,0.0,0.0,0.0,0.0,0.0,0.0,0.0,0.0,0.0,0.0,0.0,0.0,0.0,0.0,0.0,0.0,0.0,0.0,0.0,0.0,0.0,0.0,-1.7432,0.0,0.0,0.0,0.0,0.0,0.0,0.0,0.0,0.0,-2.1566,-2.3312,-2.5384,-2.7686,-2.8657,-2.9579,-3.0751,0.0,0.0,0.0,0.0,0.0,0.0,0.0,-2.9506,-2.9165,-2.7986,-2.6981,-2.6659,-2.7544,-2.7953,-2.6813,0.0,0.0,-2.2404,-2.0462,-1.9411,-1.92,-1.9796,-2.0239,-1.9992,-2.1043,-2.2038,0.0,0.0,0.0,0.0,0.0,0.0,0.0,0.0,-3.8075,-3.798,0.0,-3.6165,0.0,0.0,0.0,0.0,0.0,-3.3643,0.0,0.0,-3.9098,-4.0358,-4.0416,-4.0473,-4.0435,-4.0416,-4.0301,-3.8964,-3.6233,-2.9217,0.0,0.0,0.0,0.0,0.0,0.0,-3.1904,-3.5106,-3.7674,-3.9412,-4.0263,-4.032,-3.9862,-3.8954,-3.6519,-3.4074,-3.1713,-3.0605,-2.8275,-2.432,-2.2415,0.0,0.0,0.0,0.0,0.0,0.0,0.0,0.0,0.0,0.0,0.0,0.0,0.0,0.0,0.0,0.0,0.0,0.0,0.0,0.0,-1.8436,0.0,0.0,0.0,0.0,0.0,0.0,0.0,0.0,0.0,0.0,-2.4336,-2.5043,-2.6673,-2.9923,0.0,0.0,0.0,0.0,-3.0788,-3.1615,-3.1718,-3.1737,-3.1737,-3.2333,-3.1987,-2.9646,0.0,0.0,-2.7217,-2.8102,-2.864,-2.7044,-2.7467,-2.7684,-2.6774,-2.4562,-2.3182,-2.3783,-2.3336,-2.3201,-2.3875,-2.4332,-2.5038,-4.6003,0.0,0.0,0.0,0.0,-4.1495,-4.3061,-4.5747,-4.4494,-4.331,-4.2096,-4.0425,0.0,0.0,0.0,0.0,0.0,0.0,-3.7226,-3.925,-4.0559,-4.18,-4.2956,-4.3577,-4.3539,-4.2937,-4.2354,-4.1094,-3.9117,-3.5783,-3.1446,-2.6339,0.0,0.0,0.0,0.0,-3.3043,-3.5209,-3.7712,-3.9412,-4.0282,-4.032,-3.9575,-3.8094,-3.6222,-3.4598,-3.3307,-3.1293,-2.9657,-2.8389,-2.5065,0.0,0.0,0.0,0.0,0.0,0.0,0.0,0.0,0.0,0.0,0.0,0.0,0.0,0.0,0.0,0.0,0.0,0.0,0.0,-1.752,-1.8512,-1.9217,0.0,0.0,0.0,0.0,0.0,0.0,0.0,0.0,0.0,-2.8269,-2.8788,-2.9283,0.0,0.0,-3.1775,-3.1718,-3.1987,-3.2275,-3.2526,-3.2545,0.0,-3.2564,-3.2256,-3.1987,-3.1814,-3.1545,-3.1058,-3.0371,-3.014,-2.9865,-2.9346,-2.8986,-2.8665,-2.8396,-2.7357,-2.612,-2.5255,-2.5231,-2.5139,-2.4375,-2.4736,-2.5308,-5.1735,-4.757,-4.5048,-4.4781,-4.5946,-4.5488,-4.6759,-4.9052,-4.8315,-4.7264,-4.5965,-4.4953,-4.2832,-3.9871,-3.7865,0.0,0.0,0.0,-4.0645,-4.2765,-4.3252,-4.4017,-4.4991,-4.5526,-4.5335,-4.4513,-4.3673,-4.2765,-4.1753,-4.0024,-3.6661,-3.179,0.0,0.0,-2.9994,-3.2756,-3.5048,-3.67,-3.8553,-3.9766,-4.0282,-3.9613,-3.8763,-3.7712,-3.6088,-3.4666,-3.3528,-3.2019,-3.0713,-2.9688,-2.6632,-2.3976,0.0,0.0,0.0,0.0,0.0,0.0,0.0,0.0,0.0,0.0,0.0,-1.4255,-1.2937,0.0,0.0,0.0,-1.5799,-1.7925,-2.0014,-2.0385,0.0,0.0,0.0,0.0,0.0,0.0,0.0,-2.6063,-2.7231,-2.8731,-3.1077,-3.1692,-3.191,-3.191,-3.2487,-3.2852,-3.2699,0.0,-3.3026,-3.3353,-3.341,-3.3545,-3.3846,-3.3519,-3.3276,-3.3391,-3.2429,-3.1737,-3.1679,-3.0981,-3.0423,-3.0327,-2.9967,-2.9621,-2.9621,-2.9217,-2.8371,-2.6712,-2.6736,-2.6621,-2.5356,-2.5466,-2.5712,-5.6167,-5.5097,-5.0367,-4.8831,-4.9473,-4.95,-4.9492,-4.9549,-5.0225,-4.9996,-4.9205,-4.9129,-4.7734,-4.5258,-4.3033,0.0,-4.3119,-4.3854,-4.4961,-4.65,-4.6519,-4.6519,-4.6519,-4.65,-4.6099,-4.5364,-4.4532,-4.4102,-4.4006,-4.2469,-4.0501,-3.8171,-3.5791,-3.4808,-3.5239,-3.6175,-3.7455,-3.8973,-3.9852,-4.0301,-4.0282,-3.8591,-3.7693,-3.7674,-3.6012,-3.438,-3.289,-3.2661,-3.1496,-2.9121,-2.7415,-2.5371,-2.2931,0.0,0.0,0.0,0.0,0.0,0.0,0.0,0.0,0.0,0.0,0.0,0.0,0.0,0.0,0.0,-1.9338,0.0,-2.3775,-2.328,0.0,0.0,0.0,-2.3274,-2.3374,-2.5486,-2.7236,-2.8082,0.0,0.0,-3.2891,-3.3763,-3.4314,-3.4302,-3.3622,-3.3372,-3.409,-3.3583,-3.3391,-3.4199,-3.4295,-3.4584,-3.5192,-3.5308,-3.5038,-3.4372,-3.2949,-3.2025,-3.1814,-3.1135,-3.0577,-3.0404,-3.0385,-3.0365,-3.0385,-3.0308,-2.9923,-2.8352,-2.803,-2.7736,-2.6851,-2.6582,-2.6313,-5.6473,-5.6148,-5.4352,-5.332,-5.2919,-5.29,-5.29,-5.2862,-5.2403,-5.1372,-4.9977,-4.9366,-4.8009,-4.6233,-4.6271,-4.6061,-4.564,-4.5812,-4.6137,-4.65,-4.6519,-4.6519,-4.6519,-4.6519,-4.6405,-4.6175,-4.5392,-4.4991,-4.4934,-4.3921,-4.309,-4.244,-4.0635,-3.8209,-3.54,-3.7349,-3.861,-3.9011,-3.9843,-4.032,-4.0244,-3.8591,-3.7693,-3.7674,-3.5477,-3.4101,-3.3681,-3.2413,-3.1152,-2.9917,-2.8294,-2.6536,-2.4675,-2.2185,0.0,0.0,0.0,0.0,0.0,0.0,0.0,0.0,0.0,-1.9032,-1.6296,0.0,-2.0007,0.0,-2.1091,-2.2619,-2.3885,-2.3842,0.0,0.0,-2.6678,-2.7198,-2.8448,-2.9135,-2.9833,-3.0698,-3.1872,-3.2949,-3.3776,-3.4641,-3.5199,-3.5173,-3.5,-3.4712,-3.4314,-3.4622,-3.4942,-3.5115,-3.5141,-3.525,-3.5442,-3.55,-3.5442,-3.5212,-3.4276,-3.3397,-3.2718,-3.1929,-3.1198,-3.0558,-3.0404,-3.0404,-3.0404,-3.0404,-3.0288,-2.9846,-2.9275,-2.8569,-2.7761,-2.7082,-2.6538,-5.7179,-5.7065,-5.5899,-5.5135,-5.4658,-5.4256,-5.3874,-5.3473,-5.3015,-5.1868,-5.0302,-5.0245,-4.9251,-4.7761,-4.8544,-4.8227,-4.712,-4.7092,-4.7092,-4.7092,-4.7092,-4.7092,-4.7073,-4.6691,-4.6519,-4.6481,-4.5679,-4.5277,-4.5258,-4.48,-4.4399,-4.3968,-4.2717,-4.0711,-3.8171,-3.9069,-3.9575,-3.9575,-4.0062,-4.032,-4.0244,-3.861,-3.754,-3.7139,-3.5114,-3.3624,-3.286,-3.1916,-3.1045,-3.023,-2.8943,-2.7472,-2.5797,-2.3695,-2.1765,0.0,0.0,0.0,0.0,0.0,0.0,0.0,0.0,0.0,0.0,0.0,-2.1497,-2.1774,-2.3353,-2.5001,-2.6609,-2.6801,-2.7583,-2.9363,-2.9892,-3.0352,-3.0923,-3.1635,-3.2275,-3.2756,-3.3545,-3.4237,-3.4737,-3.5212,-3.55,-3.55,-3.55,-3.5327,-3.4949,-3.5218,-3.55,-3.55,-3.55,-3.55,-3.55,-3.55,-3.55,-3.5423,-3.4776,-3.391,-3.3064,-3.2237,-3.1423,-3.0596,-3.0404,-3.0404,-3.0404,-3.0404,-3.0404,-3.0327,-3.0025,-2.939,-2.8607,-2.8068,-2.7563,-5.7734,-5.7581,-5.6052,-5.539,-5.5345,-5.4581,-5.3702,-5.2785,-5.2785,-5.1868,-5.034,-5.1104,-5.0627,-4.9308,-4.9882,-4.9347,-4.7979,-4.775,-4.7635,-4.7635,-4.7635,-4.7674,-4.775,-4.6901,-4.6577,-4.6634,-4.5736,-4.5277,-4.5277,-4.5277,-4.4914,-4.414,-4.3338,-4.2526,-4.1676,-4.0864,-4.0396,-4.032,-4.032,-4.032,-4.0282,-3.861,-3.7368,-3.6615,-3.4827,-3.3127,-3.1656,-3.1369,-3.0854,-3.007,-2.9318,-2.8134,-2.646,-2.4912,-2.3307,0.0,-2.0843,0.0,0.0,0.0,0.0,0.0,0.0,0.0,0.0,-2.2281,-2.3083,-2.4435,-2.6064,-2.7963,-3.0173,-3.0413,-3.0823,-3.1692,-3.2538,-3.2769,-3.2179,-3.343,-3.4353,-3.4372,-3.5026,-3.5481,-3.5462,-3.55,-3.55,-3.55,-3.55,-3.5462,-3.5481,-3.5481,-3.55,-3.55,-3.55,-3.55,-3.55,-3.55,-3.55,-3.5423,-3.4949,-3.4071,-3.3256,-3.2429,-3.1596,-3.0808,-3.05,-3.0404,-3.0404,-3.0404,-3.0404,-3.0404,-3.0346,-3.0096,-2.9448,-2.9088,-2.8607,-5.6836,-5.6753,-5.5804,-5.539,-5.5384,-5.5231,-5.4276,-5.2785,-5.2785,-5.1849,-5.034,-5.0474,-5.0378,-5.0034,-4.9538,-4.9167,-4.8774,-4.7379,-4.6748,-4.6748,-4.6738,-4.7111,-4.7731,-4.689,-4.6871,-4.7425,-4.6003,-4.5277,-4.5277,-4.5277,-4.5211,-4.5029,-4.4188,-4.3367,-4.2565,0.0,0.0,0.0,-4.032,-4.032,-4.0244,-3.8591,-3.7636,-3.7406,-3.4514,0.0,-3.2424,-3.1133,-3.0032,-2.9204,-2.8987,0.0,0.0,0.0,0.0,0.0,0.0,0.0,0.0,0.0,0.0,0.0,-2.5944,-2.5772,-2.4694,-2.6963,-2.8377,-2.8052,-2.9537,-3.0743,-3.1209,-3.1275,-3.166,-3.2557,-3.3377,-3.382,-3.3776,-3.4641,-3.525,-3.5269,-3.5404,-3.55,-3.55,-3.55,-3.55,-3.5538,-3.55,-3.55,-3.5538,-3.5538,-3.55,-3.55,-3.55,-3.55,-3.55,-3.55,-3.55,-3.5462,-3.5404,-3.4911,-3.4045,-3.3218,-3.2429,-3.1583,-3.0865,-3.0423,-3.0423,-3.0404,-3.0404,-3.0404,-3.0404,-3.0365,-3.0173,-2.9583,-2.8992,-5.6988,0.0,-5.5747,-5.539,0.0,-5.539,-5.4677,-5.3416,-5.2977,-5.1849,-5.034,-5.0741,-5.0474,-4.971,-4.971,-4.9003,-4.7761,-4.6901,-4.629,-4.5927,-4.6328,-4.6967,-4.7769,-4.692,-4.6959,-4.7712,-4.6099,-4.5277,-4.5277,-4.5277,-4.5277,-4.5288,-4.4418,-4.3605,-4.2794,-4.1552,-4.0711,-4.032,-4.032,-4.032,-4.0263,-3.9011,-3.7941,-3.7082,-3.5057,0.0,0.0,0.0,0.0,0.0,0.0,0.0,0.0,0.0,0.0,-2.5785,-2.5709,-2.59,-2.6326,-2.6746,-2.7574,-2.8809,-2.97,-2.9459,-2.7803,-2.9593,-3.0605,-3.0223,-3.1338,-3.227,-3.2706,-3.2728,-3.3082,-3.3985,-3.4448,-3.4726,-3.4876,-3.5575,-3.5921,-3.5608,-3.5846,-3.5962,-3.5538,-3.55,-3.5692,-3.6038,-3.6096,-3.625,-3.6565,-3.6019,-3.55,-3.55,-3.55,-3.55,-3.55,-3.55,-3.55,-3.55,-3.55,-3.5141,-3.4359,-3.384,-3.3256,-3.2449,-3.1596,-3.1038,-3.1,-3.0712,-3.0404,-3.0404,-3.0404,-3.0404,-3.0385,-3.0038,-2.9583,-5.7179,-5.6339,-5.567,-5.539,-5.539,-5.539,-5.483,-5.3798,0.0,0.0,0.0,-5.1066,-5.0608,-4.9366,-4.9862,-4.8869,-4.6768,-4.6577,-4.608,-4.5335,-4.6137,-4.6959,-4.775,-4.692,-4.6959,-4.7693,-4.6099,-4.5277,-4.5277,-4.5277,-4.5277,-4.522,-4.4571,-4.3749,-4.2756,-4.1151,-4.032,-4.032,-4.032,-4.032,-4.0282,-3.9451,-3.8266,-3.6729,-3.5736,-3.4178,-3.2038,-3.179,-3.1389,-3.0682,-3.0643,-3.0242,-2.9407,-2.9357,-2.9273,-2.9147,-2.928,-2.9681,-3.0357,-3.0555,-3.1026,-3.1866,-3.2546,-3.2279,-3.0758,-3.1389,-3.184,-3.1866,-3.2642,-3.3444,-3.414,-3.4381,-3.4711,-3.5446,-3.5649,-3.5802,-3.5878,-3.6457,-3.6683,-3.6147,-3.6538,-3.6712,-3.6115,-3.6038,-3.6173,-3.675,-3.6942,-3.7154,-3.7623,-3.6692,-3.5788,-3.5788,-3.5654,-3.55,-3.55,-3.55,-3.55,-3.55,-3.55,-3.5238,-3.4641,-3.4302,-3.3917,-3.3256,-3.2391,-3.1775,-3.1621,-3.0962,-3.0442,-3.0404,-3.0404,-3.0404,-3.0404,-3.0404,-3.0154,-5.6301,-5.5556,-5.546,-5.539,-5.539,-5.539,-5.4486,-5.2938,-5.2117,-5.1219,-5.0321,-5.0436,-5.0359,-5.0111,-4.9519,-4.8659,-4.7597,-4.6863,-4.608,-4.5335,-4.6118,-4.6959,-4.7731,-4.691,-4.6959,-4.7627,-4.6099,-4.5277,-4.5277,-4.5277,-4.5277,-4.5277,-4.5163,-4.4322,-4.2794,-4.1122,-4.032,-4.032,-4.032,-4.032,-4.0282,-3.9451,-3.8553,-3.754,-3.6031,-3.4732,-3.3708,-3.2909,-3.2489,-3.2355,-3.2336,-3.1954,-3.1114,-3.1037,-3.0758,-3.0128,-3.0713,-3.1159,-3.1248,-3.1916,-3.2718,-3.3547,-3.3757,-3.3394,-3.247,-3.3127,-3.3643,-3.3662,-3.435,-3.4877,-3.5076,-3.5687,-3.6151,-3.6364,-3.7036,-3.7528,-3.7471,-3.7663,-3.7723,-3.7546,-3.7719,-3.7777,-3.7565,-3.7546,-3.7546,-3.7757,-3.7911,-3.793,-3.795,-3.718,-3.6596,-3.6442,-3.5923,-3.5558,-3.55,-3.55,-3.55,-3.55,-3.55,-3.5462,-3.5269,-3.4718,-3.4244,-3.4052,-3.2852,-3.1929,-3.1756,-3.1,-3.0538,-3.0442,-3.0404,-3.0404,-3.0404,-3.0404,-3.0327,-5.6129,-5.5422,-5.539,-5.539,-5.539,-5.539,-5.4409,-5.2805,-5.2403,-5.1505,-5.034,-5.0302,-5.0302,-5.0264,-4.992,-4.9308,-4.8468,-4.7608,-4.6997,-4.671,-4.7035,-4.7665,-4.8411,-4.8086,-4.7876,-4.7731,-4.6557,-4.5717,-4.5335,-4.5277,-4.5277,-4.5269,-4.4838,-4.3997,-4.2794,-4.1571,-4.0731,-4.032,-4.032,-4.032,-4.0282,-3.99,-3.9069,-3.7731,-3.6929,-3.5725,-3.4071,-3.3624,-3.3184,-3.2718,-3.268,-3.2527,-3.2126,-3.2107,-3.2145,-3.2267,-3.263,-3.3032,-3.3433,-3.3826,-3.4227,-3.4617,-3.4636,-3.4694,-3.4781,-3.4694,-3.4846,-3.5305,-3.5706,-3.608,-3.6509,-3.6929,-3.7167,-3.7154,-3.7553,-3.7816,-3.7931,-3.8346,-3.8443,-3.8135,-3.843,-3.8527,-3.8065,-3.8007,-3.8219,-3.8604,-3.9034,-3.9323,-3.9315,-3.8623,-3.7738,-3.6892,-3.6392,-3.5981,-3.5615,-3.55,-3.55,-3.55,-3.55,-3.55,-3.5481,-3.5103,-3.4949,-3.4853,-3.3853,-3.2968,-3.2506,-3.1679,-3.1038,-3.0462,-3.0404,-3.0404,-3.0404,-3.0404,-3.0231,-5.5944,-5.539,-5.5358,-5.5358,-5.5358,-5.5358,-5.4378,-5.2843,-5.2785,-5.1868,-5.0417,-5.0302,-5.0302,-5.0302,-5.0302,-4.9862,-4.906,-4.82,-4.7788,-4.7788,-4.7788,-4.8277,-4.9033,-4.911,-4.8659,-4.7769,-4.691,-4.6099,-4.5373,-4.5277,-4.5277,-4.5201,-4.4437,-4.3586,-4.2794,-4.1934,-4.1113,-4.0358,-4.032,-4.032,-4.032,-4.032,-3.9537,-3.8132,-3.7789,-3.67,-3.4713,-3.4369,-3.3968,-3.3329,-3.3272,-3.3272,-3.3253,-3.3253,-3.3586,-3.4178,-3.4254,-3.4541,-3.5125,-3.5381,-3.5507,-3.5507,-3.5668,-3.605,-3.6623,-3.6165,-3.6031,-3.6634,-3.6748,-3.7024,-3.7521,-3.7884,-3.7999,-3.7999,-3.8188,-3.8414,-3.8503,-3.9035,-3.9221,-3.8754,-3.9161,-3.9304,-3.8757,-3.8565,-3.8854,-3.9515,-4.0131,-4.0477,-4.0419,-3.9919,-3.8938,-3.7796,-3.7142,-3.668,-3.5962,-3.5808,-3.5712,-3.5577,-3.55,-3.55,-3.5481,-3.5481,-3.5481,-3.5346,-3.4757,-3.3949,-3.3256,-3.2314,-3.1519,-3.0885,-3.0615,-3.0404,-3.0404,-3.0404,-3.0231,-5.537,-5.539,-5.5261,-5.5216,-5.5235,-5.5235,-5.4301,-5.2938,-5.2785,-5.1868,-5.0417,-5.0302,-5.0302,-5.0302,-5.0302,-4.9882,-4.9098,-4.82,-4.7807,-4.7807,-4.7788,-4.8258,-4.8984,-4.9079,-4.864,-4.775,-4.689,-4.608,-4.5335,-4.5277,-4.5277,-4.5182,-4.4407,-4.3615,-4.2794,-4.1934,-4.1113,-4.0339,-4.032,-4.032,-4.032,-4.032,-3.9843,-3.8916,-3.8113,-3.7273,-3.6194,-3.5515,-3.5057,-3.498,-3.4915,-3.4934,-3.4923,-3.4953,-3.4991,-3.5076,-3.5114,-3.5144,-3.5259,-3.5935,-3.6385,-3.6443,-3.7024,-3.7426,-3.7578,-3.7521,-3.7483,-3.7617,-3.7597,-3.7655,-3.775,-3.8438,-3.8858,-3.8916,-3.9487,-4.0077,-3.998,-4.0251,-4.0329,-4.0298,-4.0215,-4.0323,-4.0104,-4.0046,-4.0169,-4.0227,-4.0362,-4.0496,-4.0496,-4.0381,-4.0015,-3.9123,-3.843,-3.7584,-3.6834,-3.6577,-3.625,-3.5692,-3.55,-3.55,-3.55,-3.55,-3.55,-3.5404,-3.4891,-3.4276,-3.3757,-3.2891,-3.1814,-3.1564,-3.1058,-3.0442,-3.0404,-3.0404,-3.0288,-5.5248,-5.5294,-5.5313,-5.5261,-5.5216,-5.5216,-5.4548,-5.3506,-5.3002,-5.2155,-5.1085,-5.0531,-5.0302,-5.0302,-5.0302,-5.0111,-4.971,-4.8418,-4.8086,-4.843,-4.7532,-4.7474,-4.8277,-4.8334,-4.7876,-4.7081,-4.6672,-4.608,-4.5411,-4.5277,-4.5277,-4.5269,-4.4914,-4.4131,-4.2889,-4.245,-4.1628,-4.0358,-4.032,-4.032,-4.032,-4.032,-3.9881,-3.9088,-3.8648,-3.7827,-3.6634,-3.6137,-3.5736,-3.5259,-3.5182,-3.5182,-3.5182,-3.5182,-3.5439,-3.5927,-3.6432,-3.668,-3.668,-3.7024,-3.7215,-3.7215,-3.7521,-3.7903,-3.8419,-3.8476,-3.8648,-3.9107,-3.8782,-3.8648,-3.9145,-3.9565,-3.9775,-3.9814,-4.0119,-4.0309,-4.0326,-4.0342,-4.0388,-4.0441,-4.0482,-4.0495,-4.0495,-4.05,-4.0489,-4.0496,-4.0496,-4.0496,-4.0496,-4.0496,-4.0381,-4.0073,-3.9688,-3.8919,-3.7777,-3.6988,-3.6596,-3.6231,-3.5788,-3.5519,-3.55,-3.55,-3.55,-3.55,-3.5141,-3.468,-3.4225,-3.3801,-3.307,-3.2545,-3.1756,-3.1038,-3.0519,-3.0404,-3.0404,-5.5143,-5.5189,-5.526,-5.526,-5.5157,-5.5162,-5.4705,-5.3944,-5.3137,-5.2341,-5.1551,-5.0684,-5.0302,-5.0302,-5.0302,-5.0302,-5.0111,-4.8812,-4.8487,-4.8899,-4.7532,-4.7196,-4.775,-4.7788,-4.733,-4.6634,-4.6519,-4.608,-4.5373,-4.5277,-4.5277,-4.5277,-4.5277,-4.4456,-4.2966,-4.2794,-4.1972,-4.0473,-4.032,-4.032,-4.032,-4.032,-3.9995,-3.9412,-3.9107,-3.841,-3.7245,-3.6939,-3.6538,-3.5935,-3.5897,-3.5897,-3.5878,-3.5878,-3.6184,-3.6767,-3.7349,-3.7693,-3.7693,-3.7922,-3.8056,-3.8075,-3.8247,-3.8667,-3.9202,-3.9346,-3.9632,-4.0072,-3.9709,-3.9642,-4.0148,-4.032,-4.032,-4.032,-4.032,-4.032,-4.0318,-4.0317,-4.0316,-4.037,-4.0432,-4.0485,-4.0502,-4.0503,-4.0496,-4.0496,-4.0496,-4.0496,-4.0496,-4.0496,-4.0496,-4.0496,-4.0477,-3.99,-3.8604,-3.768,-3.7123,-3.6558,-3.6038,-3.55,-3.55,-3.55,-3.55,-3.55,-3.55,-3.5346,-3.4814,-3.4468,-3.3898,-3.3083,-3.2295,-3.1596,-3.1,-3.0673,-3.0423,-5.5038,-5.5094,-5.5042,-5.5052,-5.5113,-5.5057,-5.4642,-5.3994,-5.3086,-5.2304,-5.1589,-5.0672,-5.0302,-5.0302,-5.0302,-5.0302,-5.0187,-4.9385,-4.8976,-4.8938,-4.8067,-4.7712,-4.7788,-4.7788,-4.7311,-4.6443,-4.6385,-4.6023,-4.5316,-4.5277,-4.5277,-4.5277,-4.5277,-4.4456,-4.308,-4.2813,-4.1972,-4.0568,-4.0339,-4.032,-4.032,-4.032,-4.0282,-4.011,-3.9451,-3.8992,-3.8744,-3.8075,-3.7597,-3.754,-3.7483,-3.7502,-3.754,-3.7521,-3.7559,-3.7655,-3.7712,-3.7769,-3.7903,-3.8534,-3.8954,-3.903,-3.9575,-4.0148,-4.0091,-4.011,-4.0186,-4.0301,-4.0205,-4.0205,-4.0282,-4.032,-4.032,-4.032,-4.032,-4.031,-4.031,-4.0309,-4.0317,-4.0316,-4.0362,-4.0405,-4.0474,-4.0503,-4.0508,-4.0489,-4.0496,-4.0496,-4.0496,-4.0496,-4.0496,-4.0496,-4.0458,-4.0208,-3.9361,-3.8507,-3.768,-3.7,-3.6385,-3.5538,-3.55,-3.55,-3.55,-3.55,-3.55,-3.5423,-3.5276,-3.4795,-3.4045,-3.3276,-3.2602,-3.1948,-3.1692,-3.0923,-3.0654,-5.5023,-5.5075,-5.5085,-5.5052,-5.5023,-5.5052,-5.4914,-5.4533,-5.3217,-5.2527,-5.2081,-5.0853,-5.0267,-5.0302,-5.0302,-5.0302,-5.0206,-4.9473,-4.8793,-4.822,-4.7379,-4.6691,-4.6233,-4.6194,-4.6061,-4.5793,-4.5717,-4.5583,-4.5335,-4.5277,-4.5277,-4.5277,-4.5277,-4.4704,-4.3673,-4.3042,-4.2202,-4.1132,-4.0568,-4.032,-4.032,-4.032,-4.032,-4.0301,-4.0014,-3.9565,-3.9011,-3.8686,-3.8285,-3.7712,-3.7693,-3.7693,-3.775,-3.8228,-3.8534,-3.8591,-3.9049,-3.9355,-3.9412,-3.9652,-3.9843,-3.9843,-4.0091,-4.032,-4.032,-4.032,-4.032,-4.032,-4.032,-4.032,-4.032,-4.032,-4.032,-4.032,-4.032,-4.032,-4.0301,-4.032,-4.031,-4.0319,-4.0336,-4.0362,-4.0432,-4.0482,-4.0487,-4.0487,-4.0492,-4.0489,-4.0496,-4.0496,-4.0496,-4.0496,-4.0496,-4.04,-4.0189,-3.9373,-3.8546,-3.768,-3.6911,-3.6096,-3.575,-3.5538,-3.55,-3.55,-3.55,-3.5481,-3.5346,-3.5269,-3.4468,-3.3949,-3.3256,-3.2776,-3.2583,-3.1795,-3.1371,-5.5014,-5.5052,-5.5038,-5.5028,-5.5,-5.5028,-5.5028,-5.4791,-5.327,-5.2614,-5.2342,-5.0894,-5.0207,-5.0267,-5.0267,-5.0278,-5.0245,-4.9729,-4.9041,-4.8181,-4.7341,-4.6481,-4.5755,-4.5422,-4.5277,-4.5297,-4.5277,-4.5182,-4.4953,-4.5163,-4.5144,-4.4895,-4.5125,-4.4857,-4.4045,-4.3452,-4.266,-4.1628,-4.096,-4.0587,-4.0358,-4.032,-4.032,-4.032,-4.032,-4.0034,-3.9431,-3.9431,-3.9183,-3.8629,-3.8534,-3.8534,-3.861,-3.9088,-3.9412,-3.948,-3.9957,-4.032,-4.032,-4.032,-4.0301,-4.0301,-4.032,-4.032,-4.032,-4.032,-4.032,-4.032,-4.032,-4.032,-4.032,-4.032,-4.032,-4.032,-4.032,-4.032,-4.032,-4.032,-4.032,-4.031,-4.0318,-4.0335,-4.0351,-4.0432,-4.0466,-4.0502,-4.0495,-4.0492,-4.0489,-4.0496,-4.0496,-4.0496,-4.0496,-4.0496,-4.0381,-3.9919,-3.8988,-3.8123,-3.7334,-3.6558,-3.5904,-3.5673,-3.5519,-3.55,-3.55,-3.55,-3.55,-3.55,-3.518,-3.468,-3.4122,-3.3571,-3.316,-3.2641,-3.2295,-5.4946,-5.4985,-5.4931,-5.4941,-5.4985,-5.4941,-5.496,-5.47,-5.3233,-5.2553,-5.2372,-5.0831,-5.0158,-5.0188,-5.0212,-5.0255,-5.0271,-5.0206,-4.9729,-4.8926,-4.8094,-4.7234,-4.6375,-4.5621,-4.5277,-4.5277,-4.5277,-4.4895,-4.4293,-4.4914,-4.4934,-4.4399,-4.4953,-4.4914,-4.4064,-4.393,-4.3128,-4.1915,-4.1457,-4.1055,-4.0416,-4.032,-4.032,-4.032,-4.032,-4.0282,-4.0244,-4.0225,-4.0148,-4.0167,-4.0129,-4.0263,-4.0091,-4.0167,-4.0263,-4.0205,-4.0301,-4.0301,-4.032,-4.032,-4.032,-4.032,-4.032,-4.032,-4.032,-4.032,-4.0339,-4.0454,-4.0435,-4.0406,-4.0492,-4.0568,-4.0473,-4.032,-4.032,-4.032,-4.032,-4.032,-4.032,-4.031,-4.0309,-4.0326,-4.0316,-4.0362,-4.0424,-4.0458,-4.0474,-4.0479,-4.0492,-4.05,-4.0489,-4.0496,-4.0496,-4.0496,-4.0496,-4.0381,-3.9392,-3.8469,-3.77,-3.6923,-3.6212,-3.5827,-3.5673,-3.5635,-3.55,-3.55,-3.55,-3.55,-3.55,-3.5084,-3.4661,-3.4359,-3.4026,-3.3622,-3.316,-5.4916,-5.4946,-5.4956,-5.496,-5.4927,-5.4975,-5.4975,-5.4756,-5.3149,-5.247,-5.223,-5.0805,-5.0145,-5.0188,-5.0236,-5.0278,-5.0302,-5.0283,-4.9839,-4.9022,-4.8186,-4.7346,-4.6476,-4.5668,-4.5277,-4.5277,-4.5277,-4.5163,-4.4972,-4.5163,-4.5105,-4.501,-4.5154,-4.5163,-4.4838,-4.4303,-4.3424,-4.2469,-4.18,-4.1113,-4.0396,-4.032,-4.032,-4.032,-4.032,-4.032,-4.032,-4.032,-4.032,-4.032,-4.032,-4.032,-4.032,-4.032,-4.032,-4.032,-4.032,-4.032,-4.032,-4.032,-4.032,-4.032,-4.032,-4.032,-4.032,-4.0358,-4.0607,-4.1017,-4.1132,-4.1304,-4.1877,-4.203,-4.1533,-4.0435,-4.032,-4.0396,-4.0454,-4.0396,-4.032,-4.032,-4.032,-4.031,-4.0319,-4.0355,-4.0353,-4.0379,-4.0396,-4.043,-4.0471,-4.0487,-4.0503,-4.0508,-4.0489,-4.0489,-4.0496,-4.0439,-3.9881,-3.9161,-3.8469,-3.7546,-3.6776,-3.6308,-3.6096,-3.575,-3.5615,-3.55,-3.55,-3.55,-3.55,-3.55,-3.5161,-3.5007,-3.4981,-3.4603,-3.4026,-5.4901,-5.4901,-5.4946,-5.4946,-5.4901,-5.4941,-5.4927,-5.4712,-5.348,-5.2731,-5.2223,-5.1087,-5.0355,-5.0183,-5.0207,-5.0243,-5.0267,-5.029,-4.9988,-4.9344,-4.8609,-4.7751,-4.6805,-4.5772,-4.5277,-4.5277,-4.5277,-4.5125,-4.4838,-4.5125,-4.5144,-4.4876,-4.5125,-4.5277,-4.5288,-4.4762,-4.4074,-4.3252,-4.2431,-4.159,-4.0864,-4.0454,-4.032,-4.032,-4.032,-4.032,-4.032,-4.032,-4.032,-4.032,-4.032,-4.032,-4.032,-4.032,-4.032,-4.032,-4.032,-4.032,-4.032,-4.032,-4.032,-4.0339,-4.0568,-4.075,-4.0826,-4.095,-4.1514,-4.1877,-4.1991,-4.2202,-4.2641,-4.2775,-4.2278,-4.139,-4.1294,-4.1218,-4.1246,-4.1227,-4.1246,-4.1266,-4.1017,-4.0788,-4.074,-4.0424,-4.0346,-4.0307,-4.0334,-4.0379,-4.0441,-4.0477,-4.0482,-4.0495,-4.0503,-4.0492,-4.0489,-4.04,-4.0285,-3.9842,-3.9354,-3.8392,-3.7488,-3.7257,-3.7038,-3.625,-3.5904,-3.5538,-3.55,-3.55,-3.55,-3.55,-3.55,-3.5385,-3.5231,-3.5096,-3.4692,-5.4901,-5.4901,-5.4901,-5.4901,-5.4901,-5.4901,-5.4901,-5.4769,-5.401,-5.3215,-5.2475,-5.1537,-5.0768,-5.0227,-5.0171,-5.0139,-5.0188,-5.0255,-5.0188,-4.9866,-4.9288,-4.8486,-4.7278,-4.6037,-4.5458,-4.5286,-4.5297,-4.4914,-4.4437,-4.4972,-4.4895,-4.4427,-4.4991,-4.5277,-4.5277,-4.5269,-4.4762,-4.3892,-4.3214,-4.245,-4.159,-4.0807,-4.0435,-4.0435,-4.0358,-4.032,-4.032,-4.032,-4.032,-4.032,-4.032,-4.032,-4.032,-4.032,-4.032,-4.032,-4.032,-4.032,-4.032,-4.0482,-4.0492,-4.054,-4.117,-4.1562,-4.1667,-4.2125,-4.2565,-4.2832,-4.287,-4.2928,-4.3042,-4.3138,-4.3042,-4.2947,-4.266,-4.2565,-4.2717,-4.266,-4.2488,-4.245,-4.2068,-4.1581,-4.1581,-4.0998,-4.0749,-4.0672,-4.07,-4.0784,-4.0628,-4.0712,-4.0528,-4.0496,-4.0491,-4.0479,-4.0476,-4.0473,-4.0358,-4.0227,-3.9861,-3.9188,-3.8257,-3.7969,-3.7719,-3.6923,-3.6231,-3.5827,-3.5577,-3.5654,-3.5577,-3.55,-3.55,-3.55,-3.5423,-3.5288,-3.525,-5.4901,-5.4901,-5.4901,-5.4901,-5.4901,-5.4901,-5.4901,-5.4806,-5.4067,-5.3594,-5.3063,-5.1868,-5.1155,-5.0897,-5.0336,-5.012,-5.0133,-5.0177,-5.012,-5.0006,-4.9854,-4.8523,-4.7067,-4.6344,-4.5767,-4.532,-4.5256,-4.5182,-4.4972,-4.5163,-4.5163,-4.4972,-4.5125,-4.5277,-4.5277,-4.5277,-4.4838,-4.4121,-4.3834,-4.3261,-4.2469,-4.1628,-4.1208,-4.1151,-4.0673,-4.0396,-4.032,-4.032,-4.032,-4.032,-4.032,-4.032,-4.0358,-4.0358,-4.0416,-4.0454,-4.0396,-4.0358,-4.0473,-4.0883,-4.117,-4.1246,-4.1972,-4.2431,-4.245,-4.266,-4.31,-4.3491,-4.3682,-4.394,-4.4437,-4.4551,-4.4571,-4.4475,-4.3634,-4.2947,-4.2908,-4.2794,-4.2794,-4.2756,-4.2622,-4.2488,-4.2393,-4.2202,-4.2011,-4.1992,-4.1925,-4.1829,-4.1454,-4.1138,-4.1032,-4.0586,-4.0466,-4.0466,-4.0482,-4.0491,-4.0476,-4.0469,-4.0227,-3.9938,-3.9073,-3.845,-3.8123,-3.7623,-3.6942,-3.6462,-3.6173,-3.6038,-3.5827,-3.5865,-3.5788,-3.5904,-3.5654,-3.5481,-3.5519,-5.4901,-5.4901,-5.4901,-5.4901,-5.4901,-5.4901,-5.4901,-5.4825,-5.4446,-5.3973,-5.3461,-5.2366,-5.1578,-5.118,-5.043,-5.0057,-5.007,-5.0095,-5.005,-4.9986,-4.9959,-4.8789,-4.7236,-4.6591,-4.5959,-4.5246,-4.5224,-4.5265,-4.5256,-4.5286,-4.5277,-4.5258,-4.5277,-4.5277,-4.5277,-4.5277,-4.5067,-4.4571,-4.4216,-4.372,-4.3291,-4.2488,-4.2106,-4.1972,-4.1552,-4.1351,-4.1351,-4.138,-4.1094,-4.0511,-4.032,-4.0444,-4.0769,-4.0807,-4.0979,-4.1275,-4.1361,-4.1351,-4.1418,-4.18,-4.2011,-4.2183,-4.2832,-4.3204,-4.3405,-4.3596,-4.4131,-4.4456,-4.4551,-4.48,-4.5125,-4.5277,-4.5277,-4.5105,-4.4418,-4.3845,-4.3845,-4.3921,-4.3864,-4.3768,-4.3539,-4.331,-4.3291,-4.3061,-4.2851,-4.2737,-4.2632,-4.246,-4.2211,-4.1877,-4.1523,-4.1137,-4.0643,-4.0547,-4.0515,-4.0521,-4.0491,-4.0503,-4.0442,-4.0219,-3.9785,-3.9046,-3.8784,-3.8373,-3.77,-3.7192,-3.6988,-3.6873,-3.693,-3.6873,-3.6584,-3.6488,-3.6423,-3.6058,-3.6038,-5.4901,-5.4901,-5.4901,-5.4901,-5.4901,-5.4901,-5.4901,-5.4901,-5.4844,-5.4465,-5.3764,-5.2836,-5.2002,-5.1282,-5.044,-4.9992,-5.0005,-5.0044,-5.0031,-4.9992,-4.9838,-4.9028,-4.7745,-4.6932,-4.6195,-4.5445,-4.5254,-4.5181,-4.5192,-4.5235,-4.5286,-4.5286,-4.5286,-4.5297,-4.5297,-4.5277,-4.5277,-4.5105,-4.459,-4.4274,-4.4017,-4.3367,-4.2947,-4.287,-4.2622,-4.2526,-4.2565,-4.2565,-4.2087,-4.0645,-4.0549,-4.1017,-4.1571,-4.1628,-4.1934,-4.245,-4.2526,-4.2565,-4.2737,-4.2737,-4.2928,-4.3042,-4.3673,-4.4121,-4.4265,-4.4666,-4.5048,-4.5105,-4.5277,-4.522,-4.5258,-4.5277,-4.5277,-4.5258,-4.5182,-4.5239,-4.5277,-4.5277,-4.5277,-4.5258,-4.4551,-4.4216,-4.3949,-4.3577,-4.3119,-4.373,-4.3577,-4.3406,-4.3101,-4.2699,-4.2288,-4.1847,-4.1262,-4.0628,-4.0605,-4.0543,-4.0521,-4.0499,-4.0503,-4.0377,-4.0296,-3.9804,-3.9554,-3.915,-3.8584,-3.8238,-3.8065,-3.8027,-3.7911,-3.7719,-3.7334,-3.7584,-3.7796,-3.7135,-3.6873,-5.4901,-5.4901,-5.4901,-5.4901,-5.4901,-5.4901,-5.4901,-5.4901,-5.4901,-5.4787,-5.4314,-5.3063,-5.2329,-5.2025,-5.0627,-4.9925,-4.992,-4.9933,-4.9939,-4.9925,-4.9925,-4.9381,-4.8421,-4.765,-4.682,-4.6052,-4.5388,-4.5144,-4.5136,-4.5148,-4.517,-4.5233,-4.5243,-4.5235,-4.5286,-4.5297,-4.5277,-4.5258,-4.5067,-4.4953,-4.48,-4.4188,-4.3739,-4.3682,-4.3214,-4.2889,-4.2794,-4.2794,-4.2603,-4.2354,-4.2278,-4.2374,-4.2469,-4.2507,-4.2698,-4.2889,-4.2908,-4.287,-4.2928,-4.3424,-4.3749,-4.3834,-4.4418,-4.501,-4.501,-4.5125,-4.5277,-4.5277,-4.5277,-4.5277,-4.5277,-4.5277,-4.5277,-4.5277,-4.5239,-4.522,-4.5277,-4.5277,-4.5277,-4.5239,-4.5125,-4.501,-4.4972,-4.48,-4.4609,-4.4734,-4.4562,-4.4419,-4.3999,-4.3521,-4.3053,-4.2585,-4.1943,-4.1349,-4.1232,-4.1085,-4.0822,-4.0677,-4.0578,-4.0495,-4.0415,-4.0373,-4.0038,-3.9796,-3.9534,-3.9265,-3.9008,-3.8546,-3.8315,-3.818,-3.8161,-3.8354,-3.8392,-3.795,-3.7719,-5.4901,-5.4901,-5.4901,-5.4901,-5.4901,-5.4901,-5.4901,-5.4901,-5.4901,-5.4901,-5.4541,-5.3124,-5.2419,-5.2248,-5.0713,-4.9893,-4.9893,-4.9893,-4.9893,-4.9893,-4.9893,-4.9684,-4.9229,-4.8383,-4.7498,-4.641,-4.5908,-4.5513,-4.5182,-4.5091,-4.5125,-4.5159,-4.5181,-4.5233,-4.5265,-4.5286,-4.5277,-4.5277,-4.5277,-4.5277,-4.5182,-4.4876,-4.4609,-4.4571,-4.4188,-4.3978,-4.3997,-4.3997,-4.3997,-4.3978,-4.394,-4.3749,-4.3424,-4.3376,-4.3558,-4.3902,-4.3959,-4.3959,-4.4131,-4.4341,-4.4609,-4.459,-4.5067,-4.5201,-4.5277,-4.5277,-4.5277,-4.5277,-4.5277,-4.5277,-4.5277,-4.5277,-4.5277,-4.5201,-4.4934,-4.4723,-4.4743,-4.501,-4.5277,-4.5277,-4.5258,-4.5239,-4.5277,-4.5277,-4.5258,-4.4991,-4.4991,-4.4848,-4.4676,-4.4199,-4.3778,-4.3263,-4.2623,-4.2144,-4.201,-4.1731,-4.1268,-4.1008,-4.0748,-4.0609,-4.046,-4.0476,-4.0454,-4.0212,-3.9958,-4.0035,-3.9765,-3.9258,-3.9027,-3.9296,-3.9373,-3.9219,-3.9046,-3.8873,-3.8719,-5.4901,-5.4901,-5.4901,-5.4901,-5.4901,-5.4901,-5.4901,-5.4901,-5.4901,-5.4901,-5.4579,-5.3143,-5.24,-5.204,-5.0637,-4.995,-4.9893,-4.9893,-4.9893,-4.9893,-4.9893,-4.9855,-4.9608,-4.9059,-4.82,-4.6689,-4.6265,-4.5834,-4.539,-4.5083,-4.5049,-4.5072,-4.5117,-4.5159,-4.5192,-4.5254,-4.5286,-4.5275,-4.5297,-4.5277,-4.5277,-4.522,-4.5182,-4.5144,-4.5105,-4.5048,-4.501,-4.5067,-4.5182,-4.5277,-4.5277,-4.4895,-4.4437,-4.4236,-4.4475,-4.5201,-4.5086,-4.501,-4.4972,-4.5144,-4.5201,-4.5277,-4.5277,-4.5277,-4.5277,-4.5277,-4.5277,-4.5277,-4.5277,-4.5277,-4.5277,-4.5277,-4.522,-4.4991,-4.4388,-4.4025,-4.3968,-4.4494,-4.4704,-4.501,-4.4914,-4.4895,-4.5144,-4.5277,-4.5277,-4.5277,-4.5277,-4.5239,-4.5048,-4.4857,-4.4437,-4.4065,-4.3474,-4.2718,-4.2479,-4.2384,-4.1904,-4.1701,-4.1299,-4.1046,-4.0861,-4.0877,-4.0913,-4.0558,-4.0381,-4.0392,-4.0373,-4.0054,-4.0054,-4.0477,-4.0362,-3.9958,-3.9842,-3.9842,-3.965,-5.4901,-5.4901,-5.4901,-5.4901,-5.4901,-5.4901,-5.4901,-5.4901,-5.4901,-5.4901,-5.4674,-5.3177,-5.24,-5.1964,-5.0637,-4.995,-4.9893,-4.9893,-4.9893,-4.9893,-4.9893,-4.9893,-4.9836,-4.9665,-4.9059,-4.813,-4.7138,-4.6285,-4.5811,-4.5336,-4.51,-4.5041,-4.5045,-4.5068,-4.5125,-4.5181,-4.5233,-4.5243,-4.5265,-4.5267,-4.5267,-4.5297,-4.5277,-4.5277,-4.5277,-4.5277,-4.5277,-4.5277,-4.5277,-4.5277,-4.5277,-4.5201,-4.5029,-4.4991,-4.5105,-4.5239,-4.5277,-4.5277,-4.5277,-4.5277,-4.5277,-4.5277,-4.5277,-4.5277,-4.5277,-4.5277,-4.5277,-4.5277,-4.5277,-4.5277,-4.5277,-4.5277,-4.4895,-4.4456,-4.4055,-4.3663,-4.3214,-4.3138,-4.352,-4.394,-4.4131,-4.4475,-4.48,-4.5144,-4.5277,-4.5277,-4.5277,-4.5277,-4.5201,-4.5144,-4.5048,-4.4706,-4.4373,-4.357,-4.2872,-4.2824,-4.2632,-4.2585,-4.2278,-4.1913,-4.1729,-4.1574,-4.1389,-4.0979,-4.0627,-4.0454,-4.0481,-4.0508,-4.0489,-4.0489,-4.0489,-4.0496,-4.0323,-4.015,-4.0227,-5.4901,-5.4901,-5.4901,-5.4901,-5.4901,-5.4901,-5.4901,-5.4901,-5.4901,-5.4901,-5.4408,-5.3215,-5.24,-5.1964,-5.0637,-4.9912,-4.9893,-4.9893,-4.9893,-4.9893,-4.9893,-4.9893,-4.9893,-4.9893,-4.9703,-4.9078,-4.8079,-4.6961,-4.6253,-4.5824,-4.5355,-4.5,-4.4986,-4.5033,-4.5049,-4.5095,-4.5148,-4.5178,-4.5203,-4.5235,-4.5246,-4.5286,-4.5297,-4.5277,-4.5277,-4.5277,-4.5277,-4.5277,-4.5277,-4.5277,-4.5277,-4.5277,-4.5277,-4.5277,-4.5277,-4.5277,-4.5277,-4.5277,-4.5277,-4.5277,-4.5277,-4.5277,-4.5277,-4.5277,-4.5277,-4.5277,-4.5277,-4.5277,-4.5277,-4.5277,-4.5277,-4.5277,-4.4857,-4.4159,-4.3682,-4.308,-4.2335,-4.1858,-4.2202,-4.2889,-4.351,-4.4017,-4.4475,-4.4819,-4.5182,-4.5277,-4.5277,-4.5277,-4.5277,-4.5277,-4.5297,-4.5145,-4.4841,-4.4507,-4.3771,-4.356,-4.3453,-4.3397,-4.3206,-4.2852,-4.2364,-4.2096,-4.1749,-4.1351,-4.1039,-4.0502,-4.0487,-4.0487,-4.0492,-4.0508,-4.0508,-4.0489,-4.0489,-4.0496,-4.0496,-5.4901,-5.4901,-5.4901,-5.4901,-5.4901,-5.4901,-5.4901,-5.4901,-5.4901,-5.4901,-5.4674,-5.3233,-5.24,-5.1964,-5.0846,-4.9893,-4.9893,-4.9893,-4.9893,-4.9893,-4.9893,-4.9893,-4.9893,-4.9893,-4.9855,-4.9684,-4.921,-4.8168,-4.7049,-4.6297,-4.5767,-4.5393,-4.5164,-4.4986,-4.4991,-4.5038,-4.508,-4.5103,-4.5148,-4.5181,-4.5213,-4.5265,-4.5297,-4.5277,-4.5277,-4.5277,-4.5277,-4.5277,-4.5277,-4.5277,-4.5277,-4.5277,-4.5277,-4.5277,-4.5277,-4.5277,-4.5277,-4.5277,-4.5277,-4.5277,-4.5277,-4.5277,-4.5277,-4.5277,-4.5277,-4.5277,-4.5277,-4.5277,-4.5277,-4.5277,-4.5277,-4.5277,-4.4857,-4.4159,-4.3443,-4.2756,-4.2068,-4.159,-4.1361,-4.2068,-4.2918,-4.3586,-4.4055,-4.4418,-4.4781,-4.5258,-4.5277,-4.5277,-4.5277,-4.5277,-4.5307,-4.5317,-4.5232,-4.5213,-4.4841,-4.4478,-4.4362,-4.4275,-4.4037,-4.3713,-4.3072,-4.2489,-4.2067,-4.1577,-4.084,-4.0409,-4.0452,-4.0493,-4.0455,-4.0452,-4.0484,-4.05,-4.0503,-4.05,-4.0508,-5.4901,-5.4901,-5.4901,-5.4901,-5.4901,-5.4901,-5.4901,-5.4901,-5.4901,-5.4901,-5.4806,-5.3181,-5.2366,-5.1869,-5.0618,-4.995,-4.9893,-4.9893,-4.9893,-4.9893,-4.9893,-4.9893,-4.9893,-4.9893,-4.9893,-4.9893,-4.976,-4.9267,-4.8206,-4.698,-4.6203,-4.5912,-4.5324,-4.4926,-4.4931,-4.4998,-4.5022,-4.5033,-4.508,-4.5136,-4.5211,-4.5222,-4.5254,-4.5286,-4.5297,-4.5297,-4.5297,-4.5297,-4.5277,-4.5297,-4.5297,-4.5277,-4.5277,-4.5277,-4.5277,-4.5277,-4.5277,-4.5277,-4.5277,-4.5277,-4.5277,-4.5277,-4.5277,-4.5277,-4.5277,-4.5277,-4.5277,-4.5277,-4.5277,-4.5277,-4.5277,-4.5277,-4.4838,-4.436,-4.3796,-4.3291,-4.2641,-4.1934,-4.1648,-4.1495,-4.2431,-4.3109,-4.3682,-4.4017,-4.438,-4.4895,-4.5277,-4.5277,-4.5277,-4.5277,-4.5277,-4.5307,-4.5307,-4.5317,-4.5298,-4.5031,-4.4935,-4.4914,-4.4696,-4.4371,-4.3635,-4.2881,-4.2202,-4.1648,-4.0873,-4.0356,-4.0391,-4.0407,-4.0396,-4.0422,-4.0455,-4.0491,-4.0491,-4.0487,-4.0492,-5.4901,-5.4901,-5.4901,-5.4901,-5.4901,-5.4901,-5.4901,-5.4901,-5.4901,-5.4901,-5.4579,-5.3124,-5.1926,-5.1054,-5.0139,-4.9912,-4.9893,-4.9893,-4.9893,-4.9893,-4.9893,-4.9893,-4.9893,-4.9893,-4.9893,-4.9893,-4.9893,-4.9779,-4.9002,-4.8206,-4.7277,-4.6253,-4.5824,-4.5369,-4.5103,-4.4957,-4.4931,-4.4955,-4.5003,-4.5072,-4.5136,-4.5181,-4.5203,-4.5254,-4.5286,-4.5286,-4.5265,-4.5286,-4.5267,-4.5256,-4.5275,-4.5277,-4.5277,-4.5277,-4.5277,-4.5277,-4.5277,-4.5277,-4.5277,-4.5277,-4.5277,-4.5277,-4.5277,-4.5277,-4.5277,-4.5277,-4.5277,-4.5277,-4.5277,-4.5277,-4.5277,-4.5277,-4.4781,-4.4341,-4.414,-4.3673,-4.3176,-4.2717,-4.2259,-4.2049,-4.1934,-4.266,-4.3338,-4.3834,-4.4064,-4.4265,-4.48,-4.5086,-4.5182,-4.5277,-4.5277,-4.5297,-4.5307,-4.5307,-4.5307,-4.5192,-4.5078,-4.5048,-4.502,-4.4619,-4.3978,-4.3291,-4.2412,-4.1609,-4.0855,-4.0491,-4.0394,-4.0354,-4.0353,-4.0398,-4.0443,-4.0441,-4.0458,-4.0482,-4.0479,-5.4901,-5.4901,-5.4901,-5.4901,-5.4901,-5.4901,-5.4901,-5.4901,-5.4901,-5.4901,-5.4465,-5.3158,-5.1585,-5.041,-5.0082,-4.9893,-4.9893,-4.9893,-4.9893,-4.9893,-4.9893,-4.9893,-4.9893,-4.9893,-4.9893,-4.9893,-4.9893,-4.9855,-4.9703,-4.9172,-4.8187,-4.686,-4.6657,-4.6241,-4.5691,-4.5388,-4.5267,-4.4907,-4.4943,-4.5003,-4.508,-4.5125,-4.5159,-4.5203,-4.5235,-4.5265,-4.5213,-4.5235,-4.5235,-4.5192,-4.5224,-4.5246,-4.5275,-4.5286,-4.5297,-4.5277,-4.5277,-4.5277,-4.5277,-4.5277,-4.5277,-4.5277,-4.5277,-4.5277,-4.5277,-4.5277,-4.5277,-4.5277,-4.5277,-4.5277,-4.5277,-4.5277,-4.5029,-4.4685,-4.4437,-4.394,-4.3539,-4.3291,-4.3061,-4.2908,-4.2679,-4.2335,-4.3023,-4.3624,-4.3854,-4.3796,-4.4188,-4.4781,-4.4972,-4.5086,-4.522,-4.522,-4.5239,-4.522,-4.522,-4.5201,-4.5163,-4.4934,-4.4887,-4.4494,-4.3654,-4.2947,-4.2125,-4.1399,-4.0788,-4.052,-4.0338,-4.0318,-4.0317,-4.0345,-4.0382,-4.0407,-4.0424,-4.0449,-4.0466,-5.4901,-5.4901,-5.4901,-5.4901,-5.4901,-5.4901,-5.4901,-5.4901,-5.4901,-5.4863,-5.456,-5.3177,-5.1893,-5.1035,-5.0239,-4.9893,-4.9893,-4.9893,-4.9893,-4.9893,-4.9893,-4.9893,-4.9893,-4.9893,-4.9893,-4.9893,-4.9893,-4.9893,-4.9893,-4.9779,-4.9153,-4.8547,-4.7681,-4.7378,-4.6847,-4.6184,-4.5615,-4.5198,-4.5002,-4.4962,-4.4979,-4.5026,-4.5061,-4.517,-4.5192,-4.5203,-4.5192,-4.5203,-4.5181,-4.5125,-4.517,-4.5203,-4.5233,-4.5265,-4.5286,-4.5286,-4.5277,-4.5277,-4.5277,-4.5277,-4.5277,-4.5277,-4.5277,-4.5277,-4.5277,-4.5277,-4.5277,-4.5277,-4.5277,-4.5277,-4.5277,-4.5258,-4.5163,-4.5048,-4.4857,-4.4762,-4.4418,-4.415,-4.394,-4.3758,-4.3452,-4.3061,-4.2813,-4.3452,-4.372,-4.3682,-4.3997,-4.4571,-4.4551,-4.4666,-4.4991,-4.5125,-4.5144,-4.5144,-4.5105,-4.4953,-4.4532,-4.4112,-4.3883,-4.3501,-4.2908,-4.2259,-4.1781,-4.1361,-4.0807,-4.053,-4.0454,-4.0807,-4.0912,-4.0482,-4.0366,-4.0546,-4.0457,-4.037,-4.0424,-5.4901,-5.4901,-5.4901,-5.4901,-5.4901,-5.4901,-5.4901,-5.4901,-5.4901,-5.4579,-5.4143,-5.293,-5.195,-5.1149,-5.0334,-4.9893,-4.9893,-4.9893,-4.9893,-4.9893,-4.9893,-4.9893,-4.9893,-4.9893,-4.9893,-4.9893,-4.9893,-4.9893,-4.9893,-4.9893,-4.9798,-4.9229,-4.8547,-4.7889,-4.734,-4.679,-4.6127,-4.571,-4.5217,-4.4945,-4.495,-4.4998,-4.5033,-4.508,-4.5125,-4.5095,-4.5072,-4.5106,-4.5103,-4.508,-4.5114,-4.5136,-4.5148,-4.5222,-4.5243,-4.5254,-4.5256,-4.5297,-4.5277,-4.5277,-4.5277,-4.5277,-4.5277,-4.5277,-4.5277,-4.5277,-4.5277,-4.5277,-4.5277,-4.5277,-4.5277,-4.5277,-4.5258,-4.5277,-4.5277,-4.5277,-4.5125,-4.4781,-4.4666,-4.4437,-4.4045,-4.3624,-4.3414,-4.3338,-4.3491,-4.3615,-4.3978,-4.4246,-4.4274,-4.4388,-4.4781,-4.4857,-4.4838,-4.4704,-4.4628,-4.4236,-4.3796,-4.3338,-4.2908,-4.2488,-4.2106,-4.1972,-4.1543,-4.1151,-4.1055,-4.1055,-4.1208,-4.159,-4.1418,-4.0797,-4.0692,-4.0864,-4.0672,-4.0336,-4.0353,-5.4901,-5.4901,-5.4901,-5.4901,-5.4901,-5.4901,-5.4901,-5.4901,-5.4901,-5.4617,-5.3973,-5.2949,-5.212,-5.1381,-5.0372,-4.9912,-4.9893,-4.9893,-4.9893,-4.9893,-4.9893,-4.9893,-4.9893,-4.9893,-4.9893,-4.9893,-4.9893,-4.9893,-4.9893,-4.9893,-4.9855,-4.9665,-4.9362,-4.8723,-4.823,-4.7378,-4.6828,-4.643,-4.6051,-4.5445,-4.5419,-4.5368,-4.5169,-4.5117,-4.5057,-4.5057,-4.5026,-4.5038,-4.5045,-4.5022,-4.5033,-4.5068,-4.5103,-4.5125,-4.5189,-4.5222,-4.5224,-4.5286,-4.5297,-4.5277,-4.5277,-4.5277,-4.5277,-4.5277,-4.5277,-4.5277,-4.5277,-4.5277,-4.5277,-4.5277,-4.5277,-4.5277,-4.5277,-4.5277,-4.5277,-4.5277,-4.5277,-4.5067,-4.5125,-4.5067,-4.4685,-4.4369,-4.4322,-4.4112,-4.3673,-4.3749,-4.3845,-4.4093,-4.4178,-4.4369,-4.4704,-4.4647,-4.4437,-4.4236,-4.4025,-4.3395,-4.2794,-4.2402,-4.1991,-4.1628,-4.1323,-4.1304,-4.1447,-4.1304,-4.1361,-4.1609,-4.18,-4.1953,-4.1533,-4.0941,-4.0874,-4.0749,-4.0624,-4.0317,-4.0308,-5.4901,-5.4901,-5.4901,-5.4901,-5.4901,-5.4901,-5.4901,-5.4901,-5.4901,-5.4863,-5.456,-5.3215,-5.2442,-5.1964,-5.0713,-5.0101,-4.9893,-4.9893,-4.9893,-4.9893,-4.9893,-4.9893,-4.9893,-4.9893,-4.9893,-4.9893,-4.9893,-4.9893,-4.9893,-4.9893,-4.9893,-4.9893,-4.9722,-4.9646,-4.9703,-4.9002,-4.8206,-4.7504,-4.7283,-4.6714,-4.631,-4.6082,-4.5664,-4.5347,-4.5036,-4.4998,-4.4979,-4.4979,-4.4967,-4.4943,-4.4967,-4.4991,-4.5022,-4.508,-4.5125,-4.517,-4.5192,-4.5224,-4.5297,-4.5297,-4.5277,-4.5277,-4.5277,-4.5277,-4.5277,-4.5277,-4.5277,-4.5277,-4.5277,-4.5277,-4.5277,-4.5277,-4.5277,-4.5277,-4.5277,-4.5277,-4.5277,-4.5277,-4.5277,-4.5277,-4.5277,-4.522,-4.5201,-4.4991,-4.4227,-4.394,-4.3864,-4.393,-4.4121,-4.4236,-4.4532,-4.4475,-4.4208,-4.4121,-4.3758,-4.2526,-4.182,-4.1437,-4.117,-4.0941,-4.0864,-4.096,-4.1113,-4.1304,-4.159,-4.182,-4.2011,-4.2183,-4.1743,-4.1285,-4.0635,-4.0415,-4.0328,-4.0318,-4.0309,-5.4901,-5.4901,-5.4901,-5.4901,-5.4901,-5.4901,-5.4901,-5.4901,-5.4901,-5.4901,-5.4693,-5.3688,-5.2892,-5.2191,-5.1338,-5.0448,-4.9987,-4.9893,-4.9893,-4.9893,-4.9893,-4.9893,-4.9893,-4.9893,-4.9893,-4.9893,-4.9893,-4.9893,-4.9893,-4.9893,-4.9893,-4.9893,-4.9893,-4.9893,-4.9665,-4.9153,-4.8471,-4.8187,-4.777,-4.7226,-4.698,-4.6544,-4.6139,-4.5804,-4.533,-4.5083,-4.5045,-4.5057,-4.4995,-4.4914,-4.4931,-4.4931,-4.4943,-4.4991,-4.5038,-4.5103,-4.5136,-4.5224,-4.5267,-4.5277,-4.5277,-4.5277,-4.5277,-4.5277,-4.5277,-4.5277,-4.5277,-4.5277,-4.5277,-4.5277,-4.5277,-4.5277,-4.5277,-4.5277,-4.5277,-4.5277,-4.5277,-4.5277,-4.5277,-4.5277,-4.5277,-4.5277,-4.5277,-4.5277,-4.4704,-4.4551,-4.4532,-4.4246,-4.4274,-4.414,-4.4216,-4.4197,-4.4083,-4.4045,-4.3605,-4.2526,-4.1762,-4.1495,-4.1017,-4.053,-4.0559,-4.0731,-4.0788,-4.096,-4.1495,-4.1991,-4.2087,-4.2125,-4.2049,-4.1667,-4.0826,-4.032,-4.032,-4.031,-4.032,-5.4901,-5.4901,-5.4901,-5.4901,-5.4901,-5.4901,-5.4901,-5.4901,-5.4901,-5.4901,-5.4731,-5.4067,-5.3442,-5.2651,-5.1684,-5.1016,-5.0334,-5.0006,-4.9893,-4.9893,-4.9893,-4.9893,-4.9893,-4.9893,-4.9893,-4.9893,-4.9893,-4.9893,-4.9893,-4.9893,-4.9893,-4.9893,-4.9893,-4.9893,-4.9741,-4.94,-4.9172,-4.9002,-4.8647,-4.823,-4.787,-4.7428,-4.698,-4.6594,-4.6158,-4.5729,-4.5464,-4.5293,-4.5198,-4.5028,-4.4895,-4.4895,-4.4907,-4.4931,-4.4967,-4.5033,-4.5125,-4.5203,-4.5235,-4.5297,-4.5297,-4.5277,-4.5277,-4.5277,-4.5277,-4.5277,-4.5277,-4.5277,-4.5277,-4.5277,-4.5277,-4.5277,-4.5277,-4.5277,-4.5277,-4.5277,-4.5277,-4.5277,-4.5277,-4.5277,-4.5277,-4.5277,-4.5277,-4.5277,-4.5105,-4.5163,-4.5239,-4.4857,-4.4513,-4.4418,-4.4312,-4.4341,-4.4178,-4.4083,-4.3624,-4.2698,-4.203,-4.1581,-4.1036,-4.0454,-4.054,-4.075,-4.0673,-4.0778,-4.1628,-4.2202,-4.2087,-4.2011,-4.1581,-4.1199,-4.0702,-4.0377,-4.032,-4.032,-4.032,-5.4905,-5.4905,-5.4886,-5.4852,-5.4871,-5.4871,-5.4886,-5.4901,-5.4901,-5.4901,-5.4844,-5.4124,-5.3613,-5.3271,-5.1964,-5.1154,-5.0808,-5.0177,-4.9987,-4.9893,-4.9893,-4.9893,-4.9893,-4.9893,-4.9893,-4.9893,-4.9893,-4.9893,-4.9893,-4.9893,-4.9893,-4.9893,-4.9893,-4.9893,-4.9836,-4.9779,-4.9684,-4.9589,-4.9495,-4.9115,-4.8736,-4.849,-4.7978,-4.7529,-4.7093,-4.6676,-4.6354,-4.607,-4.5653,-4.5312,-4.4952,-4.4914,-4.4895,-4.4895,-4.495,-4.5022,-4.5106,-4.514,-4.5203,-4.5235,-4.5286,-4.5286,-4.5277,-4.5277,-4.5277,-4.5277,-4.5277,-4.5277,-4.5277,-4.5277,-4.5277,-4.5277,-4.5277,-4.5277,-4.5277,-4.5277,-4.5277,-4.5277,-4.5277,-4.5277,-4.5277,-4.5277,-4.5277,-4.5277,-4.5277,-4.5277,-4.5277,-4.522,-4.4953,-4.501,-4.4914,-4.4895,-4.4666,-4.4216,-4.3654,-4.3119,-4.2488,-4.2106,-4.1208,-4.0654,-4.075,-4.0731,-4.0692,-4.1017,-4.2011,-4.2278,-4.1667,-4.118,-4.075,-4.0416,-4.03,-4.0339,-4.0273,-4.0301,-4.032,-5.4726,-5.4465,-5.4465,-5.4432,-5.4434,-5.4698,-5.4841,-5.4905,-5.4901,-5.4901,-5.4901,-5.4674,-5.3878,-5.2745,-5.2267,-5.1357,-5.0599,-5.0063,-4.995,-4.9893,-4.9893,-4.9893,-4.9893,-4.9893,-4.9893,-4.9893,-4.9893,-4.9893,-4.9893,-4.9893,-4.9893,-4.9893,-4.9893,-4.9893,-4.9893,-4.9893,-4.9893,-4.9893,-4.9893,-4.9722,-4.94,-4.904,-4.8642,-4.8338,-4.7845,-4.7434,-4.7112,-4.6582,-4.6165,-4.5899,-4.5217,-4.4952,-4.4895,-4.4895,-4.4919,-4.4998,-4.5057,-4.5061,-4.5106,-4.5192,-4.5301,-4.5369,-4.539,-4.5297,-4.5277,-4.5354,-4.5354,-4.5277,-4.5277,-4.5277,-4.5277,-4.5277,-4.5277,-4.5277,-4.5277,-4.5277,-4.5277,-4.5277,-4.5277,-4.5277,-4.5277,-4.5277,-4.5277,-4.5277,-4.5277,-4.5277,-4.5277,-4.5277,-4.5277,-4.5277,-4.5277,-4.522,-4.5125,-4.4685,-4.4494,-4.4055,-4.3291,-4.2565,-4.1743,-4.0979,-4.0692,-4.0673,-4.0673,-4.0979,-4.1533,-4.1342,-4.0778,-4.0482,-4.053,-4.0172,-4.0034,-4.0137,-4.0234,-4.0225,-4.0282,-5.3755,-5.3226,-5.3826,-5.4052,-5.4052,-5.4282,-5.4451,-5.4632,-5.4807,-5.4901,-5.4863,-5.4522,-5.3859,-5.2987,-5.2215,-5.1357,-5.0542,-5.0101,-4.9893,-4.9893,-4.9893,-4.9893,-4.9893,-4.9893,-4.9893,-4.9893,-4.9893,-4.9893,-4.9893,-4.9893,-4.9893,-4.9893,-4.9893,-4.9893,-4.9893,-4.9893,-4.9893,-4.9893,-4.9893,-4.9893,-4.9684,-4.94,-4.9267,-4.904,-4.8509,-4.8249,-4.787,-4.7283,-4.7055,-4.6733,-4.6013,-4.5918,-4.5805,-4.5672,-4.5457,-4.5468,-4.5143,-4.509,-4.5106,-4.5525,-4.5616,-4.5783,-4.6007,-4.6326,-4.5993,-4.5889,-4.5545,-4.5277,-4.5277,-4.5277,-4.5277,-4.5277,-4.5277,-4.5277,-4.5277,-4.5277,-4.5277,-4.5277,-4.5277,-4.5277,-4.5277,-4.5277,-4.5277,-4.5277,-4.5277,-4.5277,-4.5277,-4.5277,-4.5277,-4.5277,-4.5277,-4.5258,-4.5258,-4.5125,-4.4953,-4.4666,-4.3921,-4.3176,-4.2584,-4.182,-4.1094,-4.075,-4.0874,-4.0798,-4.074,-4.0502,-4.0271,-4.0549,-4.0578,-4.0138,-3.9773,-3.9881,-3.9975,-4.0007,-4.0117,-5.2314,-5.1435,-5.2809,-5.3477,-5.3626,-5.3627,-5.3739,-5.4101,-5.4396,-5.4689,-5.4553,-5.4034,-5.3594,-5.2798,-5.1874,-5.1244,-5.0599,-5.0126,-4.9893,-4.9893,-4.9893,-4.9893,-4.9893,-4.9893,-4.9893,-4.9893,-4.9893,-4.9893,-4.9893,-4.9893,-4.9893,-4.9893,-4.9893,-4.9893,-4.9893,-4.9893,-4.9893,-4.9893,-4.9893,-4.9893,-4.9893,-4.9855,-4.9893,-4.9836,-4.9665,-4.9514,-4.8964,-4.8585,-4.8338,-4.7789,-4.734,-4.7245,-4.6961,-4.6657,-4.6367,-4.6177,-4.5828,-4.567,-4.5763,-4.6152,-4.6427,-4.6767,-4.724,-4.7331,-4.6934,-4.6528,-4.6194,-4.608,-4.6175,-4.6175,-4.6175,-4.6156,-4.6118,-4.5889,-4.5717,-4.5526,-4.5316,-4.5316,-4.5277,-4.5277,-4.5277,-4.5277,-4.5277,-4.5277,-4.5277,-4.5277,-4.5277,-4.5277,-4.5277,-4.5277,-4.5277,-4.5277,-4.5277,-4.5277,-4.5144,-4.4819,-4.4331,-4.3739,-4.3233,-4.2622,-4.1858,-4.1457,-4.1141,-4.0768,-4.0347,-4.0152,-4.0043,-4.0226,-4.019,-3.9771,-3.9539,-3.9635,-3.9693,-3.9717,-3.9837,-5.138,-5.0889,-5.1196,-5.2024,-5.312,-5.286,-5.2754,-5.2902,-5.3029,-5.3357,-5.3728,-5.3606,-5.2987,-5.1893,-5.1438,-5.0865,-5.0239,-5.0107,-4.9931,-4.9893,-4.9893,-4.9893,-4.9879,-4.9871,-4.9879,-4.9893,-4.9893,-4.9879,-4.9893,-4.9893,-4.9893,-4.9893,-4.9893,-4.9893,-4.9893,-4.9893,-4.9893,-4.9893,-4.9893,-4.9893,-4.9893,-4.9893,-4.9893,-4.9893,-4.9836,-4.9836,-4.9381,-4.8983,-4.8717,-4.8338,-4.7681,-4.7434,-4.734,-4.7207,-4.7131,-4.7074,-4.6853,-4.6638,-4.6689,-4.6954,-4.7212,-4.7324,-4.7581,-4.7647,-4.756,-4.7327,-4.7196,-4.7177,-4.7101,-4.7062,-4.7024,-4.6967,-4.6882,-4.6519,-4.6118,-4.5755,-4.5392,-4.5316,-4.5297,-4.5277,-4.5277,-4.5277,-4.5277,-4.5277,-4.5277,-4.5277,-4.5277,-4.5277,-4.5277,-4.5277,-4.5277,-4.5277,-4.5277,-4.5258,-4.5182,-4.5067,-4.4666,-4.4331,-4.3902,-4.3271,-4.2584,-4.1838,-4.1139,-4.0447,-3.9954,-3.9818,-3.9717,-3.9677,-3.9545,-3.9311,-3.9285,-3.9376,-3.9311,-3.9298,-3.9452,-5.0021,-4.9458,-4.9703,-5.0581,-5.1597,-5.1474,-5.1492,-5.1633,-5.1691,-5.175,-5.1938,-5.2105,-5.1823,-5.0984,-5.0813,-5.0491,-4.9917,-4.9912,-4.9893,-4.9893,-4.9893,-4.9893,-4.9866,-4.9802,-4.9802,-4.9816,-4.9843,-4.9857,-4.9879,-4.9893,-4.9893,-4.9893,-4.9893,-4.9893,-4.9893,-4.9893,-4.9893,-4.9893,-4.9893,-4.9893,-4.9893,-4.9893,-4.9893,-4.9893,-4.9893,-4.9893,-4.9798,-4.9438,-4.9343,-4.9191,-4.8799,-4.8679,-4.8528,-4.8211,-4.8003,-4.7832,-4.7637,-4.7397,-4.7542,-4.7776,-4.8023,-4.8112,-4.8536,-4.8833,-4.8964,-4.8734,-4.8102,-4.7987,-4.7468,-4.7373,-4.7407,-4.7381,-4.7376,-4.7158,-4.6547,-4.6023,-4.5602,-4.5297,-4.5277,-4.5277,-4.5277,-4.5277,-4.5277,-4.5277,-4.5277,-4.5277,-4.5277,-4.5277,-4.5277,-4.5277,-4.5277,-4.5277,-4.5277,-4.5277,-4.5258,-4.5201,-4.5067,-4.4781,-4.4494,-4.3768,-4.2975,-4.193,-4.1047,-4.0398,-3.9876,-3.9587,-3.9477,-3.9401,-3.9205,-3.9021,-3.9031,-3.9101,-3.9021,-3.895,-3.9059,-4.8705,-4.7989,-4.8514,-4.9293,-5.0021,-5.0003,-5.0125,-5.0378,-5.0444,-5.0168,-4.9861,-5.0191,-5.0444,-5.0398,-5.0166,-4.9962,-4.9838,-4.9838,-4.9852,-4.9893,-4.9893,-4.9893,-4.9797,-4.9669,-4.9717,-4.9717,-4.9731,-4.9802,-4.9871,-4.9879,-4.9893,-4.9893,-4.9893,-4.9893,-4.9893,-4.9893,-4.9893,-4.9893,-4.9893,-4.9893,-4.9893,-4.9893,-4.9893,-4.9893,-4.9893,-4.9893,-4.9893,-4.9893,-4.9874,-4.9817,-4.9684,-4.9608,-4.9457,-4.9097,-4.8932,-4.8717,-4.8414,-4.8117,-4.8073,-4.8547,-4.8776,-4.9067,-4.9688,-4.9955,-4.9987,-4.9689,-4.9028,-4.8648,-4.8147,-4.8,-4.8055,-4.8071,-4.8087,-4.7785,-4.7109,-4.6394,-4.5927,-4.5488,-4.5449,-4.5411,-4.5297,-4.5297,-4.5277,-4.5277,-4.5277,-4.5277,-4.5277,-4.5277,-4.5277,-4.5277,-4.5277,-4.5277,-4.5277,-4.5277,-4.5277,-4.5258,-4.522,-4.5163,-4.4819,-4.4131,-4.3451,-4.2669,-4.1665,-4.0382,-3.9917,-3.9638,-3.9325,-3.917,-3.8964,-3.8795,-3.8837,-3.8925,-3.8866,-3.881,-3.875,-4.8309,-4.8619,-4.8149,-4.8749,-4.9858,-4.9401,-4.9173,-4.9216,-4.9222,-4.8938,-4.8671,-4.866,-4.8898,-4.9245,-4.9377,-4.9374,-4.9518,-4.9636,-4.9843,-4.9898,-4.9885,-4.9898,-4.9824,-4.9655,-4.9702,-4.9644,-4.9551,-4.963,-4.9759,-4.9838,-4.9893,-4.9893,-4.9893,-4.9893,-4.9893,-4.9893,-4.9893,-4.9893,-4.9893,-4.9893,-4.9893,-4.9893,-4.9893,-4.9893,-4.9893,-4.9893,-4.9893,-4.9893,-4.9893,-4.9893,-4.9893,-4.9893,-4.9817,-4.9684,-4.957,-4.9457,-4.9153,-4.9134,-4.9191,-4.9324,-4.9483,-4.9521,-4.9927,-4.9973,-4.9993,-4.9974,-4.9588,-4.9588,-4.9284,-4.9321,-4.9378,-4.9427,-4.9387,-4.8647,-4.7953,-4.7185,-4.6566,-4.6214,-4.6003,-4.5679,-4.5364,-4.5316,-4.5277,-4.5277,-4.5277,-4.5277,-4.5277,-4.5277,-4.5277,-4.5277,-4.5277,-4.5277,-4.5277,-4.5277,-4.5277,-4.5277,-4.5258,-4.5277,-4.5144,-4.4494,-4.3973,-4.362,-4.2571,-4.1071,-4.0207,-3.9807,-3.9489,-3.9098,-3.8866,-3.8735,-3.8719,-3.8719,-3.8707,-3.8707,-3.8707]},{"header":{"parameterUnit":"m.s-1","parameterCategory":1,"la1":31.0,"la2":29.5877,"lo1":-88.7671,"lo2":-86.6584,"dy":0.0162,"dx":0.0185,"nx":115,"ny":88,"refTime":"2026-04-25T12:00:00:Z","depth":0,"parameterNumber":3,"parameterNumberName":"V-component_of_WINDS"},"data":[0.0,0.0,0.0,0.0,0.0,0.0,0.0,0.0,0.0,0.0,0.0,0.0,0.0,0.0,0.0,0.0,0.0,0.0,0.0,0.0,0.0,0.0,0.0,0.0,0.0,0.0,0.0,0.0,0.0,0.0,0.0,0.0,0.0,0.0,0.0,0.0,0.0,0.0,0.0,0.0,0.0,0.0,0.0,0.0,0.0,0.0,0.0,0.0,0.0,0.0,0.0,0.0,0.0,0.0,0.0,0.0,0.0,0.0,0.0,0.0,0.0,0.0,0.0,0.0,0.0,0.0,0.0,0.0,0.0,0.0,0.0,0.0,0.0,0.0,0.0,0.0,0.0,0.0,0.0,0.0,0.0,0.0,0.0,0.0,0.0,0.0,0.0,0.0,0.0,0.0,0.0,0.0,0.0,0.0,0.0,0.0,0.0,0.0,0.0,0.0,0.0,0.0,0.0,0.0,0.0,0.0,0.0,0.0,0.0,0.0,0.0,0.0,0.0,0.0,0.0,0.0,0.0,0.0,0.0,0.0,0.0,0.0,0.0,0.0,0.0,0.0,0.0,0.0,0.0,0.0,0.0,0.0,0.0,0.0,0.0,0.0,0.0,0.0,0.0,0.0,0.0,0.0,0.0,0.0,0.0,0.0,0.0,0.0,0.0,0.0,0.0,0.0,0.0,0.0,0.0,0.0,0.0,0.0,0.0,0.0,0.0,0.0,0.0,0.0,0.0,0.0,0.0,0.0,0.0,0.0,0.0,0.0,0.0,0.0,0.0,0.0,0.0,0.0,0.0,0.0,0.0,0.0,0.0,0.0,0.0,0.0,0.0,0.0,0.0,0.0,0.0,0.0,0.0,0.0,0.0,0.0,0.0,0.0,0.0,0.0,0.0,0.0,0.0,0.0,0.0,0.0,0.0,0.0,0.0,0.0,0.0,0.0,0.0,0.0,0.0,0.0,0.0,0.0,0.0,0.0,0.0,0.0,0.0,0.0,0.0,0.0,0.0,0.0,0.0,0.0,0.0,0.0,0.0,0.0,0.0,0.0,0.0,0.0,0.0,0.0,0.0,0.0,0.0,0.0,0.0,0.0,0.0,0.0,0.0,0.0,0.0,0.0,0.0,0.0,0.0,0.0,0.0,0.0,0.0,0.0,0.0,0.0,0.0,0.0,0.0,0.0,0.0,0.0,0.0,0.0,0.0,0.0,0.0,0.0,0.0,0.0,0.0,0.0,0.0,0.0,0.0,0.0,0.0,0.0,0.0,0.0,0.0,0.0,0.0,0.0,0.0,0.0,0.0,0.0,0.0,0.0,0.0,0.0,0.0,0.0,0.0,0.0,0.0,0.0,0.0,0.0,0.0,0.0,0.0,0.0,0.0,0.0,0.0,0.0,0.0,0.0,0.0,0.0,0.0,0.0,0.0,0.0,0.0,0.0,0.0,0.0,0.0,0.0,0.0,0.0,0.0,0.0,0.0,0.0,0.0,0.0,0.0,0.0,0.0,0.0,0.0,0.0,0.0,0.0,0.0,0.0,0.0,0.0,0.0,0.0,0.0,0.0,0.0,0.0,0.0,0.0,0.0,0.0,0.0,0.0,0.0,0.0,0.0,0.0,0.0,0.0,0.0,0.0,0.0,0.0,0.0,0.0,0.0,0.0,0.0,0.0,0.0,0.0,0.0,0.0,0.0,0.0,0.0,0.0,0.0,0.0,0.0,0.0,0.0,0.0,0.0,0.0,0.0,0.0,0.0,0.0,0.0,0.0,0.0,0.0,0.0,0.0,0.0,0.0,0.0,0.0,0.0,0.0,0.0,0.0,0.0,0.0,0.0,0.0,0.0,0.0,0.0,0.0,0.0,0.0,0.0,0.0,0.0,0.0,0.0,0.0,0.0,0.0,0.0,0.0,0.0,0.0,0.0,0.0,0.0,0.0,0.0,0.0,0.0,0.0,0.0,0.0,0.0,0.0,0.0,0.0,0.0,0.0,0.0,0.0,0.0,0.0,0.0,0.0,0.0,0.0,0.0,0.0,0.0,0.0,0.0,0.0,0.0,0.0,0.0,0.0,0.0,0.0,0.0,0.0,0.0,0.0,0.0,0.0,0.0,0.0,0.0,0.0,0.0,0.0,0.0,0.0,0.0,0.0,0.0,0.0,0.0,0.0,0.0,0.0,0.0,0.0,0.0,0.0,0.0,0.0,0.0,0.0,0.0,0.0,0.0,0.0,0.0,0.0,0.0,0.0,0.0,0.0,0.0,0.0,0.0,0.0,0.0,0.0,0.0,0.0,0.0,0.0,0.0,0.0,0.0,0.0,0.0,0.0,0.0,0.0,0.0,0.0,0.0,0.0,0.0,0.0,0.0,0.0,0.0,0.0,0.0,0.0,0.0,0.0,0.0,0.0,0.0,0.0,0.0,0.0,0.0,0.0,0.0,0.0,0.0,0.0,0.0,0.0,0.0,0.0,0.0,0.0,0.0,0.0,0.0,0.0,0.0,0.0,0.0,0.0,0.0,0.0,0.0,0.0,0.0,0.0,0.0,0.0,0.0,0.0,0.0,0.0,0.0,0.0,0.0,0.0,0.0,0.0,0.0,0.0,0.0,0.0,0.0,0.0,0.0,0.0,0.0,0.0,0.0,0.0,0.0,0.0,0.0,0.0,0.0,0.0,0.0,0.0,0.0,0.0,0.0,0.0,0.0,0.0,0.0,0.0,0.0,0.0,0.0,0.0,0.0,0.0,0.0,0.0,0.0,0.0,0.0,0.0,0.0,0.0,0.0,0.0,0.0,0.0,0.0,0.0,0.0,0.0,0.0,0.0,0.0,0.0,0.0,0.0,0.0,0.0,0.0,0.0,0.0,0.0,0.0,0.0,0.0,0.0,0.0,0.0,0.0,0.0,0.0,0.0,0.0,0.0,0.0,0.0,0.0,0.0,0.0,0.0,0.0,0.0,0.0,0.0,0.0,0.0,0.0,0.0,0.0,0.0,0.0,0.0,0.0,0.0,0.0,0.0,0.0,0.0,0.0,0.0,0.0,0.0,0.0,0.0,0.0,0.0,0.0,0.0,0.0,0.0,0.0,0.0,0.0,0.0,0.0,0.0,0.0,0.0,0.0,0.0,0.0,0.0,0.0,0.0,0.0,0.0,0.0,0.0,0.0,0.0,0.0,0.0,0.0,0.0,0.0,0.0,0.0,0.0,0.0,0.0,0.0,0.0,0.0,0.0,0.0,0.0,0.0,0.0,0.0,0.0,0.0,0.0,0.0,0.0,0.0,0.0,0.0,0.0,0.0,0.0,0.0,0.0,0.0,0.0,0.0,0.0,0.0,0.0,0.0,0.0,0.0,0.0,0.0,0.0,0.0,0.0,0.0,0.0,0.0,0.0,0.0,0.0,0.0,0.0,0.0,0.0,0.0,0.0,0.0,0.0,0.0,0.0,0.0,0.0,0.0,0.0,0.0,0.0,0.0,0.0,0.0,0.0,0.0,0.0,0.0,0.0,0.0,0.0,0.0,0.0,0.0,0.0,0.0,0.0,0.0,0.0,0.0,0.0,0.0,0.0,0.0,0.0,0.0,0.0,0.0,0.0,0.0,0.0,0.0,0.0,0.0,0.0,0.0,0.0,0.0,0.0,0.0,0.0,0.0,0.0,0.0,0.0,0.0,0.0,0.0,0.0,0.0,0.0,0.0,0.0,0.0,0.0,0.0,0.0,0.0,0.0,0.0,0.0,0.0,0.0,0.0,0.0,0.0,0.0,0.0,0.0,0.0,0.0,0.0,0.0,0.0,0.0,0.0,0.0,0.0,0.0,0.0,0.0,0.0,0.0,0.0,0.0,0.0,0.0,0.0,0.0,0.0,0.0,0.0,0.0,0.0,0.0,0.0,0.0,0.0,0.0,0.0,0.0,0.0,0.0,0.0,0.0,0.0,0.0,0.0,0.0,0.0,0.0,0.0,0.0,0.0,0.0,0.0,0.0,0.0,0.0,0.0,0.0,0.0,0.0,0.0,0.0,0.0,0.0,0.0,0.0,0.0,0.0,0.0,0.0,0.0,0.0,0.0,0.0,0.0,0.0,0.0,0.0,0.0,0.0,0.0,0.0,0.0,0.0,0.0,0.0,0.0,0.0,0.0,0.0,0.0,0.0,0.0,0.0,0.0,0.0,0.0,0.0,0.0,0.0,0.0,0.0,0.0,0.0,0.0,0.0,0.0,0.0,0.0,0.0,0.0,0.0,0.0,0.0,0.0,0.0,0.0,0.0,0.0,0.0,0.0,0.0,0.1093,0.0,0.0,0.0,0.0,0.0,0.0,0.0,0.0,0.0,0.0,0.0,0.0,0.0,0.0,0.0,0.0,0.0,0.0,0.0,0.0,0.0,0.0,0.0,0.0,0.0,0.0,0.0,0.0,0.0,0.0,0.0,0.0,0.0,0.0,0.0,0.0,0.0,0.0,0.0,0.0,0.0,0.0,0.0,0.0,0.0,0.0,0.0,0.0,0.0,0.0,0.0,0.0,0.0,0.0,0.0,0.0,0.0,0.0,0.0,0.0,0.0,0.0,0.0,0.0,0.0,0.0,0.0,0.0,0.0,0.0,0.0,0.0,0.0,0.0,0.0,0.0,0.0,0.0,0.0,0.0,0.0,0.0,0.0,0.0,0.0,0.0,0.0,0.0,0.0,0.0,0.0,0.0,0.0,0.0,0.0,0.0,0.0,0.0,0.0,0.0,0.0,0.0,0.0,0.0,0.0,0.0,0.0,0.0,0.0,0.0,0.1992,0.2373,0.2897,0.2931,0.2402,0.0,0.0,0.0,0.0,0.0,0.0,0.0,0.0,0.0,0.0,0.0,0.0,0.0,0.0,0.0,0.0,0.0,0.0,0.0,0.0,0.0,0.0,0.0,0.0,0.0,0.0,0.0,0.0,0.0,0.0,0.0,0.0,0.0,0.0,0.0,0.0,0.0,0.0,0.0,0.0,0.0,0.0,0.0,0.0,0.0,0.0,0.0,0.0,0.0,0.0,0.0,0.0,0.0,0.0,0.0,0.0,0.0,0.0,0.0,0.0,0.0,0.0,0.0,0.0,0.0,0.0,0.0,0.0,0.0,0.0,0.0,0.0,0.0,0.0,0.0,0.0,0.0,0.0,0.0,0.0,0.0,0.0,0.0,0.0,0.0,0.0,0.0,0.0,0.0,0.0,0.0,0.0,0.0,0.0,0.0,0.0,0.0,0.0,0.0,0.0,0.0,0.0,0.0,0.0,0.0,0.0,0.0,0.0,0.0,0.0,0.0,0.0,0.3613,0.371,0.371,0.0,0.0,0.0,0.0,0.0,0.0,0.0,0.0,0.0,0.0,0.0,0.0,0.0,0.0,0.0,0.0,0.0,0.0,0.0,0.0,0.0,0.0,0.0,0.0,0.0,0.0,0.0,0.0,0.0,0.0,0.0,0.0,0.0,0.0,0.0,0.0,0.0,0.0,0.0,0.0,0.0,0.0,0.0,0.0,0.0,0.0,0.0,0.0,0.0,0.0,0.0,0.0,0.0,0.0,0.0,0.0,0.0,0.0,0.0,0.0,0.0,0.0,0.0,0.0,0.0,0.0,0.0,0.0,0.0,0.0,0.0,0.0,0.0,0.0,0.0,0.0,0.0,0.0,0.0,0.0,0.0,0.0,0.0,0.0,0.0,0.0,0.0,0.0,0.0,0.0,0.0,0.0,0.0,0.0,0.0,0.0,0.0,0.0,0.0,0.0,0.0,0.0,0.0,0.0,0.0,0.0,0.0,0.0,0.0,0.0,0.3337,0.3149,0.3661,0.0,0.3958,0.0,0.0,0.0,0.0,0.0,0.0,0.0,0.0,0.0,0.0,0.0,0.0,0.0,0.0,0.0,0.0,0.0,0.0,0.0,0.0,0.0,0.0,0.0,0.0,0.0,0.0,0.0,0.0,0.0,0.0,0.0,0.0,0.0,0.0,0.0,0.0,0.0,0.0,0.0,0.0,0.0,0.0,0.0,0.0,0.0,0.0,0.0,0.0,0.0,0.0,0.0,0.0,0.0,0.0,0.0,0.0,0.0,0.0,0.0,0.0,0.0,0.0,0.0,0.0,0.0,0.0,0.0,0.0,0.0,0.0,0.0,0.0,0.0,0.0,0.0,0.0,0.0,0.0,0.0,0.0,0.0,0.0,0.0,0.0,0.0,0.0,0.0,0.0,0.0,0.0,0.0,0.0,0.0,0.0,0.0,0.0,0.0,0.0,0.0,0.0,0.0,0.0,0.0,0.0,0.0,0.0,0.0,0.0,0.0,0.0,0.3597,0.4147,0.4318,0.4424,0.0,0.0,0.0,0.0,0.0,0.0,0.0,0.0,0.0,0.0,0.0,0.0,0.0,0.0,0.0,0.0,0.0,0.0,0.0,0.0,0.0,0.0,0.0,0.0,0.0,0.0,0.0,0.0,0.0,0.0,0.0,0.0,0.0,0.0,0.0,0.0,0.0,0.0,0.0,0.0,0.0,0.0,0.0,0.0,0.0,0.0,0.0,0.0,0.0,0.0,0.0,0.0,0.0,0.0,0.0,0.0,0.0,0.0,0.0,0.0,0.0,0.0,0.0,0.0,0.0,0.0,0.0,0.0,0.0,0.0,0.0,0.0,0.0,0.0,0.0,0.0,0.0,0.0,0.0,0.0,0.0,0.0,0.0,0.0,0.0,0.0,0.0,0.0,0.0,0.0,0.0,0.0,0.0,0.0,0.0,0.0,0.0,0.0,0.0,0.0,0.0,0.0,0.0,0.0,0.0,0.0,0.0,0.0,0.0,0.0,0.3999,0.4061,0.4967,0.4931,0.4816,0.4694,0.0,0.0,0.0,0.0,0.0,0.0,0.0,0.0,0.0,0.0,0.0,0.0,0.0,0.0,0.0,0.0,0.0,0.0,0.0,0.0,0.0,0.0,0.0,0.0,0.0,0.0,0.0,0.0,0.0,0.0,0.0,0.0,0.0,0.0,0.0,0.0,0.0,0.0,0.0,0.0,0.0,0.0,0.0,0.0,0.0,0.0,0.0,0.0,0.0,0.0,0.0,0.0,0.0,0.0,0.0,0.0,0.0,0.0,0.0,0.0,0.0,0.0,0.0,0.0,0.0,0.0,0.0,0.0,0.0,0.0,0.0,0.0,0.0,0.0,0.0,0.0,0.0,0.0,0.0,0.0,0.0,0.0,0.0,0.0,0.0,0.0,0.0,0.0,0.0,0.0,0.0,0.0,0.0,0.0,0.0,0.0,0.0,0.0,0.0,0.0,0.0,0.0,0.0,0.0,0.0,0.0,0.0,0.0,0.0,0.4956,0.496,0.5332,0.5368,0.5163,0.0,0.0,0.0,0.0,0.0,0.0,0.0,0.0,0.0,0.0,0.0,0.0,0.0,0.0,0.0,0.0,0.0,0.0,0.0,0.0,0.0,0.0,0.0,0.0,0.0,0.0,0.0,0.0,0.0,0.0,0.0,0.0,0.0,0.0,0.0,0.0,0.0,0.0,0.0,0.0,0.0,0.0,0.0,0.0,0.0,0.0,0.0,0.0,0.0,0.0,0.0,0.0,0.0,0.0,0.0,0.0,0.0,0.0,0.0,0.0,0.0,0.0,0.0,0.0,0.0,0.0,0.0,0.0,0.0,0.0,0.0,0.0,0.0,0.0,0.0,0.0,0.0,0.0,0.0,0.0,0.0,0.0,0.0,0.0,0.0,0.0,0.0,0.0,0.0,0.0,0.0,0.0,0.0,0.0,0.0,0.0,0.0,0.0,0.0,0.0,0.0,0.0,0.0,0.0,0.0,0.0,0.0,0.0,0.0,0.4237,0.3928,0.3931,0.4311,0.4267,0.4201,0.0,0.0,0.0,0.0,0.0,0.0,0.0,0.0,0.0,0.0,0.0,0.0,0.0,0.0,0.0,0.0,0.0,0.0,0.0,0.0,0.0,0.0,0.0,0.0,0.0,0.0,0.0,0.0,0.0,0.0,0.0,0.0,0.0,0.0,0.0,0.0,0.0,0.0,0.0,0.0,0.0,0.0,0.0,0.0,0.0,0.0,0.0,0.0,0.0,0.0,0.0,0.0,0.0,0.0,0.0,0.0,0.0,0.0,0.0,0.0,0.0,0.0,0.0,0.0,0.0,0.0,0.0,0.0,0.0,0.0,0.0,0.0,0.0,0.0,0.0,0.0,0.0,0.0,0.0,0.0,0.0,0.0,0.0,0.0,0.0,0.0,0.0,0.0,0.0,0.0,0.0,0.0,0.0,0.0,0.0,0.0,0.0,0.0,0.0,0.0,0.0,0.0,0.0,0.0,0.0,0.0,0.0,0.0,0.0,0.3475,0.0,0.3372,0.0,0.3724,0.3713,0.0,0.0,0.0,0.0,0.0,0.0,0.0,0.0,0.0,0.0,0.0,0.0,0.0,0.0,0.0,0.0,0.0,0.0,0.0,0.0,0.0,0.0,0.0,0.0,0.0,0.0,0.0,0.0,0.0,0.0,0.0,0.0,0.0,0.0,0.0,0.0,0.0,0.0,0.0,0.0,0.0,0.0,0.0,0.0,0.0,0.0,0.0,0.0,0.0,0.0,0.0,0.0,0.0,0.0,0.0,0.0,0.0,0.0,0.0,0.0,0.0,0.0,0.0,0.0,0.0,0.0,0.0,0.0,0.0,0.0,0.0,0.0,0.0,0.0,0.0,0.0,0.0,0.0,0.0,0.0,0.0,0.0,0.0,0.0,0.0,0.0,0.0,0.0,0.0,0.0,0.0,0.0,0.0,0.0,0.0,0.0,0.0,0.0,0.0,0.0,0.0,0.0,0.0,0.0,0.0,0.0,0.0,0.0,0.3448,0.3226,0.3233,0.3385,0.3853,0.382,0.3829,0.0,0.0,0.0,0.0,0.0,0.0,0.0,0.0,0.0,0.0,0.0,0.0,0.0,0.0,0.0,0.0,0.0,0.0,0.0,0.0,0.0,0.0,0.0,0.0,0.0,0.0,0.0,0.0,0.0,0.0,0.0,0.0,0.0,0.0,0.0,0.0,0.0,0.0,0.0,0.0,0.0,0.0,0.0,0.0,0.0,0.0,0.0,0.0,0.0,0.0,0.0,0.0,0.0,0.0,0.0,0.0,0.0,0.0,0.0,0.0,0.0,0.0,0.0,0.0,0.0,0.0,0.0,0.0,0.0,0.0,0.0,0.0,0.0,0.0,0.0,0.0,0.0,0.0,0.0,0.0,0.0,0.0,0.0,0.0,0.0,0.0,0.0,0.0,0.0,0.0,0.0,0.0,0.0,0.0,0.0,0.0,0.0,0.0,0.0,0.0,0.0,0.0,0.0,0.0,0.0,0.0,0.0,0.0,0.0,0.3103,0.2242,0.2167,0.2868,0.2581,0.2552,0.0,0.0,0.0,0.0,0.0,0.0,0.0,0.0,0.0,0.0,0.0,0.0,0.0,0.0,0.0,0.0,0.0,0.0,0.0,0.0,0.0,0.0,0.0,0.0,0.0,0.0,0.0,0.0,0.0,0.0,0.0,0.0,0.0,0.0,0.0,0.0,0.0,0.0,0.0,0.0,0.0,0.0,0.0,0.0,0.0,0.0,0.0,0.0,0.0,0.0,0.0,0.0,0.0,0.0,0.0,0.0,0.0,0.0,0.0,0.0,0.0,0.0,0.0,0.0,0.0,0.0,0.0,0.0,0.0,0.0,0.0,0.0,0.0,0.0,0.0,0.0,0.0,0.0,0.0,0.0,0.0,0.0,0.0,0.0,0.0,0.0,0.0,0.0,0.0,0.0,0.0,0.0,0.0,0.0,0.0,0.0,0.0,0.0,0.0,0.0,0.0,0.0,0.0,0.0,0.0,0.0,0.0,0.0,0.0,0.3744,0.2429,0.2035,0.279,0.2438,0.2419,0.2759,0.0,0.0,0.0,0.0,0.0,0.0,0.0,0.0,0.0,0.0,0.0,0.0,0.0,0.0,0.0,0.0,0.0,0.0,0.0,0.0,0.0,0.0,0.0,0.0,0.0,0.0,0.0,0.0,0.0,0.0,0.0,0.0,0.0,0.0,0.0,0.0,0.0,0.0,0.0,0.0,0.0,0.0,0.0,0.0,0.0,0.0,0.0,0.0,0.0,0.0,0.0,0.0,0.0,0.0,0.0,0.0,0.0,0.0,0.0,0.0,0.0,0.0,0.0,0.0,0.0,0.0,0.0,0.0,0.0,0.0,0.0,0.0,0.0,0.0,0.0,0.0,0.0,0.0,0.0,0.0,0.0,0.0,0.0,0.0,0.0,0.0,0.0,0.0,0.0,0.0,0.0,0.0,0.0,0.0,0.0,0.0,0.0,0.0,0.0,0.0,0.0,0.0,0.0,0.0,0.0,0.0,0.0,0.0,0.5142,0.3701,0.3054,0.3428,0.3303,0.3256,0.0,0.0,0.0,0.0,0.0,0.0,0.0,0.0,0.0,0.0,0.0,0.0,0.0,0.0,0.0,0.0,0.0,0.0,0.0,0.0,0.0,0.0,0.0,0.0,0.0,0.0,0.0,0.0,0.0,0.0,0.0,0.0,0.0,0.0,0.0,0.0,0.0,0.0,0.0,0.0,0.0,0.0,0.0,0.0,0.0,0.0,0.0,0.0,0.0,0.0,0.0,0.0,0.0,0.0,0.0,0.0,0.0,0.0,0.0,0.0,0.0,0.0,0.0,0.0,0.0,0.0,0.0,0.0,0.0,0.0,0.0,0.0,0.0,0.0,0.0,0.0,0.0,0.0,0.0,0.0,0.0,0.0,0.0,0.0,0.0,0.0,0.0,0.0,0.0,0.0,0.0,0.0,0.0,0.0,0.0,0.0,0.0,0.0,0.0,0.0,0.0,0.0,0.0,0.0,0.0,0.0,0.0,0.0,0.0,0.6038,0.5533,0.5167,0.5053,0.42,0.3787,0.0,0.0,0.0,0.0,0.0,0.0,0.0,0.0,0.0,0.0,0.0,0.0,0.0,0.0,0.0,0.0,0.0,0.0,0.0,0.0,0.0,0.0,0.0,0.0,0.0,0.0,0.0,0.0,0.0,0.0,0.0,0.0,0.0,0.0,0.0,0.0,0.0,0.0,0.0,0.0,0.0,0.0,0.0,0.0,0.0,0.0,0.0,0.0,0.0,0.0,0.0,0.0,0.0,0.0,0.0,0.0,0.0,0.0,0.0,0.0,0.0,0.0,0.0,0.0,0.0,0.0,0.0,0.0,0.0,0.0,0.0,0.0,0.0,0.0,0.0,0.0,0.0,0.0,0.0,0.0,0.0,0.0,0.0,0.0,0.0,0.0,0.0,0.0,0.0,0.0,0.0,0.0,0.0,0.0,0.0,0.0,0.0,0.0,0.0,0.0,0.0,0.0,0.0,0.0,0.0,0.0,0.0,0.0,0.5752,0.6661,0.6748,0.6734,0.6515,0.5339,0.4538,0.0,0.0,0.0,0.0,0.0,0.0,0.0,0.0,0.0,0.0,0.0,0.0,0.0,0.0,0.0,0.0,0.0,0.0,0.0,0.0,0.0,0.0,0.0,0.0,0.0,0.0,0.0,0.0,0.0,0.0,0.0,0.0,0.0,0.0,0.0,0.0,0.0,0.0,0.0,0.0,0.0,0.0,0.0,0.0,0.0,0.0,0.0,0.0,0.0,0.0,0.0,0.0,0.0,0.0,0.0,0.0,0.0,0.0,0.0,0.0,0.0,0.0,0.0,0.0,0.0,0.0,0.0,0.0,0.0,0.0,0.0,0.0,0.0,0.0,0.0,0.0,0.0,0.0,0.0,0.0,0.0,0.0,0.0,0.0,0.0,0.0,0.0,0.0,0.0,0.0,0.0,0.0,0.0,0.0,0.0,0.0,0.0,0.0,0.0,0.0,0.0,0.0,0.0,0.0,0.0,0.0,0.0,0.0,0.6538,0.6946,0.7483,0.7756,0.7543,0.6502,0.5448,0.0,0.0,0.0,0.0,0.0,0.0,0.0,0.0,0.0,0.0,0.0,0.0,0.0,0.0,0.0,0.0,0.0,0.0,0.0,0.0,0.0,0.0,0.0,0.0,0.0,0.0,0.0,0.0,0.0,0.0,0.0,0.0,0.0,0.0,0.0,0.0,0.0,0.0,0.0,0.0,0.0,0.0,0.0,0.0,0.0,0.0,0.0,0.0,0.0,0.0,0.0,0.0,0.0,0.0,0.0,0.0,0.0,0.0,0.0,0.0,0.0,0.0,0.0,0.0,0.0,0.0,0.0,0.0,0.0,0.0,0.0,0.0,0.0,0.0,0.0,0.0,0.0,0.0,0.0,0.0,0.0,0.0,0.0,0.0,0.0,0.0,0.0,0.0,0.0,0.0,0.0,0.0,0.0,0.0,0.0,0.0,0.0,0.0,0.0,0.0,0.0,0.0,0.0,0.0,0.0,0.0,0.0,0.0,0.6644,0.7048,0.7634,0.7816,0.7607,0.6997,0.6363,0.0,0.0,0.0,0.0,0.0,0.0,0.0,0.0,0.0,0.0,0.0,0.0,0.0,0.0,0.0,0.0,0.0,0.0,0.0,0.0,0.0,0.0,0.0,0.0,0.0,0.0,0.0,0.0,0.0,0.0,0.0,0.0,0.0,0.0,0.0,0.0,0.0,0.0,0.0,0.0,0.0,0.0,0.0,0.0,0.0,0.0,0.0,0.0,0.3002,0.0,0.0,0.0,0.0,0.0,0.0,0.0,0.0,0.0,0.0,0.0,0.0,0.0,0.0,0.0,0.0,0.0,0.0,0.0,0.0,0.0,0.0,0.0,0.0,0.0,0.0,0.0,0.0,0.0,0.0,0.0,0.0,0.0,0.0,0.0,0.0,0.0,0.0,0.0,0.0,0.0,0.0,0.0,0.0,0.0,0.0,0.0,0.0,0.0,0.0,0.0,0.0,0.0,0.0,0.0,0.0,0.0,0.0,0.0,0.6871,0.7248,0.7719,0.7899,0.7604,0.7231,0.6637,0.0,0.0,0.0,0.0,0.0,0.0,0.0,0.0,0.0,0.0,0.0,0.0,0.0,0.0,0.0,0.0,0.0,0.0,0.0,0.0,0.0,0.0,0.0,0.0,0.0,0.0,0.0,0.0,0.0,0.0,0.0,0.0,0.0,0.0,0.0,0.0,0.0,0.0,0.0,0.0,0.0,0.0,0.0,0.0,0.0,0.0,0.0,0.0,0.0,0.0,0.0,0.0,0.0,0.0,0.0,0.0,0.0,0.0,0.0,0.0,0.0,0.0,0.0,0.0,0.0,0.0,0.0,0.0,0.0,0.0,0.0,0.0,0.0,0.0,0.0,0.0,0.0,0.0,0.0,0.0,0.0,0.0,0.0,0.0,0.0,0.0,0.0,0.0,0.0,0.0,0.0,0.0,0.0,0.0,0.0,0.0,0.0,0.0,0.0,0.0,0.0,0.0,0.0,0.0,0.0,0.0,0.0,0.6396,0.7037,0.7404,0.7818,0.7899,0.7607,0.7253,0.6722,0.5873,0.0,0.0,0.0,0.0,0.0,0.0,0.0,0.0,0.0,0.0,0.0,0.0,0.0,0.0,0.0,0.0,0.0,0.0,0.0,0.0,0.0,0.0,0.0,0.0,0.0,0.0,0.0,0.0,0.0,0.0,0.0,0.0,0.0,0.0,0.0,0.0,0.0,0.0,0.2873,0.3385,0.0,0.0,0.0,0.0,0.0,0.0,0.0,0.0,0.3249,0.0,0.0,0.0,0.0,0.0,0.0,0.0,0.0,0.0,0.0,0.0,0.0,0.0,0.0,0.0,0.0,0.0,0.0,0.0,0.0,0.0,0.0,0.0,0.0,0.0,0.0,0.0,0.0,0.0,0.0,0.0,0.0,0.0,0.0,0.0,0.0,0.0,0.0,0.0,0.0,0.0,0.0,0.0,0.0,0.0,0.0,0.0,0.0,0.0,0.0,0.0,0.0,0.0,0.0,0.0,0.0,0.6132,0.6443,0.6878,0.7546,0.7875,0.7899,0.7604,0.7253,0.676,0.5995,0.0,0.0,0.0,0.0,0.0,0.0,0.0,0.0,0.0,0.0,0.0,0.0,0.0,0.0,0.0,0.0,0.0,0.0,0.0,0.0,0.0,0.0,0.0,0.0,0.0,0.0,0.0,0.0,0.0,0.0,0.0,0.0,0.0,0.0,0.0,0.0,0.0,0.0,0.0,0.4126,0.4354,0.0,0.0,0.0,0.0,0.0,0.0,0.0,0.0,0.3216,0.0,0.0,0.0,0.0,0.0,0.0,0.0,0.0,0.0,0.0,0.0,0.0,0.0,0.0,0.0,0.0,0.0,0.0,0.0,0.0,0.0,0.0,0.0,0.0,0.0,0.0,0.0,0.0,0.0,0.0,0.0,0.0,0.0,0.0,0.0,0.0,0.0,0.0,0.0,0.0,0.0,0.0,0.0,0.0,0.0,0.0,0.0,0.0,0.0,0.0,0.0,0.0,0.0,0.0,0.0,0.6185,0.6627,0.7115,0.7724,0.7934,0.7899,0.76,0.7153,0.6603,0.0,0.0,0.0,0.0,0.0,0.0,0.0,0.0,0.0,0.0,0.0,0.0,0.0,0.0,0.0,0.0,0.0,0.0,0.0,0.0,0.0,0.0,0.0,0.0,0.0,0.0,0.0,0.0,0.0,0.0,0.0,0.0,0.0,0.0,0.0,0.0,0.0,0.0,0.0,0.0,0.4141,0.4344,0.4576,0.0,0.0,0.0,0.0,0.0,0.0,0.3623,0.3409,0.0,0.0,0.0,0.0,0.0,0.0,0.0,0.0,0.0,0.0,0.0,0.0,0.0,0.0,0.0,0.0,0.0,0.0,0.0,0.0,0.0,0.0,0.0,0.0,0.0,0.0,0.0,0.0,0.0,0.0,0.0,0.0,0.0,0.0,0.0,0.0,0.0,0.0,0.0,0.0,0.0,0.0,0.0,0.0,0.0,0.0,0.0,0.0,0.0,0.0,0.0,0.0,0.0,0.0,0.0,0.6205,0.6832,0.7451,0.7955,0.8098,0.8014,0.7738,0.7175,0.6607,0.0,0.0,0.0,0.0,0.0,0.0,0.0,0.0,0.0,0.0,0.0,0.0,0.0,0.0,0.0,0.0,0.0,0.0,0.0,0.0,0.0,0.0,0.0,0.0,0.0,0.0,0.0,0.0,0.0,0.0,0.0,0.0,0.0,0.0,0.0,0.0,0.0,0.0,0.0,0.0,0.0,0.4379,0.4606,0.4259,0.0,0.0,0.0,0.0,0.4126,0.3955,0.0,0.0,0.0,0.0,0.0,0.0,0.0,0.0,0.0,0.0,0.0,0.0,0.0,0.0,0.0,0.0,0.0,0.0,0.0,0.0,0.0,0.0,0.0,0.0,0.0,0.0,0.0,0.0,0.0,0.0,0.0,0.0,0.0,0.0,0.0,0.0,0.0,0.0,0.0,0.0,0.0,0.0,0.0,0.0,0.0,0.0,0.0,0.0,0.0,0.0,0.0,0.0,0.0,0.0,0.0,0.0,0.6362,0.7026,0.7635,0.8214,0.8427,0.8435,0.82,0.7753,0.7196,0.0,0.0,0.0,0.0,0.0,0.0,0.0,0.0,0.0,0.0,0.0,0.0,0.0,0.0,0.0,0.0,0.0,0.0,0.0,0.0,0.0,0.0,0.0,0.0,0.0,0.0,0.0,0.0,0.0,0.0,0.0,0.0,0.0,0.0,0.0,0.0,0.0,0.0,0.0,0.0,0.0,0.5061,0.4583,0.4484,0.4419,0.0,0.0,0.4294,0.4719,0.4562,0.0,0.0,0.0,0.0,0.0,0.0,0.0,0.0,0.0,0.0,0.0,0.0,0.0,0.0,0.0,0.0,0.0,0.0,0.0,0.0,0.0,0.0,0.0,0.0,0.0,0.0,0.0,0.0,0.0,0.0,0.0,0.0,0.0,0.0,0.0,0.0,0.0,0.0,0.0,0.0,0.0,0.0,0.0,0.0,0.0,0.0,0.0,0.0,0.0,0.0,0.0,0.0,0.0,0.0,0.0,0.5704,0.6548,0.7292,0.7914,0.8329,0.8503,0.8467,0.8164,0.7539,0.6926,0.0,0.0,0.0,0.0,0.0,0.0,0.0,0.0,0.0,0.0,0.0,0.0,0.0,0.0,0.0,0.0,0.0,0.0,0.0,0.0,0.0,0.0,0.0,0.0,0.0,0.0,0.0,0.0,0.0,0.0,0.0,0.0,0.0,0.0,0.0,0.0,0.0,0.0,0.0,0.0,0.0,0.0,0.4975,0.4784,0.0,0.0,0.0,0.4567,0.4847,0.0,0.0,0.0,0.0,0.0,0.0,0.0,0.0,0.0,0.0,0.0,0.0,0.0,0.0,0.0,0.0,0.0,0.0,0.0,0.0,0.0,0.0,0.0,0.0,0.0,0.0,0.0,0.0,0.0,0.0,0.0,0.0,0.0,0.0,0.0,0.0,0.0,0.0,0.0,0.0,0.0,0.0,0.0,0.0,0.0,0.0,0.0,0.0,0.0,0.0,0.0,0.0,0.0,0.0,0.0,0.0,0.0,0.6762,0.7558,0.8159,0.8503,0.8617,0.8539,0.828,0.7548,0.0,0.0,0.0,0.0,0.0,0.0,0.0,0.0,0.0,0.0,0.0,0.0,0.0,0.0,0.0,0.0,0.0,0.0,0.0,0.0,0.0,0.0,0.0,0.0,0.0,0.0,0.0,0.2225,0.0,0.0,0.0,0.0,0.0,0.0,0.0,0.0,0.0,0.0,0.0,0.0,0.0,0.0,0.4317,0.4868,0.4565,0.4391,0.0,0.0,0.442,0.4894,0.4631,0.432,0.0,0.0,0.0,0.0,0.0,0.0,0.0,0.0,0.0,0.0,0.0,0.0,0.0,0.0,0.0,0.0,0.0,0.0,0.0,0.0,0.0,0.0,0.0,0.0,0.0,0.0,0.0,0.0,0.0,0.0,0.0,0.0,0.0,0.0,0.0,0.0,0.0,0.0,0.0,0.0,0.0,0.0,0.0,0.0,0.0,0.0,0.0,0.0,0.0,0.0,0.0,0.0,0.0,0.0,0.0,0.6948,0.7845,0.8431,0.8759,0.8754,0.8799,0.8763,0.8122,0.7484,0.0,0.0,0.0,0.0,0.0,0.0,0.0,0.0,0.0,0.0,0.0,0.0,0.0,0.0,0.0,0.0,0.0,0.0,0.0,0.0,0.0,0.0,0.0,0.0,0.0,0.0,0.0,0.0,0.0,0.0,0.0,0.0,0.0,0.0,0.0,0.0,0.0,0.0,0.0,0.0,0.0,0.3808,0.3736,0.3373,0.3359,0.0,0.3555,0.3582,0.489,0.4554,0.4087,0.4006,0.0,0.0,0.0,0.0,0.0,0.0,0.0,0.0,0.0,0.0,0.0,0.0,0.0,0.0,0.0,0.0,0.0,0.0,0.0,0.0,0.0,0.0,0.0,0.0,0.0,0.0,0.0,0.0,0.0,0.0,0.0,0.0,0.0,0.0,0.0,0.0,0.0,0.0,0.0,0.0,0.0,0.0,0.0,0.0,0.0,0.0,0.0,0.0,0.0,0.0,0.0,0.0,0.0,0.6168,0.6984,0.7833,0.8414,0.8658,0.8767,0.8767,0.8666,0.8122,0.749,0.0,0.0,0.0,0.0,0.0,0.0,0.0,0.0,0.0,0.0,0.0,0.0,0.0,0.0,0.0,0.0,0.0,0.0,0.0,0.0,0.0,0.0,0.0,0.0,0.0,0.0,0.0,0.0,0.2643,0.2669,0.2619,0.0,0.0,0.0,0.0,0.0,0.0,0.0,0.0,0.0,0.0,0.3761,0.3993,0.3903,0.0,0.0,0.468,0.465,0.5209,0.4896,0.4535,0.4435,0.4129,0.0,0.0,0.0,0.0,0.0,0.0,0.0,0.0,0.0,0.0,0.0,0.0,0.0,0.0,0.0,0.0,0.0,0.0,0.0,0.0,0.0,0.0,0.0,0.0,0.0,0.0,0.0,0.0,0.0,0.0,0.0,0.0,0.0,0.0,0.0,0.0,0.0,0.0,0.0,0.0,0.0,0.0,0.0,0.0,0.0,0.0,0.0,0.0,0.0,0.0,0.0,0.0,0.6216,0.6984,0.778,0.8325,0.8608,0.8682,0.869,0.8604,0.8086,0.751,0.0,0.0,0.0,0.0,0.0,0.0,0.0,0.0,0.0,0.0,0.0,0.0,0.0,0.0,0.0,0.0,0.0,0.0,0.0,0.0,0.0,0.0,0.0,0.0,0.0,0.0,0.0,0.0,0.2998,0.2983,0.2852,0.0,0.0,0.0,0.0,0.0,0.0,0.0,0.0,0.0,0.0,0.3758,0.4235,0.412,0.422,0.4957,0.4891,0.4863,0.5178,0.4927,0.4639,0.4574,0.0,0.0,0.0,0.0,0.0,0.0,0.0,0.0,0.0,0.0,0.0,0.0,0.0,0.0,0.0,0.0,0.0,0.0,0.0,0.0,0.0,0.0,0.0,0.0,0.0,0.0,0.0,0.5571,0.0,0.0,0.5285,0.0,0.0,0.0,0.0,0.0,0.0,0.0,0.0,0.0,0.0,0.0,0.0,0.0,0.0,0.0,0.0,0.0,0.0,0.0,0.0,0.0,0.0,0.6063,0.7015,0.7663,0.8199,0.86,0.8616,0.862,0.8604,0.8086,0.7586,0.7159,0.0,0.0,0.0,0.0,0.0,0.0,0.0,0.0,0.0,0.0,0.0,0.0,0.0,0.0,0.0,0.0,0.0,0.0,0.0,0.0,0.0,0.0,0.0,0.0,0.0,0.0,0.2886,0.2895,0.2859,0.0,0.0,0.0,0.0,0.0,0.0,0.0,0.0,0.0,0.0,0.3989,0.3794,0.4235,0.3682,0.3551,0.4253,0.3751,0.3685,0.477,0.4475,0.4125,0.0,0.0,0.0,0.0,0.0,0.0,0.0,0.0,0.0,0.0,0.0,0.0,0.0,0.0,0.0,0.0,0.0,0.0,0.0,0.0,0.0,0.0,0.0,0.0,0.0,0.0,0.0,0.6469,0.631,0.0,0.0,0.0,0.0,0.0,0.0,0.0,0.0,0.0,0.0,0.0,0.7351,0.7431,0.0,0.0,0.0,0.0,0.0,0.0,0.0,0.0,0.0,0.0,0.0,0.0,0.6208,0.698,0.765,0.8195,0.86,0.8616,0.8616,0.8608,0.8154,0.7537,0.6674,0.0,0.0,0.0,0.0,0.0,0.0,0.0,0.0,0.0,0.0,0.0,0.0,0.0,0.0,0.0,0.0,0.0,0.0,0.0,0.0,0.0,0.0,0.0,0.0,0.0,0.2899,0.0,0.0,0.0,0.0,0.0,0.0,0.0,0.0,0.0,0.0,0.0,0.3962,0.3905,0.392,0.4027,0.4259,0.4087,0.4187,0.0,0.0,0.0,0.0,0.0,0.0,0.0,0.0,0.0,0.0,0.0,0.0,0.0,0.0,0.4219,0.3443,0.311,0.2943,0.2899,0.0,0.0,0.0,0.0,0.0,0.0,0.0,0.0,0.0,0.0,0.0,0.0,0.0,0.0,0.729,0.0,0.6891,0.0,0.0,0.0,0.0,0.0,0.0,0.0,0.0,0.7443,0.7817,0.8082,0.8154,0.8085,0.0,0.7539,0.6936,0.0,0.0,0.0,0.0,0.0,0.0,0.0,0.0,0.6453,0.7163,0.7776,0.826,0.8596,0.8616,0.858,0.8514,0.8052,0.7415,0.6508,0.5892,0.5433,0.0,0.0,0.0,0.0,0.0,0.0,0.0,0.0,0.0,0.0,0.0,0.0,0.0,0.0,0.0,0.0,0.0,0.0,0.0,0.0,0.0,0.0,0.0,0.3152,0.0,0.0,0.0,0.0,0.0,0.0,0.0,0.0,0.0,0.3778,0.4111,0.4276,0.423,0.4347,0.452,0.4733,0.0,0.0,0.0,0.0,0.0,0.0,0.0,0.5203,0.511,0.4935,0.4788,0.4701,0.4857,0.4897,0.4728,0.0,0.0,0.3976,0.3631,0.3401,0.3364,0.3468,0.3546,0.348,0.371,0.3911,0.0,0.0,0.0,0.0,0.0,0.0,0.0,0.0,0.8093,0.8073,0.0,0.7687,0.0,0.0,0.0,0.0,0.0,0.7151,0.0,0.0,0.8355,0.8624,0.8637,0.8649,0.8641,0.8637,0.8612,0.8326,0.7743,0.6177,0.0,0.0,0.0,0.0,0.0,0.0,0.6781,0.7502,0.8008,0.8377,0.8604,0.8616,0.8518,0.828,0.7804,0.7282,0.6741,0.6505,0.601,0.5169,0.4739,0.0,0.0,0.0,0.0,0.0,0.0,0.0,0.0,0.0,0.0,0.0,0.0,0.0,0.0,0.0,0.0,0.0,0.0,0.0,0.0,0.3521,0.0,0.0,0.0,0.0,0.0,0.0,0.0,0.0,0.0,0.0,0.4264,0.4416,0.4733,0.531,0.0,0.0,0.0,0.0,0.5463,0.561,0.5593,0.5596,0.5596,0.5701,0.564,0.5194,0.0,0.0,0.4799,0.4955,0.505,0.4769,0.4843,0.485,0.4721,0.4331,0.4062,0.414,0.4089,0.4065,0.4183,0.429,0.4443,0.9778,0.0,0.0,0.0,0.0,0.882,0.9153,0.9672,0.9458,0.9206,0.8996,0.8593,0.0,0.0,0.0,0.0,0.0,0.0,0.7955,0.8388,0.8621,0.8885,0.918,0.9263,0.9254,0.9175,0.9003,0.8735,0.8359,0.7606,0.6684,0.5629,0.0,0.0,0.0,0.0,0.7061,0.7484,0.8016,0.8377,0.8608,0.8616,0.8457,0.8097,0.7699,0.7354,0.7042,0.6652,0.627,0.6034,0.5328,0.0,0.0,0.0,0.0,0.0,0.0,0.0,0.0,0.0,0.0,0.0,0.0,0.0,0.0,0.0,0.0,0.0,0.0,0.0,0.3425,0.3098,0.3022,0.0,0.0,0.0,0.0,0.0,0.0,0.0,0.0,0.0,0.5016,0.5109,0.5229,0.0,0.0,0.5603,0.5593,0.564,0.5691,0.5735,0.5739,0.0,0.5742,0.5688,0.564,0.561,0.5562,0.5511,0.5355,0.5315,0.53,0.5208,0.5111,0.5022,0.4975,0.4793,0.4606,0.4453,0.4477,0.4433,0.4271,0.4362,0.4491,1.0997,1.0111,0.9575,0.9518,0.9766,0.9669,0.9886,1.037,1.027,1.0046,0.977,0.9555,0.9104,0.8475,0.8048,0.0,0.0,0.0,0.8686,0.9139,0.9194,0.9356,0.9563,0.9677,0.9636,0.9462,0.9283,0.9139,0.8922,0.8507,0.7793,0.6757,0.0,0.0,0.6375,0.7,0.749,0.7801,0.8195,0.8498,0.8608,0.8465,0.8239,0.8016,0.7671,0.7408,0.7127,0.6806,0.6563,0.631,0.5661,0.5096,0.0,0.0,0.0,0.0,0.0,0.0,0.0,0.0,0.0,0.0,0.0,0.3014,0.2735,0.0,0.0,0.0,0.3358,0.3688,0.38,0.3503,0.0,0.0,0.0,0.0,0.0,0.0,0.0,0.4596,0.4832,0.5098,0.5515,0.5624,0.5627,0.5627,0.5728,0.5793,0.5766,0.0,0.5823,0.5881,0.5891,0.5915,0.6006,0.5948,0.5867,0.5888,0.5718,0.5596,0.5586,0.5498,0.5399,0.5382,0.5284,0.5223,0.5223,0.5152,0.5003,0.474,0.4714,0.4694,0.4442,0.449,0.4563,1.1939,1.1711,1.0763,1.0379,1.0459,1.0521,1.0463,1.0476,1.0676,1.0627,1.0403,1.0387,1.0092,0.962,0.9098,0.0,0.9165,0.9371,0.9608,0.9884,0.9888,0.9888,0.9888,0.9884,0.9799,0.9591,0.9466,0.9424,0.9404,0.9027,0.8609,0.8113,0.7567,0.7399,0.7531,0.7731,0.8004,0.8284,0.8471,0.8612,0.8608,0.8203,0.8012,0.8008,0.7655,0.7347,0.7029,0.698,0.6731,0.6256,0.5827,0.5393,0.4848,0.0,0.0,0.0,0.0,0.0,0.0,0.0,0.0,0.0,0.0,0.0,0.0,0.0,0.0,0.0,0.4088,0.0,0.4406,0.4394,0.0,0.0,0.0,0.4104,0.4095,0.4494,0.4802,0.4952,0.0,0.0,0.58,0.5915,0.6051,0.601,0.5928,0.5884,0.5973,0.5922,0.5888,0.603,0.6047,0.6098,0.6245,0.6265,0.6218,0.6061,0.581,0.5647,0.561,0.5525,0.5426,0.5395,0.5392,0.5388,0.5392,0.5378,0.531,0.4999,0.4911,0.4891,0.4735,0.4687,0.464,1.2004,1.1935,1.1553,1.1334,1.1248,1.1244,1.1244,1.1236,1.1139,1.0919,1.0623,1.0493,1.0205,0.9827,0.9835,0.9791,0.9701,0.9738,0.9807,0.9884,0.9888,0.9888,0.9888,0.9888,0.9864,0.9815,0.9648,0.9563,0.9551,0.9336,0.9208,0.9069,0.8637,0.8122,0.7525,0.7939,0.8207,0.8292,0.8514,0.8616,0.86,0.8203,0.8012,0.8008,0.7541,0.7248,0.7159,0.6926,0.6657,0.6359,0.6014,0.564,0.5189,0.469,0.0,0.0,0.0,0.0,0.0,0.0,0.0,0.0,0.0,0.4024,0.3464,0.0,0.423,0.0,0.4291,0.4422,0.4562,0.4365,0.0,0.0,0.4704,0.4796,0.5016,0.517,0.526,0.5413,0.562,0.581,0.5956,0.6108,0.6207,0.6242,0.6211,0.616,0.6051,0.6105,0.6201,0.6231,0.6196,0.6255,0.6289,0.63,0.6289,0.6248,0.6044,0.5851,0.5769,0.563,0.5501,0.5423,0.5395,0.5395,0.5395,0.5395,0.5375,0.5296,0.5162,0.5005,0.4864,0.4775,0.4709,1.2154,1.213,1.1882,1.1719,1.1618,1.1533,1.1451,1.1366,1.1269,1.1025,1.0692,1.068,1.0469,1.0152,1.0318,1.0306,1.0069,1.001,1.001,1.001,1.001,1.001,1.0006,0.9925,0.9888,0.988,0.9709,0.9624,0.962,0.9522,0.9437,0.9396,0.908,0.8653,0.8113,0.8304,0.8457,0.8457,0.8515,0.8616,0.86,0.8207,0.7979,0.7894,0.7464,0.7147,0.6985,0.682,0.6599,0.6391,0.6152,0.5839,0.5454,0.501,0.4601,0.0,0.0,0.0,0.0,0.0,0.0,0.0,0.0,0.0,0.0,0.0,0.4545,0.4653,0.4831,0.5058,0.5383,0.5119,0.5081,0.5442,0.5372,0.5352,0.5487,0.5614,0.5691,0.5776,0.5915,0.6037,0.6125,0.6248,0.63,0.63,0.63,0.6269,0.6162,0.621,0.63,0.63,0.63,0.63,0.63,0.63,0.63,0.6286,0.6132,0.5979,0.583,0.5684,0.5576,0.5429,0.5395,0.5395,0.5395,0.5395,0.5395,0.5382,0.5294,0.5182,0.5012,0.4918,0.486,1.2272,1.2239,1.1914,1.1837,1.1764,1.1602,1.1415,1.122,1.122,1.1025,1.07,1.0863,1.0761,1.0481,1.0603,1.0489,1.0253,1.0204,1.018,1.018,1.018,1.0188,1.0204,0.9969,0.99,0.9912,0.9721,0.9624,0.9624,0.9624,0.9547,0.9433,0.9261,0.9039,0.8811,0.8686,0.8633,0.8616,0.8616,0.8616,0.8608,0.8207,0.7943,0.7824,0.7403,0.7041,0.6729,0.6668,0.6558,0.6392,0.6265,0.6012,0.5624,0.5295,0.4954,0.0,0.443,0.0,0.0,0.0,0.0,0.0,0.0,0.0,0.0,0.4711,0.488,0.5194,0.551,0.588,0.6379,0.6084,0.5922,0.616,0.5994,0.5815,0.5674,0.5895,0.6057,0.6061,0.6176,0.6296,0.6293,0.63,0.63,0.63,0.63,0.6293,0.6296,0.6296,0.63,0.63,0.63,0.63,0.63,0.63,0.63,0.6286,0.6162,0.5969,0.5864,0.5718,0.5607,0.5467,0.5412,0.5395,0.5395,0.5395,0.5395,0.5395,0.5385,0.5341,0.5192,0.5096,0.5012,1.2081,1.1999,1.1861,1.1837,1.1772,1.174,1.1537,1.122,1.122,1.1021,1.07,1.0729,1.0708,1.0635,1.053,1.0395,1.0367,1.0071,0.9937,0.9937,0.9988,1.0014,1.02,1.002,1.0016,1.0135,0.9778,0.9624,0.9624,0.9624,0.9558,0.9571,0.9393,0.9218,0.9047,0.0,0.0,0.0,0.8616,0.8616,0.86,0.8203,0.8,0.7951,0.7375,0.0,0.6966,0.6653,0.6384,0.6241,0.6227,0.0,0.0,0.0,0.0,0.0,0.0,0.0,0.0,0.0,0.0,0.0,0.5515,0.5478,0.5193,0.57,0.5999,0.5931,0.6177,0.6325,0.6385,0.6256,0.6118,0.6108,0.6186,0.6154,0.5956,0.6108,0.6255,0.6259,0.6282,0.63,0.63,0.63,0.63,0.6306,0.63,0.63,0.6306,0.6306,0.63,0.63,0.63,0.63,0.63,0.63,0.63,0.6293,0.6282,0.6156,0.6003,0.5857,0.5718,0.5569,0.5477,0.5399,0.5399,0.5395,0.5395,0.5395,0.5395,0.5388,0.5354,0.5216,0.5079,1.2113,0.0,1.1849,1.1837,0.0,1.1837,1.1622,1.1354,1.1261,1.1021,1.07,1.0785,1.0729,1.0566,1.0566,1.0416,1.0152,0.9969,0.9839,0.9762,0.9847,1.0037,1.0208,0.9973,0.9981,1.0196,0.9799,0.9624,0.9624,0.9624,0.9624,0.9575,0.9441,0.9318,0.9096,0.8832,0.8653,0.8616,0.8616,0.8616,0.8604,0.8292,0.8065,0.7882,0.7452,0.0,0.0,0.0,0.0,0.0,0.0,0.0,0.0,0.0,0.0,0.551,0.5494,0.5535,0.5596,0.5685,0.583,0.6124,0.6347,0.6262,0.5878,0.629,0.6505,0.6424,0.6625,0.6749,0.6766,0.6659,0.658,0.6645,0.6618,0.6515,0.6346,0.6433,0.6496,0.6359,0.6361,0.6381,0.6306,0.63,0.6334,0.6395,0.6405,0.6433,0.6447,0.6392,0.63,0.63,0.63,0.63,0.63,0.63,0.63,0.63,0.63,0.6196,0.602,0.5929,0.5864,0.5722,0.5607,0.5508,0.5501,0.545,0.5395,0.5395,0.5395,0.5395,0.5392,0.533,0.5216,1.2154,1.1975,1.1833,1.1837,1.1837,1.1837,1.1654,1.1435,0.0,0.0,0.0,1.0854,1.0757,1.0493,1.0599,1.0387,0.9941,0.99,0.9795,0.9636,0.9807,0.9981,1.0204,0.9973,0.9981,1.0192,0.9799,0.9624,0.9624,0.9624,0.9624,0.9612,0.9474,0.9299,0.9088,0.8747,0.8616,0.8616,0.8616,0.8616,0.8608,0.8385,0.8134,0.7849,0.7637,0.7265,0.681,0.6757,0.6672,0.6522,0.6513,0.6428,0.6318,0.6273,0.6289,0.6229,0.6257,0.6343,0.6453,0.646,0.6595,0.6773,0.6955,0.6898,0.6538,0.6672,0.6804,0.6773,0.6975,0.7147,0.7257,0.7151,0.7101,0.7211,0.7091,0.6919,0.6731,0.6716,0.6675,0.6455,0.6484,0.6515,0.6409,0.6395,0.6419,0.6521,0.6555,0.6593,0.6634,0.6511,0.6351,0.6351,0.6327,0.63,0.63,0.63,0.63,0.63,0.63,0.6213,0.6108,0.601,0.5942,0.5864,0.5711,0.5603,0.5576,0.5494,0.5402,0.5395,0.5395,0.5395,0.5395,0.5395,0.5351,1.1967,1.1809,1.1788,1.1837,1.1837,1.1837,1.1581,1.1252,1.1078,1.0887,1.0696,1.072,1.0704,1.0651,1.0526,1.0343,1.0171,0.9961,0.9795,0.9636,0.9803,0.9981,1.02,1.0024,0.9981,1.0123,0.9799,0.9624,0.9624,0.9624,0.9624,0.9624,0.96,0.9421,0.9096,0.8788,0.8616,0.8616,0.8616,0.8616,0.8608,0.8385,0.8195,0.7979,0.7659,0.7382,0.7126,0.7033,0.6943,0.6914,0.691,0.6829,0.6649,0.6633,0.6538,0.6404,0.6563,0.6623,0.6678,0.682,0.6992,0.7131,0.7175,0.7098,0.6939,0.7041,0.7151,0.7155,0.7301,0.7453,0.7456,0.7586,0.7561,0.7398,0.7325,0.7252,0.7029,0.6853,0.6737,0.662,0.6651,0.6661,0.6624,0.662,0.662,0.6658,0.6685,0.6688,0.6692,0.6556,0.6494,0.6467,0.6375,0.631,0.63,0.63,0.63,0.63,0.63,0.6293,0.6259,0.6122,0.6,0.5966,0.5793,0.563,0.5599,0.5501,0.5419,0.5402,0.5395,0.5395,0.5395,0.5395,0.5382,1.1931,1.178,1.1837,1.1837,1.1837,1.1837,1.1565,1.1224,1.1139,1.0948,1.07,1.0692,1.0692,1.0684,1.0611,1.0481,1.0302,1.0119,0.9989,0.9929,0.9998,1.0132,1.029,1.0221,1.0176,1.02,0.9896,0.9717,0.9636,0.9624,0.9624,0.9571,0.9531,0.9352,0.9096,0.8836,0.8658,0.8616,0.8616,0.8616,0.8608,0.8526,0.8304,0.802,0.7849,0.7594,0.7203,0.7147,0.7054,0.6992,0.6984,0.6951,0.6865,0.6861,0.6869,0.6859,0.6936,0.7021,0.7106,0.7229,0.7314,0.7358,0.7362,0.7374,0.7433,0.7374,0.7407,0.7504,0.759,0.771,0.776,0.7849,0.7858,0.7728,0.7726,0.7608,0.733,0.7237,0.7038,0.6767,0.6776,0.6793,0.6712,0.6702,0.6739,0.6807,0.6839,0.6889,0.6932,0.681,0.6654,0.6505,0.6417,0.6385,0.632,0.63,0.63,0.63,0.63,0.63,0.6296,0.619,0.6162,0.6146,0.5969,0.5813,0.5732,0.5586,0.5508,0.5405,0.5395,0.5395,0.5395,0.5395,0.5365,1.1955,1.1837,1.1893,1.1893,1.1893,1.1893,1.162,1.1232,1.122,1.1025,1.0716,1.0692,1.0692,1.0692,1.0692,1.0599,1.0428,1.0245,1.0212,1.0212,1.0212,1.0262,1.0366,1.0383,1.0343,1.0208,1.0024,0.9799,0.9644,0.9624,0.9624,0.9608,0.9445,0.9314,0.9096,0.8913,0.8739,0.8624,0.8616,0.8616,0.8616,0.8616,0.8449,0.8105,0.8032,0.7801,0.7378,0.7305,0.722,0.7122,0.711,0.711,0.7106,0.7106,0.7139,0.7265,0.7281,0.7342,0.7506,0.7521,0.7588,0.7588,0.7581,0.7663,0.7784,0.7687,0.7659,0.7829,0.7853,0.787,0.7975,0.8052,0.8077,0.8077,0.803,0.7903,0.7659,0.7588,0.7446,0.6964,0.6905,0.6886,0.6834,0.68,0.6851,0.6923,0.7031,0.7092,0.7082,0.6994,0.6822,0.6664,0.6549,0.6468,0.6381,0.6354,0.6337,0.6313,0.63,0.63,0.6296,0.6296,0.6296,0.6272,0.6129,0.5986,0.5864,0.5698,0.5593,0.5481,0.5433,0.5395,0.5395,0.5395,0.5365,1.2022,1.1837,1.2062,1.2178,1.2182,1.2182,1.179,1.1252,1.122,1.1025,1.0716,1.0692,1.0692,1.0692,1.0692,1.0603,1.0436,1.0245,1.0216,1.0216,1.0212,1.0257,1.0412,1.0432,1.0339,1.0204,1.002,0.9795,0.9636,0.9624,0.9624,0.9604,0.949,0.9271,0.9096,0.8913,0.8739,0.862,0.8616,0.8616,0.8616,0.8616,0.8514,0.8272,0.8101,0.7923,0.7735,0.7549,0.7452,0.7435,0.7461,0.7465,0.7423,0.7469,0.7477,0.7456,0.7464,0.751,0.7535,0.7638,0.7775,0.7788,0.787,0.7955,0.7988,0.7975,0.7967,0.7996,0.7992,0.8004,0.8024,0.817,0.826,0.8272,0.8213,0.8154,0.8043,0.7779,0.7474,0.7423,0.7227,0.7065,0.7071,0.7061,0.7038,0.7048,0.7071,0.7095,0.7095,0.7075,0.7011,0.6898,0.6776,0.6627,0.6495,0.6491,0.6433,0.6334,0.63,0.63,0.63,0.63,0.63,0.6282,0.6152,0.6044,0.5952,0.58,0.561,0.5566,0.5511,0.5402,0.5395,0.5395,0.5375,1.2122,1.2005,1.201,1.2062,1.2178,1.2178,1.2031,1.1678,1.1326,1.1086,1.0858,1.0741,1.0692,1.0692,1.0692,1.0651,1.0566,1.0347,1.0221,1.0294,1.0103,1.0091,1.0262,1.0274,1.0176,1.0061,0.992,0.9795,0.9652,0.9624,0.9624,0.9571,0.9547,0.938,0.9116,0.9023,0.8848,0.8624,0.8616,0.8616,0.8616,0.8616,0.8522,0.8308,0.8215,0.804,0.7829,0.7722,0.7637,0.7535,0.7518,0.7518,0.7518,0.7518,0.7533,0.7677,0.7744,0.7797,0.7797,0.787,0.791,0.791,0.7975,0.8057,0.8166,0.8178,0.8215,0.8312,0.8243,0.8215,0.8321,0.841,0.8455,0.8463,0.8436,0.8384,0.8204,0.8025,0.7896,0.7724,0.7503,0.7323,0.7323,0.7187,0.7139,0.7095,0.7095,0.7095,0.7095,0.7095,0.7075,0.7021,0.6953,0.6819,0.6661,0.6522,0.6494,0.6429,0.6351,0.6303,0.63,0.63,0.63,0.63,0.6196,0.6115,0.5996,0.5922,0.5794,0.5739,0.5599,0.5508,0.5416,0.5395,0.5395,1.2414,1.2298,1.2251,1.2251,1.2354,1.2419,1.2316,1.1959,1.1537,1.1245,1.1016,1.0773,1.0692,1.0692,1.0692,1.0692,1.0651,1.0375,1.0306,1.0338,1.0103,1.0086,1.0204,1.0212,1.0114,0.9912,0.9888,0.9795,0.9644,0.9624,0.9624,0.9624,0.9624,0.9449,0.9133,0.9096,0.8922,0.8649,0.8616,0.8616,0.8616,0.8616,0.8547,0.8377,0.8312,0.8208,0.7959,0.7894,0.7808,0.7638,0.763,0.763,0.7626,0.7626,0.7691,0.7857,0.7939,0.8012,0.8012,0.8061,0.8089,0.8093,0.813,0.8219,0.8333,0.8408,0.8469,0.8563,0.8486,0.8426,0.858,0.8616,0.8616,0.8616,0.8616,0.8524,0.834,0.8248,0.8157,0.7984,0.7768,0.7595,0.7507,0.7279,0.7095,0.7095,0.7095,0.7095,0.7095,0.7095,0.7095,0.7095,0.7092,0.6991,0.6807,0.6644,0.6546,0.6487,0.6395,0.63,0.63,0.63,0.63,0.63,0.63,0.6272,0.6139,0.6078,0.5939,0.5833,0.5694,0.5607,0.5501,0.5443,0.5399,1.296,1.2719,1.3024,1.29,1.2724,1.2964,1.2678,1.2094,1.1769,1.1416,1.1024,1.0828,1.0692,1.0692,1.0692,1.0692,1.0668,1.0497,1.0354,1.0346,1.0217,1.0196,1.0212,1.0212,1.011,0.9872,0.986,0.9782,0.9632,0.9624,0.9624,0.9624,0.9624,0.9449,0.9157,0.91,0.8922,0.8669,0.862,0.8616,0.8616,0.8616,0.8608,0.8571,0.8385,0.8288,0.8235,0.8093,0.7992,0.7979,0.7967,0.7971,0.7979,0.7975,0.7983,0.8004,0.8016,0.8028,0.8057,0.8191,0.828,0.8296,0.8457,0.858,0.8567,0.8571,0.8588,0.8612,0.8592,0.8592,0.8608,0.8616,0.8616,0.8616,0.8616,0.8568,0.8568,0.8384,0.8248,0.8157,0.8028,0.7808,0.7547,0.7279,0.7143,0.7139,0.7095,0.7095,0.7095,0.7095,0.7095,0.7095,0.7088,0.7045,0.6896,0.679,0.6644,0.6566,0.6457,0.6306,0.63,0.63,0.63,0.63,0.63,0.6286,0.622,0.6135,0.6003,0.5867,0.5749,0.5633,0.5624,0.5487,0.544,1.302,1.2715,1.2844,1.29,1.302,1.29,1.2804,1.2715,1.2164,1.1765,1.1427,1.1099,1.0857,1.0692,1.0692,1.0692,1.0672,1.0459,1.0371,1.0249,1.0071,0.9925,0.9827,0.9819,0.9791,0.9734,0.9717,0.9689,0.9636,0.9624,0.9624,0.9624,0.9624,0.9502,0.9283,0.9149,0.897,0.8743,0.8669,0.8616,0.8616,0.8616,0.8616,0.8612,0.8551,0.841,0.8292,0.8223,0.8138,0.8016,0.8012,0.8012,0.8024,0.8126,0.8191,0.8203,0.83,0.8365,0.8377,0.8473,0.8514,0.8514,0.8567,0.8616,0.8616,0.8616,0.8616,0.8616,0.8616,0.8616,0.8616,0.8616,0.8616,0.8616,0.8616,0.8616,0.8612,0.8524,0.8476,0.8432,0.8252,0.8028,0.7768,0.7503,0.7367,0.7367,0.7231,0.7139,0.7095,0.7095,0.7095,0.7095,0.7095,0.7078,0.7041,0.6943,0.6797,0.6644,0.6508,0.6405,0.6344,0.6306,0.63,0.63,0.63,0.6296,0.6272,0.6259,0.6078,0.5986,0.5864,0.5779,0.5745,0.5606,0.5532,1.3144,1.29,1.296,1.3084,1.3204,1.3084,1.3084,1.3154,1.2543,1.2086,1.1784,1.1458,1.1131,1.0857,1.0857,1.0802,1.068,1.057,1.0424,1.0241,1.0063,0.988,0.9726,0.9603,0.9624,0.9628,0.9624,0.9604,0.9555,0.96,0.9596,0.9543,0.9592,0.9535,0.9412,0.9286,0.9068,0.8848,0.8706,0.8673,0.8624,0.8616,0.8616,0.8616,0.8616,0.8555,0.8381,0.8381,0.8329,0.8211,0.8191,0.8191,0.8207,0.8308,0.8377,0.8437,0.8539,0.8616,0.8616,0.8616,0.8612,0.8612,0.8616,0.8616,0.8616,0.8616,0.8616,0.8616,0.8616,0.8616,0.8616,0.8616,0.8616,0.8616,0.8616,0.8616,0.8616,0.8616,0.8616,0.8568,0.834,0.816,0.7981,0.7768,0.7591,0.7507,0.7323,0.7231,0.7139,0.7095,0.7095,0.7095,0.7095,0.7095,0.7075,0.6994,0.6875,0.6722,0.6583,0.6487,0.6371,0.633,0.6303,0.63,0.63,0.63,0.63,0.63,0.6203,0.6115,0.6017,0.5882,0.5847,0.5755,0.5694,1.3509,1.3264,1.3569,1.3444,1.3264,1.3444,1.3449,1.3196,1.278,1.2435,1.2091,1.1735,1.135,1.1126,1.1017,1.0911,1.0743,1.0672,1.057,1.04,1.0277,1.0094,0.991,0.9697,0.9624,0.9624,0.9624,0.9543,0.9465,0.9547,0.9551,0.9437,0.9555,0.9547,0.9416,0.9388,0.9216,0.8909,0.8812,0.8727,0.8637,0.8616,0.8616,0.8616,0.8616,0.8608,0.86,0.8596,0.858,0.8584,0.8575,0.8604,0.8567,0.8584,0.8604,0.8592,0.8612,0.8612,0.8616,0.8616,0.8616,0.8616,0.8616,0.8616,0.8616,0.8616,0.862,0.8645,0.8641,0.8589,0.8653,0.8669,0.8649,0.8616,0.8616,0.8616,0.8616,0.8616,0.8616,0.8568,0.8384,0.8204,0.8157,0.8028,0.7812,0.7635,0.7547,0.7411,0.7231,0.7187,0.7139,0.7095,0.7095,0.7095,0.7095,0.7075,0.6946,0.6783,0.6647,0.6552,0.6426,0.6358,0.633,0.6323,0.63,0.63,0.63,0.63,0.63,0.6186,0.6112,0.602,0.6,0.5928,0.5847,1.3629,1.3509,1.3384,1.3449,1.3504,1.3389,1.3389,1.3462,1.3128,1.2779,1.2359,1.1846,1.1404,1.1126,1.0907,1.0802,1.0692,1.0688,1.0707,1.07,1.0407,1.0226,1.0091,0.9759,0.9624,0.9624,0.9624,0.96,0.9559,0.96,0.9587,0.9567,0.9546,0.96,0.9531,0.9417,0.923,0.9027,0.8885,0.8739,0.8633,0.8616,0.8616,0.8616,0.8616,0.8616,0.8616,0.8616,0.8616,0.8616,0.8616,0.8616,0.8616,0.8616,0.8616,0.8616,0.8616,0.8616,0.8616,0.8616,0.8616,0.8616,0.8616,0.8616,0.8616,0.8624,0.8677,0.8718,0.8743,0.8779,0.8901,0.8934,0.8828,0.8641,0.8616,0.8633,0.8645,0.8633,0.8616,0.8616,0.8524,0.8476,0.8432,0.8256,0.8072,0.794,0.7852,0.7676,0.7455,0.7367,0.7279,0.7143,0.7139,0.7139,0.7095,0.7085,0.6987,0.6905,0.6783,0.662,0.6485,0.6443,0.6405,0.6344,0.632,0.63,0.63,0.63,0.63,0.63,0.62,0.6173,0.6207,0.6101,0.6,1.3688,1.3688,1.3509,1.3509,1.3688,1.3444,1.3504,1.3641,1.3334,1.3025,1.2719,1.2265,1.1799,1.1413,1.1131,1.0966,1.0857,1.0747,1.0853,1.1052,1.0665,1.0477,1.0323,0.9834,0.9624,0.9624,0.9624,0.9592,0.9531,0.9592,0.9596,0.9539,0.9592,0.9624,0.9575,0.9514,0.9368,0.9194,0.9019,0.884,0.8686,0.8645,0.8616,0.8616,0.8616,0.8616,0.8616,0.8616,0.8616,0.8616,0.8616,0.8616,0.8616,0.8616,0.8616,0.8616,0.8616,0.8616,0.8616,0.8616,0.8616,0.862,0.8669,0.8662,0.8678,0.8751,0.8824,0.8901,0.8926,0.897,0.9064,0.9092,0.8986,0.8845,0.8824,0.8808,0.8767,0.8763,0.8767,0.8771,0.8718,0.867,0.8613,0.85,0.83,0.8201,0.8069,0.794,0.7724,0.7639,0.7503,0.7323,0.7279,0.7231,0.7139,0.7078,0.7058,0.698,0.6939,0.677,0.661,0.6569,0.6573,0.6433,0.6371,0.6306,0.63,0.63,0.63,0.63,0.63,0.6279,0.6252,0.6228,0.6156,1.3688,1.3688,1.3688,1.3688,1.3688,1.3688,1.3688,1.3655,1.3466,1.3268,1.3084,1.273,1.2423,1.2,1.1641,1.1345,1.1126,1.0911,1.1126,1.1398,1.1209,1.086,1.0535,0.9996,0.9714,0.9677,0.9628,0.9547,0.9445,0.9559,0.9543,0.9494,0.9563,0.9624,0.9624,0.9571,0.9514,0.938,0.9185,0.9023,0.884,0.8674,0.8641,0.8641,0.8624,0.8616,0.8616,0.8616,0.8616,0.8616,0.8616,0.8616,0.8616,0.8616,0.8616,0.8616,0.8616,0.8616,0.8616,0.8605,0.8653,0.8617,0.8751,0.8787,0.8857,0.8954,0.9047,0.9104,0.9112,0.9125,0.9149,0.9169,0.9149,0.9129,0.9068,0.9047,0.908,0.9068,0.9031,0.9023,0.8942,0.8791,0.8791,0.8714,0.8569,0.8367,0.8327,0.8205,0.7989,0.7867,0.7786,0.7643,0.7459,0.7411,0.7319,0.7228,0.7207,0.7048,0.6984,0.6866,0.6746,0.6695,0.6651,0.6552,0.6429,0.6358,0.6313,0.6327,0.6313,0.63,0.63,0.63,0.6286,0.6262,0.6255,1.3688,1.3688,1.3688,1.3688,1.3688,1.3688,1.3688,1.3665,1.348,1.3362,1.323,1.2692,1.2399,1.2219,1.1795,1.1514,1.1459,1.1354,1.1514,1.1832,1.1796,1.1314,1.0758,1.0327,1.0042,0.9892,0.9723,0.9604,0.9559,0.96,0.96,0.9559,0.9592,0.9624,0.9624,0.9624,0.9531,0.9429,0.9367,0.9245,0.9027,0.8848,0.8759,0.8747,0.8645,0.8633,0.8616,0.8616,0.8616,0.8616,0.8616,0.8616,0.8624,0.8624,0.8637,0.8645,0.8633,0.8624,0.8649,0.869,0.8751,0.8767,0.8922,0.9019,0.9023,0.9068,0.9161,0.9294,0.9335,0.934,0.9445,0.947,0.9474,0.9453,0.9275,0.9129,0.912,0.9096,0.9096,0.9088,0.906,0.9031,0.9011,0.897,0.893,0.883,0.8768,0.8653,0.834,0.823,0.8162,0.7797,0.7591,0.7591,0.7503,0.7459,0.7319,0.7136,0.7048,0.6997,0.6846,0.678,0.6722,0.6634,0.6555,0.647,0.6419,0.6395,0.6358,0.6364,0.6351,0.6371,0.6327,0.6296,0.6303,1.3688,1.3688,1.3688,1.3688,1.3688,1.3688,1.3688,1.367,1.3575,1.3457,1.3329,1.2874,1.2561,1.2464,1.1991,1.1787,1.1732,1.1623,1.1728,1.2001,1.211,1.1713,1.1068,1.0649,1.0347,1.0134,0.9871,0.9776,0.9723,0.9677,0.9624,0.962,0.9624,0.9624,0.9624,0.9624,0.9579,0.9474,0.9449,0.9343,0.9202,0.9031,0.895,0.8922,0.8832,0.8837,0.8837,0.8796,0.8735,0.8657,0.8616,0.8597,0.8666,0.8674,0.871,0.882,0.8792,0.8837,0.8804,0.8885,0.893,0.8966,0.9104,0.9233,0.9226,0.9267,0.938,0.9449,0.947,0.9522,0.9592,0.9624,0.9624,0.9587,0.9441,0.9319,0.9319,0.9336,0.9324,0.9303,0.9254,0.9206,0.9202,0.9153,0.9108,0.9084,0.9013,0.888,0.8636,0.8615,0.8495,0.8136,0.7808,0.779,0.7646,0.751,0.7459,0.7279,0.7177,0.7092,0.697,0.6885,0.6795,0.6766,0.6647,0.66,0.6522,0.6502,0.6512,0.6502,0.6451,0.6434,0.6463,0.6399,0.6395,1.3688,1.3688,1.3688,1.3688,1.3688,1.3688,1.3688,1.3688,1.3674,1.358,1.3405,1.3173,1.2965,1.2786,1.2284,1.206,1.2005,1.1841,1.1896,1.206,1.2195,1.2054,1.1463,1.0997,1.0718,1.0492,1.0188,1.0068,1.0019,0.9821,0.9677,0.9677,0.9677,0.9628,0.9628,0.9624,0.9624,0.9587,0.9478,0.9461,0.9356,0.9218,0.9129,0.9112,0.906,0.9039,0.9047,0.9047,0.8946,0.8686,0.8665,0.8718,0.8836,0.8848,0.8913,0.9023,0.9039,0.9047,0.9084,0.9084,0.9125,0.9149,0.9283,0.9429,0.9409,0.9494,0.9575,0.9587,0.9624,0.9612,0.962,0.9624,0.9624,0.962,0.9604,0.9616,0.9624,0.9624,0.9624,0.962,0.947,0.9449,0.9392,0.9263,0.9165,0.9295,0.9263,0.9127,0.8965,0.8881,0.8748,0.8466,0.8207,0.7989,0.7801,0.7606,0.751,0.7415,0.7279,0.721,0.7105,0.6974,0.693,0.6859,0.6803,0.6742,0.6712,0.6705,0.6685,0.6651,0.6583,0.6627,0.6664,0.659,0.6502,1.3688,1.3688,1.3688,1.3688,1.3688,1.3688,1.3688,1.3688,1.3688,1.366,1.3542,1.323,1.3108,1.3032,1.2505,1.2332,1.2273,1.2219,1.2278,1.2332,1.2332,1.2255,1.1905,1.144,1.1132,1.0897,1.0479,1.0319,1.0265,1.0216,1.0117,0.9924,0.9875,0.9821,0.9677,0.9628,0.9624,0.962,0.9579,0.9555,0.9522,0.9393,0.9347,0.9335,0.9185,0.9116,0.9096,0.9096,0.9056,0.9003,0.8986,0.9007,0.9027,0.9035,0.9076,0.9116,0.912,0.9112,0.9125,0.923,0.9299,0.9367,0.9441,0.9567,0.9567,0.9592,0.9624,0.9624,0.9624,0.9624,0.9624,0.9624,0.9624,0.9624,0.9616,0.9612,0.9624,0.9624,0.9624,0.9616,0.9592,0.9567,0.9559,0.9522,0.9482,0.9457,0.9421,0.934,0.9252,0.9151,0.9004,0.8761,0.8486,0.8272,0.8155,0.7893,0.7704,0.7631,0.7521,0.7323,0.7217,0.7119,0.7105,0.7017,0.6927,0.6879,0.6878,0.6797,0.6756,0.6732,0.6729,0.6763,0.677,0.6692,0.6651,1.3688,1.3688,1.3688,1.3688,1.3688,1.3688,1.3688,1.3688,1.3688,1.3688,1.3599,1.3307,1.3069,1.3027,1.2644,1.2382,1.2382,1.2382,1.2382,1.2382,1.2382,1.233,1.2217,1.1895,1.1568,1.1249,1.0916,1.0717,1.0587,1.0462,1.0314,1.0167,1.0068,0.9924,0.9776,0.9677,0.9624,0.9624,0.9624,0.9624,0.9604,0.9539,0.9482,0.9474,0.9393,0.9348,0.9352,0.9352,0.9352,0.9348,0.934,0.9299,0.923,0.9269,0.9259,0.9332,0.9344,0.9344,0.938,0.9425,0.9482,0.9478,0.9579,0.9608,0.9624,0.9624,0.9624,0.9624,0.9624,0.9624,0.9624,0.9624,0.9624,0.9608,0.9551,0.9506,0.951,0.9567,0.9624,0.9624,0.962,0.9616,0.9624,0.9624,0.962,0.9563,0.9563,0.9482,0.9445,0.9344,0.9255,0.9048,0.8769,0.8574,0.8452,0.8253,0.7975,0.7878,0.7782,0.7572,0.7408,0.7319,0.7224,0.7136,0.7001,0.7014,0.6967,0.6922,0.6881,0.6929,0.6943,0.6915,0.6885,0.6854,0.6827,1.3688,1.3688,1.3688,1.3688,1.3688,1.3688,1.3688,1.3688,1.3688,1.3688,1.3608,1.3312,1.3065,1.2975,1.2625,1.2396,1.2382,1.2382,1.2382,1.2382,1.2382,1.2372,1.2311,1.2175,1.1906,1.1587,1.1267,1.1057,1.0897,1.0668,1.0556,1.0458,1.0261,1.0167,1.0019,0.9826,0.9677,0.9727,0.9628,0.9624,0.9624,0.9612,0.9604,0.9596,0.9587,0.9575,0.9567,0.9579,0.9604,0.9624,0.9624,0.9543,0.9445,0.9453,0.9453,0.9608,0.9583,0.9567,0.9559,0.9596,0.9608,0.9624,0.9624,0.9624,0.9624,0.9624,0.9624,0.9624,0.9624,0.9624,0.9624,0.9624,0.9612,0.9563,0.9486,0.9408,0.9396,0.9458,0.9502,0.9567,0.9547,0.9543,0.9596,0.9624,0.9624,0.9624,0.9624,0.9616,0.9575,0.9535,0.9445,0.9316,0.8993,0.8691,0.8594,0.8671,0.8383,0.82,0.8121,0.7886,0.7711,0.7622,0.7537,0.7197,0.7075,0.7122,0.7119,0.7018,0.7018,0.7092,0.7071,0.7001,0.698,0.698,0.6947,1.3688,1.3688,1.3688,1.3688,1.3688,1.3688,1.3688,1.3688,1.3688,1.3688,1.3632,1.3258,1.3065,1.2956,1.2625,1.2396,1.2382,1.2382,1.2382,1.2382,1.2382,1.2382,1.2368,1.2325,1.2175,1.1944,1.1644,1.1433,1.1316,1.1199,1.0932,1.0761,1.0659,1.056,1.0314,1.0068,0.9924,0.9875,0.9776,0.9673,0.9673,0.9628,0.9624,0.9624,0.9624,0.9624,0.9624,0.9624,0.9624,0.9624,0.9624,0.9608,0.9571,0.9563,0.9587,0.9616,0.9624,0.9624,0.9624,0.9624,0.9624,0.9624,0.9624,0.9624,0.9624,0.9624,0.9624,0.9624,0.9624,0.9624,0.9624,0.9624,0.9543,0.9449,0.9364,0.9331,0.9185,0.9169,0.925,0.934,0.938,0.9453,0.9522,0.9596,0.9624,0.9624,0.9624,0.9624,0.9608,0.9596,0.9575,0.9401,0.9179,0.8914,0.8722,0.8859,0.8819,0.8664,0.8506,0.8337,0.8159,0.8034,0.7858,0.7503,0.7255,0.7224,0.7183,0.7143,0.7139,0.7139,0.7139,0.7095,0.7065,0.7034,0.7048,1.3688,1.3688,1.3688,1.3688,1.3688,1.3688,1.3688,1.3688,1.3688,1.3688,1.3566,1.3268,1.3065,1.2956,1.2625,1.2387,1.2382,1.2382,1.2382,1.2382,1.2382,1.2382,1.2382,1.2382,1.2335,1.218,1.1987,1.1709,1.1479,1.1425,1.1203,1.1012,1.0904,1.0708,1.0556,1.0359,1.0216,1.0171,0.9969,0.9821,0.9772,0.9677,0.9628,0.9624,0.9624,0.9624,0.9624,0.9624,0.9624,0.9624,0.9624,0.9624,0.9624,0.9624,0.9624,0.9624,0.9624,0.9624,0.9624,0.9624,0.9624,0.9624,0.9624,0.9624,0.9624,0.9624,0.9624,0.9624,0.9624,0.9624,0.9624,0.9624,0.9535,0.9437,0.9335,0.9157,0.8999,0.8897,0.897,0.9116,0.9298,0.9356,0.9453,0.9527,0.9604,0.9624,0.9624,0.9624,0.9624,0.9624,0.9628,0.9493,0.9327,0.9207,0.9005,0.906,0.9187,0.9076,0.8938,0.8718,0.8571,0.8421,0.8162,0.7851,0.7606,0.7507,0.7367,0.7367,0.7231,0.7143,0.7143,0.7139,0.7139,0.7095,0.7095,1.3688,1.3688,1.3688,1.3688,1.3688,1.3688,1.3688,1.3688,1.3688,1.3688,1.3632,1.3273,1.3065,1.2956,1.2677,1.2382,1.2382,1.2382,1.2382,1.2382,1.2382,1.2382,1.2382,1.2382,1.2372,1.233,1.2212,1.1954,1.1676,1.1543,1.1411,1.1213,1.0999,1.0904,1.0801,1.0605,1.0511,1.0413,1.0216,1.0068,0.992,0.9776,0.9628,0.9624,0.9624,0.9624,0.9624,0.9624,0.9624,0.9624,0.9624,0.9624,0.9624,0.9624,0.9624,0.9624,0.9624,0.9624,0.9624,0.9624,0.9624,0.9624,0.9624,0.9624,0.9624,0.9624,0.9624,0.9624,0.9624,0.9624,0.9624,0.9624,0.9535,0.9437,0.9234,0.9088,0.8942,0.884,0.8792,0.8942,0.9171,0.9314,0.9364,0.9441,0.9518,0.962,0.9624,0.9624,0.9624,0.9624,0.9579,0.9529,0.946,0.9456,0.9327,0.9251,0.9328,0.9361,0.926,0.9092,0.891,0.8741,0.8463,0.8223,0.8124,0.7992,0.7771,0.7551,0.7544,0.7452,0.7275,0.7187,0.7279,0.7187,0.7143,1.3688,1.3688,1.3688,1.3688,1.3688,1.3688,1.3688,1.3688,1.3688,1.3688,1.3665,1.3321,1.3117,1.2932,1.2621,1.2396,1.2382,1.2382,1.2382,1.2382,1.2382,1.2382,1.2382,1.2382,1.2382,1.2382,1.2349,1.2227,1.1963,1.1713,1.152,1.1394,1.1248,1.1149,1.1047,1.0855,1.0757,1.0708,1.0511,1.0265,1.0023,0.9974,0.9826,0.9677,0.9628,0.9628,0.9628,0.9628,0.9624,0.9628,0.9628,0.9624,0.9624,0.9624,0.9624,0.9624,0.9624,0.9624,0.9624,0.9624,0.9624,0.9624,0.9624,0.9624,0.9624,0.9624,0.9624,0.9624,0.9624,0.9624,0.9624,0.9624,0.9531,0.9429,0.9359,0.9202,0.9064,0.8913,0.8852,0.882,0.9019,0.9212,0.9335,0.9356,0.9433,0.9543,0.9624,0.9624,0.9624,0.9624,0.9624,0.9579,0.9579,0.9529,0.9525,0.9469,0.9449,0.9547,0.9449,0.9381,0.9176,0.8968,0.8874,0.8663,0.8548,0.8348,0.808,0.79,0.7852,0.772,0.7544,0.7459,0.7459,0.7367,0.7231,1.3688,1.3688,1.3688,1.3688,1.3688,1.3688,1.3688,1.3688,1.3688,1.3688,1.3608,1.3307,1.2947,1.2729,1.2443,1.2387,1.2382,1.2382,1.2382,1.2382,1.2382,1.2382,1.2382,1.2382,1.2382,1.2382,1.2382,1.2354,1.2161,1.1963,1.1733,1.1479,1.1425,1.1312,1.1246,1.1105,1.1047,1.0949,1.0752,1.0458,1.0265,1.0068,0.9969,0.9826,0.9677,0.9677,0.9776,0.9677,0.9673,0.9723,0.9727,0.9624,0.9624,0.9624,0.9624,0.9624,0.9624,0.9624,0.9624,0.9624,0.9624,0.9624,0.9624,0.9624,0.9624,0.9624,0.9624,0.9624,0.9624,0.9624,0.9624,0.9624,0.9518,0.9425,0.9433,0.9283,0.9177,0.908,0.8982,0.8938,0.8913,0.9068,0.9261,0.9367,0.9416,0.9409,0.9522,0.9583,0.9604,0.9624,0.9624,0.9628,0.9579,0.9579,0.9579,0.9554,0.953,0.9575,0.9518,0.9433,0.9348,0.9202,0.9015,0.8844,0.8637,0.8468,0.8264,0.8164,0.8072,0.7944,0.7816,0.7724,0.7635,0.7503,0.7411,1.3688,1.3688,1.3688,1.3688,1.3688,1.3688,1.3688,1.3688,1.3688,1.3688,1.358,1.3254,1.2862,1.2569,1.2429,1.2382,1.2382,1.2382,1.2382,1.2382,1.2382,1.2382,1.2382,1.2382,1.2382,1.2382,1.2382,1.2372,1.2335,1.2203,1.1958,1.1629,1.1633,1.1529,1.1392,1.1316,1.1234,1.1145,1.0998,1.0752,1.0511,1.0314,1.0167,0.9969,0.9821,0.9776,0.992,0.9821,0.9821,1.0019,0.9871,0.9772,0.9727,0.9677,0.9628,0.9624,0.9624,0.9624,0.9624,0.9624,0.9624,0.9624,0.9624,0.9624,0.9624,0.9624,0.9624,0.9624,0.9624,0.9624,0.9624,0.9624,0.9571,0.9498,0.9445,0.934,0.9254,0.9202,0.9153,0.912,0.9072,0.8999,0.9145,0.9322,0.9371,0.9359,0.9393,0.9518,0.9559,0.9583,0.9612,0.9612,0.9616,0.9612,0.9612,0.9608,0.96,0.9551,0.949,0.9458,0.9279,0.9129,0.8954,0.88,0.867,0.8613,0.8436,0.834,0.8248,0.8208,0.8124,0.79,0.7812,0.768,0.7591,1.3688,1.3688,1.3688,1.3688,1.3688,1.3688,1.3688,1.3688,1.3688,1.3679,1.3603,1.3258,1.2998,1.2724,1.2526,1.2382,1.2382,1.2382,1.2382,1.2382,1.2382,1.2382,1.2382,1.2382,1.2382,1.2382,1.2382,1.2382,1.2382,1.2354,1.2198,1.2048,1.1888,1.1813,1.168,1.1515,1.1373,1.1269,1.1168,1.1002,1.085,1.0654,1.0507,1.0117,1.0019,0.9969,1.0019,0.9969,1.0068,1.0314,1.0117,0.9969,0.9924,0.9776,0.9677,0.9677,0.9624,0.9624,0.9624,0.9624,0.9624,0.9624,0.9624,0.9624,0.9624,0.9624,0.9624,0.9624,0.9624,0.9624,0.9624,0.962,0.96,0.9575,0.9535,0.9514,0.9441,0.9384,0.934,0.9351,0.9286,0.9153,0.91,0.9286,0.9343,0.9335,0.9352,0.9474,0.947,0.9494,0.9563,0.9592,0.9596,0.9596,0.9587,0.9555,0.9466,0.9376,0.9328,0.9246,0.912,0.8982,0.8881,0.8792,0.8674,0.8661,0.8645,0.8581,0.8556,0.8512,0.8396,0.8203,0.8047,0.7984,0.7812,1.3688,1.3688,1.3688,1.3688,1.3688,1.3688,1.3688,1.3688,1.3688,1.3608,1.3499,1.3197,1.3013,1.2753,1.255,1.2382,1.2382,1.2382,1.2382,1.2382,1.2382,1.2382,1.2382,1.2382,1.2382,1.2382,1.2382,1.2382,1.2382,1.2382,1.2358,1.2217,1.2048,1.194,1.1803,1.1666,1.1501,1.1397,1.1274,1.1154,1.1051,1.0855,1.0708,1.0511,1.0314,1.0359,1.0458,1.031,1.0413,1.0511,1.0364,1.0265,1.0216,0.9974,0.9875,0.9826,0.9723,0.9628,0.9624,0.9624,0.9624,0.9624,0.9624,0.9624,0.9624,0.9624,0.9624,0.9624,0.9624,0.9624,0.9624,0.9624,0.962,0.9624,0.9624,0.9624,0.9592,0.9518,0.9494,0.9445,0.9412,0.9322,0.9277,0.9261,0.9294,0.9271,0.9348,0.9405,0.9461,0.9486,0.9518,0.9535,0.9531,0.9502,0.9486,0.9453,0.9359,0.9261,0.912,0.9031,0.895,0.8922,0.8783,0.8747,0.8727,0.8727,0.8759,0.884,0.8804,0.8625,0.8557,0.85,0.8367,0.8252,0.8072,1.3688,1.3688,1.3688,1.3688,1.3688,1.3688,1.3688,1.3688,1.3688,1.3618,1.3457,1.3202,1.3055,1.287,1.2559,1.2387,1.2382,1.2382,1.2382,1.2382,1.2382,1.2382,1.2382,1.2382,1.2382,1.2382,1.2382,1.2382,1.2382,1.2382,1.2372,1.2325,1.225,1.2148,1.2025,1.1813,1.1676,1.1576,1.1482,1.1331,1.1272,1.1154,1.0896,1.078,1.0609,1.0609,1.0654,1.0605,1.0659,1.0757,1.0708,1.056,1.0413,1.0314,1.0122,0.9974,0.9871,0.9677,0.9628,0.9624,0.9624,0.9624,0.9624,0.9624,0.9624,0.9624,0.9624,0.9624,0.9624,0.9624,0.9624,0.9624,0.9624,0.9624,0.9624,0.9624,0.9624,0.9579,0.9592,0.9579,0.9498,0.9482,0.9421,0.9376,0.9283,0.9299,0.9319,0.9372,0.9441,0.9482,0.9502,0.949,0.9445,0.9453,0.9408,0.9273,0.9096,0.9061,0.8926,0.8848,0.8783,0.8779,0.8763,0.8779,0.8792,0.8844,0.8885,0.8917,0.8828,0.8702,0.8641,0.8569,0.8404,0.8248,0.8292,1.3688,1.3688,1.3688,1.3688,1.3688,1.3688,1.3688,1.3688,1.3688,1.3679,1.3603,1.3268,1.3136,1.2956,1.2644,1.2434,1.2382,1.2382,1.2382,1.2382,1.2382,1.2382,1.2382,1.2382,1.2382,1.2382,1.2382,1.2382,1.2382,1.2382,1.2382,1.2382,1.234,1.2321,1.2335,1.2161,1.1963,1.1789,1.1789,1.1647,1.1493,1.1436,1.1174,1.0992,1.0864,1.0855,1.085,1.085,1.09,1.0998,1.09,1.0801,1.0757,1.0511,1.0314,1.0117,1.0019,0.9871,0.9628,0.9628,0.9624,0.9624,0.9624,0.9624,0.9624,0.9624,0.9624,0.9624,0.9624,0.9624,0.9624,0.9624,0.9624,0.9624,0.9624,0.9624,0.9624,0.9624,0.9624,0.9624,0.9624,0.9612,0.9608,0.9563,0.9401,0.934,0.9324,0.9388,0.9429,0.9453,0.9466,0.9453,0.9397,0.9429,0.9351,0.9039,0.8889,0.8808,0.8751,0.8702,0.8686,0.8706,0.8739,0.8779,0.884,0.8889,0.893,0.8966,0.8873,0.8775,0.8637,0.8544,0.8388,0.834,0.8384,1.3688,1.3688,1.3688,1.3688,1.3688,1.3688,1.3688,1.3688,1.3688,1.3688,1.3636,1.3386,1.3188,1.3013,1.28,1.2578,1.2405,1.2382,1.2382,1.2382,1.2382,1.2382,1.2382,1.2382,1.2382,1.2382,1.2382,1.2382,1.2382,1.2382,1.2382,1.2382,1.2382,1.2382,1.2325,1.2198,1.2029,1.1958,1.1855,1.1775,1.1713,1.1605,1.145,1.1261,1.1145,1.1084,1.1075,1.1025,1.1114,1.1198,1.1047,1.1047,1.0998,1.0801,1.0605,1.0413,1.0265,0.9871,0.9673,0.9624,0.9624,0.9624,0.9624,0.9624,0.9624,0.9624,0.9624,0.9624,0.9624,0.9624,0.9624,0.9624,0.9624,0.9624,0.9624,0.9624,0.9624,0.9624,0.9624,0.9624,0.9624,0.9624,0.9624,0.9624,0.9502,0.947,0.9466,0.9405,0.9461,0.9433,0.9449,0.9445,0.942,0.9412,0.9318,0.9039,0.8877,0.882,0.8718,0.8661,0.8621,0.8658,0.867,0.8706,0.882,0.8926,0.8946,0.8954,0.8938,0.8857,0.8678,0.8616,0.8524,0.8476,0.8524,1.3688,1.3688,1.3688,1.3688,1.3688,1.3688,1.3688,1.3688,1.3688,1.3688,1.3646,1.348,1.3325,1.3188,1.2946,1.272,1.255,1.241,1.2382,1.2382,1.2382,1.2382,1.2382,1.2382,1.2382,1.2382,1.2382,1.2382,1.2382,1.2382,1.2382,1.2382,1.2382,1.2382,1.2344,1.226,1.2203,1.2161,1.2129,1.2025,1.1935,1.177,1.1713,1.1563,1.1455,1.1401,1.1335,1.1293,1.1269,1.1227,1.1194,1.1194,1.1145,1.1047,1.09,1.0708,1.0314,0.9969,0.9821,0.9628,0.9628,0.9624,0.9624,0.9624,0.9624,0.9624,0.9624,0.9624,0.9624,0.9624,0.9624,0.9624,0.9624,0.9624,0.9624,0.9624,0.9624,0.9624,0.9624,0.9624,0.9624,0.9624,0.9624,0.9624,0.9587,0.96,0.9616,0.9535,0.9462,0.9441,0.9469,0.9425,0.9441,0.942,0.9322,0.9076,0.8934,0.8791,0.8723,0.8645,0.8617,0.8662,0.8645,0.8714,0.8848,0.897,0.8946,0.893,0.8886,0.8804,0.8698,0.8629,0.8616,0.8616,0.8616,1.3753,1.3753,1.3748,1.3803,1.3808,1.3808,1.3748,1.3688,1.3688,1.3688,1.3674,1.3495,1.3367,1.3282,1.2956,1.2813,1.2668,1.2452,1.2405,1.2382,1.2382,1.2382,1.2382,1.2382,1.2382,1.2382,1.2382,1.2382,1.2382,1.2382,1.2382,1.2382,1.2382,1.2382,1.2368,1.2354,1.233,1.2307,1.2283,1.2189,1.2095,1.2034,1.1907,1.185,1.1742,1.1638,1.1557,1.1487,1.1383,1.1298,1.1208,1.1198,1.1194,1.1194,1.1051,1.0757,1.031,1.0162,0.9969,0.9821,0.9677,0.9677,0.9624,0.9624,0.9624,0.9624,0.9624,0.9624,0.9624,0.9624,0.9624,0.9624,0.9624,0.9624,0.9624,0.9624,0.9624,0.9624,0.9624,0.9624,0.9624,0.9624,0.9624,0.9624,0.9624,0.9624,0.9624,0.9612,0.9555,0.9567,0.9547,0.9543,0.9494,0.9449,0.9279,0.9165,0.9031,0.895,0.8759,0.8641,0.8662,0.8658,0.8649,0.8718,0.893,0.8986,0.8857,0.88,0.8755,0.8729,0.8981,0.8712,0.8744,0.8612,0.8616,1.4217,1.5041,1.5041,1.5159,1.5224,1.4401,1.3928,1.3753,1.3688,1.3688,1.3688,1.3632,1.3433,1.3212,1.3032,1.2805,1.2616,1.2424,1.2396,1.2382,1.2382,1.2382,1.2382,1.2382,1.2382,1.2382,1.2382,1.2382,1.2382,1.2382,1.2382,1.2382,1.2382,1.2382,1.2382,1.2382,1.2382,1.2382,1.2382,1.234,1.226,1.217,1.2071,1.1996,1.1874,1.1827,1.1746,1.1614,1.151,1.1444,1.1274,1.1208,1.1194,1.1194,1.1096,1.0855,1.0609,1.0507,1.031,1.0019,0.9887,0.985,0.9751,0.9628,0.9624,0.964,0.964,0.9624,0.9624,0.9624,0.9624,0.9624,0.9624,0.9624,0.9624,0.9624,0.9624,0.9624,0.9624,0.9624,0.9624,0.9624,0.9624,0.9624,0.9624,0.9624,0.9624,0.9624,0.9624,0.9624,0.9624,0.9612,0.9592,0.9498,0.9458,0.9364,0.9202,0.9047,0.8873,0.871,0.8649,0.8645,0.8645,0.871,0.8828,0.8787,0.8714,0.8697,0.8754,0.9367,0.9611,0.9174,0.8828,0.8872,0.87,1.4971,1.5956,1.62,1.6397,1.6397,1.5758,1.5165,1.4575,1.3983,1.3688,1.3679,1.3594,1.3429,1.3211,1.3079,1.2805,1.2602,1.2434,1.2382,1.2382,1.2382,1.2382,1.2382,1.2382,1.2382,1.2382,1.2382,1.2382,1.2382,1.2382,1.2382,1.2382,1.2382,1.2382,1.2382,1.2382,1.2382,1.2382,1.2382,1.2382,1.233,1.226,1.2227,1.217,1.2038,1.203,1.1935,1.1789,1.1732,1.1652,1.1472,1.1449,1.142,1.1387,1.1281,1.1073,1.0838,1.0721,1.0569,1.0406,1.027,1.015,1.0042,0.9953,0.9828,0.9754,0.9681,0.9624,0.9624,0.9624,0.9624,0.9624,0.9624,0.9624,0.9624,0.9624,0.9624,0.9624,0.9624,0.9624,0.9624,0.9624,0.9624,0.9624,0.9624,0.9624,0.9624,0.9624,0.9624,0.9624,0.9624,0.962,0.962,0.9592,0.9555,0.9494,0.9336,0.9177,0.9051,0.8889,0.8735,0.8662,0.8735,0.8718,0.8706,0.8794,0.9112,0.885,0.8903,0.9683,1.0332,0.999,0.9689,0.9559,0.9262,1.5869,1.6712,1.7286,1.7505,1.7554,1.736,1.6815,1.5961,1.4703,1.3889,1.3791,1.3535,1.3362,1.3164,1.2994,1.2776,1.2616,1.2498,1.2382,1.2382,1.2382,1.2382,1.2382,1.2382,1.2382,1.2382,1.2382,1.2382,1.2382,1.2382,1.2382,1.2382,1.2382,1.2382,1.2382,1.2382,1.2382,1.2382,1.2382,1.2382,1.2382,1.2372,1.2382,1.2368,1.2325,1.2288,1.2151,1.2057,1.1996,1.186,1.1803,1.1779,1.1709,1.1633,1.1507,1.146,1.1161,1.107,1.0934,1.0814,1.0665,1.0582,1.0527,1.0385,1.019,0.9943,0.9819,0.9795,0.9815,0.9815,0.9815,0.9811,0.9803,0.9754,0.9717,0.9677,0.9632,0.9632,0.9624,0.9624,0.9624,0.9624,0.9624,0.9624,0.9624,0.9624,0.9624,0.9624,0.9624,0.9624,0.9624,0.9624,0.9624,0.9624,0.9596,0.9527,0.9473,0.9347,0.919,0.906,0.8897,0.8812,0.8792,0.8945,0.913,0.9454,0.966,0.9565,0.9881,1.0796,1.1198,1.0852,1.0636,1.0549,1.0164,1.688,1.7958,1.8318,1.8614,1.868,1.7815,1.7204,1.6743,1.6402,1.53,1.402,1.3552,1.3211,1.2998,1.2885,1.2682,1.2526,1.2493,1.2391,1.2382,1.2382,1.2382,1.2436,1.255,1.2436,1.2382,1.2382,1.2436,1.2382,1.2382,1.2382,1.2382,1.2382,1.2382,1.2382,1.2382,1.2382,1.2382,1.2382,1.2382,1.2382,1.2382,1.2382,1.2382,1.2368,1.2368,1.2255,1.2156,1.209,1.1996,1.1888,1.1827,1.1803,1.177,1.1751,1.1737,1.1573,1.1466,1.1425,1.1327,1.1171,1.1034,1.0876,1.0672,1.0435,1.0222,1.0086,1.0082,1.0065,1.0057,1.0049,1.0037,0.9965,0.9888,0.9803,0.9726,0.9648,0.9632,0.9628,0.9624,0.9624,0.9624,0.9624,0.9624,0.9624,0.9624,0.9624,0.9624,0.9624,0.9624,0.9624,0.9624,0.9624,0.962,0.9604,0.9579,0.9494,0.9473,0.9332,0.9198,0.9051,0.9084,0.9167,0.9478,0.9777,1.0159,1.0549,1.0771,1.1246,1.1972,1.2057,1.1757,1.1972,1.2015,1.1499,1.7836,1.88,1.9141,1.9416,1.9548,1.8926,1.8361,1.7842,1.7673,1.669,1.5077,1.4267,1.3584,1.3007,1.2728,1.2647,1.2446,1.2387,1.2382,1.2382,1.2382,1.2382,1.2491,1.2822,1.2822,1.2767,1.2659,1.2604,1.2436,1.2382,1.2382,1.2382,1.2382,1.2382,1.2382,1.2382,1.2382,1.2382,1.2382,1.2382,1.2382,1.2382,1.2382,1.2382,1.2382,1.2382,1.2358,1.2269,1.2245,1.2208,1.2167,1.2081,1.2043,1.202,1.1968,1.1926,1.1822,1.1817,1.1799,1.1746,1.164,1.144,1.1429,1.1274,1.1136,1.0916,1.0609,1.0584,1.0578,1.0557,1.0402,1.0341,1.0178,1.0077,0.9947,0.9782,0.9693,0.9628,0.9624,0.9624,0.9624,0.9624,0.9624,0.9624,0.9624,0.9624,0.9624,0.9624,0.9624,0.9624,0.9624,0.9624,0.9624,0.9624,0.962,0.9608,0.9579,0.9518,0.9458,0.9303,0.9184,0.9392,0.9571,0.9932,1.0405,1.1025,1.1413,1.1671,1.2314,1.3009,1.2918,1.2705,1.3009,1.3222,1.2833,1.8635,1.9389,1.9601,1.9916,2.0146,2.0139,1.9619,1.8961,1.8672,1.7889,1.6683,1.5465,1.4405,1.3622,1.2974,1.2747,1.2599,1.2599,1.2545,1.2382,1.2382,1.2382,1.2762,1.3251,1.3147,1.3147,1.3093,1.2822,1.255,1.2436,1.2382,1.2382,1.2382,1.2382,1.2382,1.2382,1.2382,1.2382,1.2382,1.2382,1.2382,1.2382,1.2382,1.2382,1.2382,1.2382,1.2382,1.2382,1.2377,1.2363,1.233,1.2311,1.2274,1.2184,1.22,1.209,1.2015,1.1997,1.193,1.2048,1.1935,1.1893,1.1986,1.1878,1.1655,1.1472,1.1206,1.1119,1.1116,1.0971,1.0819,1.0657,1.0496,1.0321,1.0121,0.9914,0.9762,0.9669,0.9661,0.9652,0.9628,0.9628,0.9624,0.9624,0.9624,0.9624,0.9624,0.9624,0.9624,0.9624,0.9624,0.9624,0.9624,0.9624,0.9624,0.962,0.9612,0.96,0.9527,0.938,0.9385,0.9753,1.0099,1.0397,1.093,1.1835,1.2258,1.2491,1.3179,1.3786,1.361,1.3355,1.3525,1.3743,1.3913,1.9273,1.9705,1.9514,1.9696,2.0081,1.9959,1.9742,1.9635,1.9513,1.8847,1.7835,1.7291,1.6421,1.535,1.4509,1.4099,1.3732,1.33,1.2659,1.2441,1.2495,1.2441,1.2654,1.3305,1.3202,1.3418,1.3684,1.3472,1.2985,1.2599,1.2382,1.2382,1.2382,1.2382,1.2382,1.2382,1.2382,1.2382,1.2382,1.2382,1.2382,1.2382,1.2382,1.2382,1.2382,1.2382,1.2382,1.2382,1.2382,1.2382,1.2382,1.2382,1.2363,1.233,1.2302,1.2274,1.2198,1.2194,1.2208,1.2241,1.2166,1.2175,1.2159,1.2055,1.1887,1.1882,1.1733,1.1733,1.1661,1.15,1.1343,1.1127,1.0949,1.0674,1.0466,1.0137,0.9951,0.9823,0.9778,0.9709,0.9591,0.9632,0.9624,0.9624,0.9624,0.9624,0.9624,0.9624,0.9624,0.9624,0.9624,0.9624,0.9624,0.9624,0.9624,0.9624,0.962,0.9624,0.9596,0.9458,0.9648,1.0321,1.0664,1.1005,1.191,1.2934,1.3213,1.3272,1.3525,1.3955,1.3997,1.3997,1.4088,1.4088,1.4088]}]]